<?xml version="1.0" encoding="UTF-8" standalone="no" ?>
<gpx xmlns="http://www.topografix.com/GPX/1/1" xmlns:xsi="http://www.w3.org/2001/XMLSchema-instance" xsi:schemaLocation="http://www.topografix.com/GPX/1/1 http://www.topografix.com/GPX/1/1/gpx.xsd" version="1.1" creator="VisuGPX - https://www.visugpx.com">
  <metadata>
    <name>St Jean Brévelay - Plaudren</name>
    <desc><![CDATA[boucle de 42 km pour une belle journée de rando dans les Landes de Lanvaux entre St Jean Brévelay et Plaudren]]></desc>
  </metadata>
  <trk>
    <name><![CDATA[St Jean Brévelay - Plaudren 42 km]]></name>
    <trkseg>
      <trkpt lat="47.84052" lon="-2.72625">
        <ele>138.63</ele>
        <time>2018-01-12T08:15:31Z</time>
      </trkpt>
      <trkpt lat="47.84074" lon="-2.72638">
        <ele>138.65</ele>
        <time>2018-01-12T08:15:55Z</time>
      </trkpt>
      <trkpt lat="47.84084" lon="-2.72638">
        <ele>138.24</ele>
        <time>2018-01-12T08:16:08Z</time>
      </trkpt>
      <trkpt lat="47.84082" lon="-2.72641">
        <ele>138.51</ele>
        <time>2018-01-12T08:16:22Z</time>
      </trkpt>
      <trkpt lat="47.84082" lon="-2.72641">
        <ele>138.21</ele>
        <time>2018-01-12T08:16:42Z</time>
      </trkpt>
      <trkpt lat="47.84082" lon="-2.7264">
        <ele>138.21</ele>
        <time>2018-01-12T08:16:45Z</time>
      </trkpt>
      <trkpt lat="47.84085" lon="-2.72632">
        <ele>138.27</ele>
        <time>2018-01-12T08:16:54Z</time>
      </trkpt>
      <trkpt lat="47.84084" lon="-2.72633">
        <ele>138.47</ele>
        <time>2018-01-12T08:17:01Z</time>
      </trkpt>
      <trkpt lat="47.84081" lon="-2.72638">
        <ele>138.51</ele>
        <time>2018-01-12T08:17:15Z</time>
      </trkpt>
      <trkpt lat="47.8408" lon="-2.72638">
        <ele>138.55</ele>
        <time>2018-01-12T08:17:38Z</time>
      </trkpt>
      <trkpt lat="47.8408" lon="-2.72636">
        <ele>138.46</ele>
        <time>2018-01-12T08:17:58Z</time>
      </trkpt>
      <trkpt lat="47.84079" lon="-2.7264">
        <ele>138.43</ele>
        <time>2018-01-12T08:18:11Z</time>
      </trkpt>
      <trkpt lat="47.8408" lon="-2.72639">
        <ele>138.75</ele>
        <time>2018-01-12T08:18:32Z</time>
      </trkpt>
      <trkpt lat="47.84079" lon="-2.7264">
        <ele>138.92</ele>
        <time>2018-01-12T08:18:49Z</time>
      </trkpt>
      <trkpt lat="47.84079" lon="-2.72647">
        <ele>138.66</ele>
        <time>2018-01-12T08:19:14Z</time>
      </trkpt>
      <trkpt lat="47.84079" lon="-2.72648">
        <ele>138.6</ele>
        <time>2018-01-12T08:19:27Z</time>
      </trkpt>
      <trkpt lat="47.84077" lon="-2.72654">
        <ele>138.46</ele>
        <time>2018-01-12T08:19:45Z</time>
      </trkpt>
      <trkpt lat="47.8408" lon="-2.72654">
        <ele>138.18</ele>
        <time>2018-01-12T08:20:00Z</time>
      </trkpt>
      <trkpt lat="47.84077" lon="-2.72652">
        <ele>138.05</ele>
        <time>2018-01-12T08:20:13Z</time>
      </trkpt>
      <trkpt lat="47.84077" lon="-2.72653">
        <ele>138.35</ele>
        <time>2018-01-12T08:20:34Z</time>
      </trkpt>
      <trkpt lat="47.84075" lon="-2.72651">
        <ele>138.16</ele>
        <time>2018-01-12T08:20:55Z</time>
      </trkpt>
      <trkpt lat="47.84077" lon="-2.72653">
        <ele>138.15</ele>
        <time>2018-01-12T08:21:09Z</time>
      </trkpt>
      <trkpt lat="47.84077" lon="-2.72652">
        <ele>138.15</ele>
        <time>2018-01-12T08:21:30Z</time>
      </trkpt>
      <trkpt lat="47.84078" lon="-2.72652">
        <ele>137.97</ele>
        <time>2018-01-12T08:21:48Z</time>
      </trkpt>
      <trkpt lat="47.84077" lon="-2.72656">
        <ele>138.02</ele>
        <time>2018-01-12T08:21:53Z</time>
      </trkpt>
      <trkpt lat="47.84078" lon="-2.7266">
        <ele>138</ele>
        <time>2018-01-12T08:21:56Z</time>
      </trkpt>
      <trkpt lat="47.84081" lon="-2.72669">
        <ele>137.92</ele>
        <time>2018-01-12T08:22:02Z</time>
      </trkpt>
      <trkpt lat="47.841" lon="-2.7267">
        <ele>137.5</ele>
        <time>2018-01-12T08:22:20Z</time>
      </trkpt>
      <trkpt lat="47.84101" lon="-2.7267">
        <ele>137.45</ele>
        <time>2018-01-12T08:22:21Z</time>
      </trkpt>
      <trkpt lat="47.84106" lon="-2.72678">
        <ele>137.17</ele>
        <time>2018-01-12T08:22:29Z</time>
      </trkpt>
      <trkpt lat="47.84109" lon="-2.72686">
        <ele>137.01</ele>
        <time>2018-01-12T08:22:34Z</time>
      </trkpt>
      <trkpt lat="47.8411" lon="-2.72689">
        <ele>136.96</ele>
        <time>2018-01-12T08:22:36Z</time>
      </trkpt>
      <trkpt lat="47.84117" lon="-2.72716">
        <ele>136.36</ele>
        <time>2018-01-12T08:22:52Z</time>
      </trkpt>
      <trkpt lat="47.84122" lon="-2.7273">
        <ele>136.15</ele>
        <time>2018-01-12T08:23:00Z</time>
      </trkpt>
      <trkpt lat="47.8413" lon="-2.72756">
        <ele>135.55</ele>
        <time>2018-01-12T08:23:12Z</time>
      </trkpt>
      <trkpt lat="47.84138" lon="-2.72781">
        <ele>134.83</ele>
        <time>2018-01-12T08:23:26Z</time>
      </trkpt>
      <trkpt lat="47.84141" lon="-2.72807">
        <ele>134.16</ele>
        <time>2018-01-12T08:23:43Z</time>
      </trkpt>
      <trkpt lat="47.84139" lon="-2.72822">
        <ele>134.06</ele>
        <time>2018-01-12T08:23:52Z</time>
      </trkpt>
      <trkpt lat="47.84139" lon="-2.72831">
        <ele>134.18</ele>
        <time>2018-01-12T08:23:57Z</time>
      </trkpt>
      <trkpt lat="47.8414" lon="-2.72862">
        <ele>134.11</ele>
        <time>2018-01-12T08:24:10Z</time>
      </trkpt>
      <trkpt lat="47.84138" lon="-2.72898">
        <ele>134.08</ele>
        <time>2018-01-12T08:24:26Z</time>
      </trkpt>
      <trkpt lat="47.84136" lon="-2.7291">
        <ele>133.72</ele>
        <time>2018-01-12T08:24:37Z</time>
      </trkpt>
      <trkpt lat="47.84134" lon="-2.72916">
        <ele>133.87</ele>
        <time>2018-01-12T08:24:53Z</time>
      </trkpt>
      <trkpt lat="47.84134" lon="-2.72919">
        <ele>133.97</ele>
        <time>2018-01-12T08:24:55Z</time>
      </trkpt>
      <trkpt lat="47.84136" lon="-2.72928">
        <ele>134.16</ele>
        <time>2018-01-12T08:25:01Z</time>
      </trkpt>
      <trkpt lat="47.84137" lon="-2.72936">
        <ele>134.34</ele>
        <time>2018-01-12T08:25:15Z</time>
      </trkpt>
      <trkpt lat="47.84135" lon="-2.72955">
        <ele>134.22</ele>
        <time>2018-01-12T08:25:28Z</time>
      </trkpt>
      <trkpt lat="47.84134" lon="-2.72993">
        <ele>133.82</ele>
        <time>2018-01-12T08:25:45Z</time>
      </trkpt>
      <trkpt lat="47.84131" lon="-2.73021">
        <ele>133.73</ele>
        <time>2018-01-12T08:25:59Z</time>
      </trkpt>
      <trkpt lat="47.84127" lon="-2.73077">
        <ele>132.62</ele>
        <time>2018-01-12T08:26:22Z</time>
      </trkpt>
      <trkpt lat="47.84128" lon="-2.73106">
        <ele>131.11</ele>
        <time>2018-01-12T08:26:35Z</time>
      </trkpt>
      <trkpt lat="47.84129" lon="-2.73126">
        <ele>129.78</ele>
        <time>2018-01-12T08:26:44Z</time>
      </trkpt>
      <trkpt lat="47.84131" lon="-2.73166">
        <ele>128.6</ele>
        <time>2018-01-12T08:27:00Z</time>
      </trkpt>
      <trkpt lat="47.84131" lon="-2.73189">
        <ele>128.22</ele>
        <time>2018-01-12T08:27:10Z</time>
      </trkpt>
      <trkpt lat="47.84131" lon="-2.73197">
        <ele>128.12</ele>
        <time>2018-01-12T08:27:14Z</time>
      </trkpt>
      <trkpt lat="47.8413" lon="-2.73239">
        <ele>127.46</ele>
        <time>2018-01-12T08:27:31Z</time>
      </trkpt>
      <trkpt lat="47.84128" lon="-2.73272">
        <ele>127.07</ele>
        <time>2018-01-12T08:27:44Z</time>
      </trkpt>
      <trkpt lat="47.84124" lon="-2.73316">
        <ele>126.13</ele>
        <time>2018-01-12T08:28:02Z</time>
      </trkpt>
      <trkpt lat="47.84125" lon="-2.7334">
        <ele>124.87</ele>
        <time>2018-01-12T08:28:15Z</time>
      </trkpt>
      <trkpt lat="47.84125" lon="-2.73359">
        <ele>124.07</ele>
        <time>2018-01-12T08:28:23Z</time>
      </trkpt>
      <trkpt lat="47.84126" lon="-2.73393">
        <ele>123.01</ele>
        <time>2018-01-12T08:28:35Z</time>
      </trkpt>
      <trkpt lat="47.84127" lon="-2.73421">
        <ele>122.64</ele>
        <time>2018-01-12T08:28:46Z</time>
      </trkpt>
      <trkpt lat="47.84127" lon="-2.73431">
        <ele>122.56</ele>
        <time>2018-01-12T08:28:50Z</time>
      </trkpt>
      <trkpt lat="47.84125" lon="-2.73446">
        <ele>122.36</ele>
        <time>2018-01-12T08:28:57Z</time>
      </trkpt>
      <trkpt lat="47.84124" lon="-2.7345">
        <ele>122.28</ele>
        <time>2018-01-12T08:28:59Z</time>
      </trkpt>
      <trkpt lat="47.84125" lon="-2.73461">
        <ele>122.21</ele>
        <time>2018-01-12T08:29:04Z</time>
      </trkpt>
      <trkpt lat="47.84124" lon="-2.73472">
        <ele>122.42</ele>
        <time>2018-01-12T08:29:16Z</time>
      </trkpt>
      <trkpt lat="47.84112" lon="-2.73476">
        <ele>121.63</ele>
        <time>2018-01-12T08:29:28Z</time>
      </trkpt>
      <trkpt lat="47.84106" lon="-2.73479">
        <ele>121.32</ele>
        <time>2018-01-12T08:29:32Z</time>
      </trkpt>
      <trkpt lat="47.84095" lon="-2.73489">
        <ele>120.58</ele>
        <time>2018-01-12T08:29:40Z</time>
      </trkpt>
      <trkpt lat="47.84082" lon="-2.73504">
        <ele>119.95</ele>
        <time>2018-01-12T08:29:51Z</time>
      </trkpt>
      <trkpt lat="47.84076" lon="-2.73514">
        <ele>119.38</ele>
        <time>2018-01-12T08:29:56Z</time>
      </trkpt>
      <trkpt lat="47.84057" lon="-2.73539">
        <ele>118.1</ele>
        <time>2018-01-12T08:30:11Z</time>
      </trkpt>
      <trkpt lat="47.84056" lon="-2.7354">
        <ele>118.02</ele>
        <time>2018-01-12T08:30:12Z</time>
      </trkpt>
      <trkpt lat="47.84041" lon="-2.73556">
        <ele>117.05</ele>
        <time>2018-01-12T08:30:23Z</time>
      </trkpt>
      <trkpt lat="47.84021" lon="-2.73571">
        <ele>116.11</ele>
        <time>2018-01-12T08:30:35Z</time>
      </trkpt>
      <trkpt lat="47.84005" lon="-2.73589">
        <ele>114.31</ele>
        <time>2018-01-12T08:30:48Z</time>
      </trkpt>
      <trkpt lat="47.83986" lon="-2.73616">
        <ele>111.73</ele>
        <time>2018-01-12T08:31:05Z</time>
      </trkpt>
      <trkpt lat="47.83981" lon="-2.7362">
        <ele>111.35</ele>
        <time>2018-01-12T08:31:08Z</time>
      </trkpt>
      <trkpt lat="47.83977" lon="-2.73621">
        <ele>110.96</ele>
        <time>2018-01-12T08:31:11Z</time>
      </trkpt>
      <trkpt lat="47.83951" lon="-2.73634">
        <ele>108.99</ele>
        <time>2018-01-12T08:31:24Z</time>
      </trkpt>
      <trkpt lat="47.83946" lon="-2.73636">
        <ele>108.29</ele>
        <time>2018-01-12T08:31:26Z</time>
      </trkpt>
      <trkpt lat="47.83941" lon="-2.73643">
        <ele>107.57</ele>
        <time>2018-01-12T08:31:30Z</time>
      </trkpt>
      <trkpt lat="47.83911" lon="-2.73661">
        <ele>105.33</ele>
        <time>2018-01-12T08:31:46Z</time>
      </trkpt>
      <trkpt lat="47.83878" lon="-2.73671">
        <ele>102.39</ele>
        <time>2018-01-12T08:32:04Z</time>
      </trkpt>
      <trkpt lat="47.83849" lon="-2.73678">
        <ele>100.41</ele>
        <time>2018-01-12T08:32:21Z</time>
      </trkpt>
      <trkpt lat="47.83825" lon="-2.73682">
        <ele>98.77</ele>
        <time>2018-01-12T08:32:36Z</time>
      </trkpt>
      <trkpt lat="47.83799" lon="-2.73693">
        <ele>96.92</ele>
        <time>2018-01-12T08:32:51Z</time>
      </trkpt>
      <trkpt lat="47.83768" lon="-2.73701">
        <ele>94.6</ele>
        <time>2018-01-12T08:33:07Z</time>
      </trkpt>
      <trkpt lat="47.83745" lon="-2.73708">
        <ele>92.3</ele>
        <time>2018-01-12T08:33:20Z</time>
      </trkpt>
      <trkpt lat="47.83715" lon="-2.73719">
        <ele>89.79</ele>
        <time>2018-01-12T08:33:37Z</time>
      </trkpt>
      <trkpt lat="47.83688" lon="-2.73729">
        <ele>88.01</ele>
        <time>2018-01-12T08:33:53Z</time>
      </trkpt>
      <trkpt lat="47.83664" lon="-2.73736">
        <ele>85.42</ele>
        <time>2018-01-12T08:34:08Z</time>
      </trkpt>
      <trkpt lat="47.83662" lon="-2.73736">
        <ele>85.31</ele>
        <time>2018-01-12T08:34:09Z</time>
      </trkpt>
      <trkpt lat="47.83645" lon="-2.73734">
        <ele>83.19</ele>
        <time>2018-01-12T08:34:22Z</time>
      </trkpt>
      <trkpt lat="47.83644" lon="-2.73734">
        <ele>83.06</ele>
        <time>2018-01-12T08:34:23Z</time>
      </trkpt>
      <trkpt lat="47.83615" lon="-2.73785">
        <ele>77.42578125</ele>
      </trkpt>
      <trkpt lat="47.83582" lon="-2.73803">
        <ele>73.453125</ele>
      </trkpt>
      <trkpt lat="47.83537" lon="-2.73792">
        <ele>66.66796875</ele>
      </trkpt>
      <trkpt lat="47.83491" lon="-2.73797">
        <ele>59.30078125</ele>
      </trkpt>
      <trkpt lat="47.83466" lon="-2.73803">
        <ele>55.7421875</ele>
      </trkpt>
      <trkpt lat="47.8343" lon="-2.73854">
        <ele>51.66015625</ele>
      </trkpt>
      <trkpt lat="47.83426" lon="-2.73902">
        <ele>50.41796875</ele>
      </trkpt>
      <trkpt lat="47.83434" lon="-2.73941">
        <ele>50.1953125</ele>
      </trkpt>
      <trkpt lat="47.83488" lon="-2.73959">
        <ele>54.48046875</ele>
      </trkpt>
      <trkpt lat="47.83521" lon="-2.74018">
        <ele>56.10546875</ele>
      </trkpt>
      <trkpt lat="47.83533" lon="-2.74027">
        <ele>50.36</ele>
        <time>2018-01-12T08:40:44Z</time>
      </trkpt>
      <trkpt lat="47.83539" lon="-2.74026">
        <ele>53.77</ele>
        <time>2018-01-12T08:40:50Z</time>
      </trkpt>
      <trkpt lat="47.83547" lon="-2.74024">
        <ele>56.95</ele>
        <time>2018-01-12T08:40:57Z</time>
      </trkpt>
      <trkpt lat="47.83569" lon="-2.74028">
        <ele>59.97</ele>
        <time>2018-01-12T08:41:10Z</time>
      </trkpt>
      <trkpt lat="47.83573" lon="-2.7403">
        <ele>60.27</ele>
        <time>2018-01-12T08:41:12Z</time>
      </trkpt>
      <trkpt lat="47.83582" lon="-2.74038">
        <ele>61.31</ele>
        <time>2018-01-12T08:41:18Z</time>
      </trkpt>
      <trkpt lat="47.83587" lon="-2.74042">
        <ele>62.31</ele>
        <time>2018-01-12T08:41:38Z</time>
      </trkpt>
      <trkpt lat="47.83598" lon="-2.74047">
        <ele>63.9</ele>
        <time>2018-01-12T08:44:39Z</time>
      </trkpt>
      <trkpt lat="47.83608" lon="-2.74027">
        <ele>64.03</ele>
        <time>2018-01-12T08:44:56Z</time>
      </trkpt>
      <trkpt lat="47.83611" lon="-2.74025">
        <ele>64.62</ele>
        <time>2018-01-12T08:44:58Z</time>
      </trkpt>
      <trkpt lat="47.83628" lon="-2.74021">
        <ele>68.19</ele>
        <time>2018-01-12T08:45:08Z</time>
      </trkpt>
      <trkpt lat="47.83629" lon="-2.7402">
        <ele>68.42</ele>
        <time>2018-01-12T08:45:09Z</time>
      </trkpt>
      <trkpt lat="47.83635" lon="-2.74013">
        <ele>69.48</ele>
        <time>2018-01-12T08:45:15Z</time>
      </trkpt>
      <trkpt lat="47.8365" lon="-2.73994">
        <ele>71.6</ele>
        <time>2018-01-12T08:45:29Z</time>
      </trkpt>
      <trkpt lat="47.83655" lon="-2.73993">
        <ele>72.41</ele>
        <time>2018-01-12T08:45:32Z</time>
      </trkpt>
      <trkpt lat="47.83671" lon="-2.7399">
        <ele>76.02</ele>
        <time>2018-01-12T08:45:43Z</time>
      </trkpt>
      <trkpt lat="47.83672" lon="-2.73989">
        <ele>76.39</ele>
        <time>2018-01-12T08:45:44Z</time>
      </trkpt>
      <trkpt lat="47.83676" lon="-2.73984">
        <ele>77.5</ele>
        <time>2018-01-12T08:45:48Z</time>
      </trkpt>
      <trkpt lat="47.83689" lon="-2.73979">
        <ele>79.35</ele>
        <time>2018-01-12T08:45:57Z</time>
      </trkpt>
      <trkpt lat="47.83695" lon="-2.73972">
        <ele>80.12</ele>
        <time>2018-01-12T08:46:02Z</time>
      </trkpt>
      <trkpt lat="47.83703" lon="-2.73967">
        <ele>80.48</ele>
        <time>2018-01-12T08:46:08Z</time>
      </trkpt>
      <trkpt lat="47.83726" lon="-2.73975">
        <ele>82.93</ele>
        <time>2018-01-12T08:46:23Z</time>
      </trkpt>
      <trkpt lat="47.83729" lon="-2.73973">
        <ele>83.18</ele>
        <time>2018-01-12T08:46:25Z</time>
      </trkpt>
      <trkpt lat="47.83746" lon="-2.7396">
        <ele>83.92</ele>
        <time>2018-01-12T08:46:38Z</time>
      </trkpt>
      <trkpt lat="47.83754" lon="-2.73954">
        <ele>84.1</ele>
        <time>2018-01-12T08:46:44Z</time>
      </trkpt>
      <trkpt lat="47.83768" lon="-2.73961">
        <ele>85.31</ele>
        <time>2018-01-12T08:46:54Z</time>
      </trkpt>
      <trkpt lat="47.83785" lon="-2.73963">
        <ele>87.24</ele>
        <time>2018-01-12T08:47:05Z</time>
      </trkpt>
      <trkpt lat="47.83789" lon="-2.73964">
        <ele>87.62</ele>
        <time>2018-01-12T08:47:07Z</time>
      </trkpt>
      <trkpt lat="47.83799" lon="-2.73979">
        <ele>89.18</ele>
        <time>2018-01-12T08:47:15Z</time>
      </trkpt>
      <trkpt lat="47.83799" lon="-2.73988">
        <ele>89.62</ele>
        <time>2018-01-12T08:47:20Z</time>
      </trkpt>
      <trkpt lat="47.83801" lon="-2.74">
        <ele>90.03</ele>
        <time>2018-01-12T08:47:27Z</time>
      </trkpt>
      <trkpt lat="47.83801" lon="-2.74005">
        <ele>90.06</ele>
        <time>2018-01-12T08:47:29Z</time>
      </trkpt>
      <trkpt lat="47.83802" lon="-2.7401">
        <ele>90.08</ele>
        <time>2018-01-12T08:47:31Z</time>
      </trkpt>
      <trkpt lat="47.83803" lon="-2.7403">
        <ele>90.29</ele>
        <time>2018-01-12T08:47:40Z</time>
      </trkpt>
      <trkpt lat="47.83801" lon="-2.74043">
        <ele>90.31</ele>
        <time>2018-01-12T08:47:47Z</time>
      </trkpt>
      <trkpt lat="47.838" lon="-2.74057">
        <ele>90.33</ele>
        <time>2018-01-12T08:47:54Z</time>
      </trkpt>
      <trkpt lat="47.838" lon="-2.74081">
        <ele>90.33</ele>
        <time>2018-01-12T08:48:04Z</time>
      </trkpt>
      <trkpt lat="47.838" lon="-2.74085">
        <ele>90.31</ele>
        <time>2018-01-12T08:48:06Z</time>
      </trkpt>
      <trkpt lat="47.83798" lon="-2.74108">
        <ele>90.23</ele>
        <time>2018-01-12T08:48:14Z</time>
      </trkpt>
      <trkpt lat="47.83798" lon="-2.74138">
        <ele>90.3</ele>
        <time>2018-01-12T08:48:26Z</time>
      </trkpt>
      <trkpt lat="47.83795" lon="-2.74151">
        <ele>90.19</ele>
        <time>2018-01-12T08:48:31Z</time>
      </trkpt>
      <trkpt lat="47.83797" lon="-2.7418">
        <ele>89.41</ele>
        <time>2018-01-12T08:48:45Z</time>
      </trkpt>
      <trkpt lat="47.83794" lon="-2.74196">
        <ele>87.41</ele>
        <time>2018-01-12T08:48:54Z</time>
      </trkpt>
      <trkpt lat="47.83795" lon="-2.74214">
        <ele>85.22</ele>
        <time>2018-01-12T08:49:02Z</time>
      </trkpt>
      <trkpt lat="47.83796" lon="-2.74239">
        <ele>85.45</ele>
        <time>2018-01-12T08:49:10Z</time>
      </trkpt>
      <trkpt lat="47.83792" lon="-2.74272">
        <ele>87.68</ele>
        <time>2018-01-12T08:49:24Z</time>
      </trkpt>
      <trkpt lat="47.83795" lon="-2.74291">
        <ele>88.96</ele>
        <time>2018-01-12T08:49:33Z</time>
      </trkpt>
      <trkpt lat="47.83796" lon="-2.74323">
        <ele>90.5</ele>
        <time>2018-01-12T08:49:46Z</time>
      </trkpt>
      <trkpt lat="47.83793" lon="-2.74331">
        <ele>90.94</ele>
        <time>2018-01-12T08:49:52Z</time>
      </trkpt>
      <trkpt lat="47.83793" lon="-2.74334">
        <ele>91.03</ele>
        <time>2018-01-12T08:49:54Z</time>
      </trkpt>
      <trkpt lat="47.83788" lon="-2.74348">
        <ele>90.81</ele>
        <time>2018-01-12T08:49:59Z</time>
      </trkpt>
      <trkpt lat="47.83778" lon="-2.7436">
        <ele>90.63</ele>
        <time>2018-01-12T08:50:06Z</time>
      </trkpt>
      <trkpt lat="47.8375" lon="-2.74367">
        <ele>88.41</ele>
        <time>2018-01-12T08:50:23Z</time>
      </trkpt>
      <trkpt lat="47.83723" lon="-2.74372">
        <ele>85.92</ele>
        <time>2018-01-12T08:50:38Z</time>
      </trkpt>
      <trkpt lat="47.83696" lon="-2.74377">
        <ele>83.53</ele>
        <time>2018-01-12T08:50:53Z</time>
      </trkpt>
      <trkpt lat="47.83672" lon="-2.74381">
        <ele>81.85</ele>
        <time>2018-01-12T08:51:07Z</time>
      </trkpt>
      <trkpt lat="47.83644" lon="-2.74388">
        <ele>79.72</ele>
        <time>2018-01-12T08:51:23Z</time>
      </trkpt>
      <trkpt lat="47.83618" lon="-2.74393">
        <ele>76.81</ele>
        <time>2018-01-12T08:51:39Z</time>
      </trkpt>
      <trkpt lat="47.83596" lon="-2.74407">
        <ele>73.83</ele>
        <time>2018-01-12T08:51:53Z</time>
      </trkpt>
      <trkpt lat="47.83591" lon="-2.74415">
        <ele>73.02</ele>
        <time>2018-01-12T08:51:57Z</time>
      </trkpt>
      <trkpt lat="47.8359" lon="-2.74418">
        <ele>72.78</ele>
        <time>2018-01-12T08:51:58Z</time>
      </trkpt>
      <trkpt lat="47.8359" lon="-2.7442">
        <ele>72.58</ele>
        <time>2018-01-12T08:51:59Z</time>
      </trkpt>
      <trkpt lat="47.83589" lon="-2.74423">
        <ele>72.4</ele>
        <time>2018-01-12T08:52:00Z</time>
      </trkpt>
      <trkpt lat="47.83588" lon="-2.74425">
        <ele>72.24</ele>
        <time>2018-01-12T08:52:01Z</time>
      </trkpt>
      <trkpt lat="47.83579" lon="-2.74464">
        <ele>69.5</ele>
        <time>2018-01-12T08:52:17Z</time>
      </trkpt>
      <trkpt lat="47.83574" lon="-2.74501">
        <ele>67.38</ele>
        <time>2018-01-12T08:52:32Z</time>
      </trkpt>
      <trkpt lat="47.8357" lon="-2.7454">
        <ele>65.21</ele>
        <time>2018-01-12T08:52:47Z</time>
      </trkpt>
      <trkpt lat="47.83566" lon="-2.74574">
        <ele>62.42</ele>
        <time>2018-01-12T08:53:01Z</time>
      </trkpt>
      <trkpt lat="47.83564" lon="-2.74604">
        <ele>61.25</ele>
        <time>2018-01-12T08:53:12Z</time>
      </trkpt>
      <trkpt lat="47.83564" lon="-2.74607">
        <ele>61.2</ele>
        <time>2018-01-12T08:53:13Z</time>
      </trkpt>
      <trkpt lat="47.83564" lon="-2.7461">
        <ele>61.15</ele>
        <time>2018-01-12T08:53:14Z</time>
      </trkpt>
      <trkpt lat="47.83564" lon="-2.74612">
        <ele>61.07</ele>
        <time>2018-01-12T08:53:15Z</time>
      </trkpt>
      <trkpt lat="47.83563" lon="-2.74615">
        <ele>61.02</ele>
        <time>2018-01-12T08:53:16Z</time>
      </trkpt>
      <trkpt lat="47.83563" lon="-2.74616">
        <ele>60.95</ele>
        <time>2018-01-12T08:53:17Z</time>
      </trkpt>
      <trkpt lat="47.83562" lon="-2.74619">
        <ele>60.92</ele>
        <time>2018-01-12T08:53:18Z</time>
      </trkpt>
      <trkpt lat="47.83554" lon="-2.74655">
        <ele>60.49</ele>
        <time>2018-01-12T08:53:31Z</time>
      </trkpt>
      <trkpt lat="47.83547" lon="-2.74695">
        <ele>59.21</ele>
        <time>2018-01-12T08:53:45Z</time>
      </trkpt>
      <trkpt lat="47.83533" lon="-2.7473">
        <ele>57.67</ele>
        <time>2018-01-12T08:53:59Z</time>
      </trkpt>
      <trkpt lat="47.83512" lon="-2.74763">
        <ele>55.12</ele>
        <time>2018-01-12T08:54:16Z</time>
      </trkpt>
      <trkpt lat="47.83486" lon="-2.74801">
        <ele>53.15</ele>
        <time>2018-01-12T08:54:36Z</time>
      </trkpt>
      <trkpt lat="47.83473" lon="-2.74844">
        <ele>51.71</ele>
        <time>2018-01-12T08:54:55Z</time>
      </trkpt>
      <trkpt lat="47.83476" lon="-2.74886">
        <ele>51.6</ele>
        <time>2018-01-12T08:55:11Z</time>
      </trkpt>
      <trkpt lat="47.83482" lon="-2.7493">
        <ele>51.21</ele>
        <time>2018-01-12T08:55:28Z</time>
      </trkpt>
      <trkpt lat="47.83487" lon="-2.74973">
        <ele>51.34</ele>
        <time>2018-01-12T08:55:46Z</time>
      </trkpt>
      <trkpt lat="47.83492" lon="-2.75005">
        <ele>50.53</ele>
        <time>2018-01-12T08:56:01Z</time>
      </trkpt>
      <trkpt lat="47.83496" lon="-2.75033">
        <ele>49.71</ele>
        <time>2018-01-12T08:56:15Z</time>
      </trkpt>
      <trkpt lat="47.83498" lon="-2.75041">
        <ele>49.36</ele>
        <time>2018-01-12T08:56:20Z</time>
      </trkpt>
      <trkpt lat="47.83499" lon="-2.75048">
        <ele>49.27</ele>
        <time>2018-01-12T08:56:23Z</time>
      </trkpt>
      <trkpt lat="47.83501" lon="-2.75081">
        <ele>49.01</ele>
        <time>2018-01-12T08:56:37Z</time>
      </trkpt>
      <trkpt lat="47.83482" lon="-2.75123">
        <ele>49.48</ele>
        <time>2018-01-12T08:56:52Z</time>
      </trkpt>
      <trkpt lat="47.83453" lon="-2.75123">
        <ele>49.11</ele>
        <time>2018-01-12T08:57:08Z</time>
      </trkpt>
      <trkpt lat="47.83432" lon="-2.7513">
        <ele>48.84</ele>
        <time>2018-01-12T08:57:20Z</time>
      </trkpt>
      <trkpt lat="47.83432" lon="-2.75132">
        <ele>48.74</ele>
        <time>2018-01-12T08:57:21Z</time>
      </trkpt>
      <trkpt lat="47.83432" lon="-2.75135">
        <ele>48.64</ele>
        <time>2018-01-12T08:57:22Z</time>
      </trkpt>
      <trkpt lat="47.83437" lon="-2.75178">
        <ele>47.81</ele>
        <time>2018-01-12T08:57:39Z</time>
      </trkpt>
      <trkpt lat="47.83438" lon="-2.75213">
        <ele>47.69</ele>
        <time>2018-01-12T08:57:53Z</time>
      </trkpt>
      <trkpt lat="47.83438" lon="-2.75255">
        <ele>48.08</ele>
        <time>2018-01-12T08:58:08Z</time>
      </trkpt>
      <trkpt lat="47.83437" lon="-2.75308">
        <ele>48.86</ele>
        <time>2018-01-12T08:58:29Z</time>
      </trkpt>
      <trkpt lat="47.83438" lon="-2.75348">
        <ele>48.89</ele>
        <time>2018-01-12T08:58:45Z</time>
      </trkpt>
      <trkpt lat="47.83439" lon="-2.75388">
        <ele>49.13</ele>
        <time>2018-01-12T08:59:01Z</time>
      </trkpt>
      <trkpt lat="47.83437" lon="-2.75427">
        <ele>49.34</ele>
        <time>2018-01-12T08:59:17Z</time>
      </trkpt>
      <trkpt lat="47.83426" lon="-2.75463">
        <ele>49.49</ele>
        <time>2018-01-12T08:59:31Z</time>
      </trkpt>
      <trkpt lat="47.8341" lon="-2.75491">
        <ele>50.15</ele>
        <time>2018-01-12T08:59:47Z</time>
      </trkpt>
      <trkpt lat="47.83392" lon="-2.75502">
        <ele>51.92</ele>
        <time>2018-01-12T09:00:01Z</time>
      </trkpt>
      <trkpt lat="47.83376" lon="-2.75501">
        <ele>53.51</ele>
        <time>2018-01-12T09:00:14Z</time>
      </trkpt>
      <trkpt lat="47.83374" lon="-2.755">
        <ele>53.58</ele>
        <time>2018-01-12T09:00:15Z</time>
      </trkpt>
      <trkpt lat="47.83373" lon="-2.755">
        <ele>53.64</ele>
        <time>2018-01-12T09:00:16Z</time>
      </trkpt>
      <trkpt lat="47.83371" lon="-2.755">
        <ele>53.68</ele>
        <time>2018-01-12T09:00:17Z</time>
      </trkpt>
      <trkpt lat="47.8337" lon="-2.755">
        <ele>53.72</ele>
        <time>2018-01-12T09:00:18Z</time>
      </trkpt>
      <trkpt lat="47.83368" lon="-2.755">
        <ele>53.78</ele>
        <time>2018-01-12T09:00:19Z</time>
      </trkpt>
      <trkpt lat="47.83366" lon="-2.755">
        <ele>53.89</ele>
        <time>2018-01-12T09:00:20Z</time>
      </trkpt>
      <trkpt lat="47.8335" lon="-2.75521">
        <ele>54.81</ele>
        <time>2018-01-12T09:00:35Z</time>
      </trkpt>
      <trkpt lat="47.8334" lon="-2.75565">
        <ele>54.8</ele>
        <time>2018-01-12T09:00:53Z</time>
      </trkpt>
      <trkpt lat="47.83321" lon="-2.75598">
        <ele>54.71</ele>
        <time>2018-01-12T09:01:11Z</time>
      </trkpt>
      <trkpt lat="47.83296" lon="-2.75593">
        <ele>55.06</ele>
        <time>2018-01-12T09:01:22Z</time>
      </trkpt>
      <trkpt lat="47.8324" lon="-2.75574">
        <ele>56.32</ele>
        <time>2018-01-12T09:01:35Z</time>
      </trkpt>
      <trkpt lat="47.83174" lon="-2.75553">
        <ele>58.09</ele>
        <time>2018-01-12T09:01:49Z</time>
      </trkpt>
      <trkpt lat="47.83094" lon="-2.75525">
        <ele>60.64</ele>
        <time>2018-01-12T09:02:03Z</time>
      </trkpt>
      <trkpt lat="47.8306" lon="-2.75513">
        <ele>62.21</ele>
        <time>2018-01-12T09:02:09Z</time>
      </trkpt>
      <trkpt lat="47.83056" lon="-2.7551">
        <ele>62.49</ele>
        <time>2018-01-12T09:02:10Z</time>
      </trkpt>
      <trkpt lat="47.83051" lon="-2.75506">
        <ele>62.77</ele>
        <time>2018-01-12T09:02:11Z</time>
      </trkpt>
      <trkpt lat="47.8302" lon="-2.7548">
        <ele>66.08</ele>
        <time>2018-01-12T09:02:21Z</time>
      </trkpt>
      <trkpt lat="47.83011" lon="-2.7546">
        <ele>68.31</ele>
        <time>2018-01-12T09:02:30Z</time>
      </trkpt>
      <trkpt lat="47.83012" lon="-2.75458">
        <ele>68.39</ele>
        <time>2018-01-12T09:02:31Z</time>
      </trkpt>
      <trkpt lat="47.8301" lon="-2.75439">
        <ele>68.78</ele>
        <time>2018-01-12T09:02:38Z</time>
      </trkpt>
      <trkpt lat="47.8301" lon="-2.75437">
        <ele>68.85</ele>
        <time>2018-01-12T09:02:39Z</time>
      </trkpt>
      <trkpt lat="47.8301" lon="-2.75434">
        <ele>68.88</ele>
        <time>2018-01-12T09:02:40Z</time>
      </trkpt>
      <trkpt lat="47.83009" lon="-2.75432">
        <ele>68.92</ele>
        <time>2018-01-12T09:02:41Z</time>
      </trkpt>
      <trkpt lat="47.83008" lon="-2.7543">
        <ele>68.96</ele>
        <time>2018-01-12T09:02:42Z</time>
      </trkpt>
      <trkpt lat="47.83007" lon="-2.75428">
        <ele>68.98</ele>
        <time>2018-01-12T09:02:43Z</time>
      </trkpt>
      <trkpt lat="47.83006" lon="-2.75426">
        <ele>68.99</ele>
        <time>2018-01-12T09:02:44Z</time>
      </trkpt>
      <trkpt lat="47.83005" lon="-2.75424">
        <ele>69</ele>
        <time>2018-01-12T09:02:45Z</time>
      </trkpt>
      <trkpt lat="47.83004" lon="-2.75423">
        <ele>69.03</ele>
        <time>2018-01-12T09:02:46Z</time>
      </trkpt>
      <trkpt lat="47.83003" lon="-2.75421">
        <ele>69.06</ele>
        <time>2018-01-12T09:02:47Z</time>
      </trkpt>
      <trkpt lat="47.82983" lon="-2.75412">
        <ele>70.04</ele>
        <time>2018-01-12T09:03:01Z</time>
      </trkpt>
      <trkpt lat="47.82961" lon="-2.7541">
        <ele>71.24</ele>
        <time>2018-01-12T09:03:16Z</time>
      </trkpt>
      <trkpt lat="47.82938" lon="-2.75396">
        <ele>71.56</ele>
        <time>2018-01-12T09:03:31Z</time>
      </trkpt>
      <trkpt lat="47.82916" lon="-2.75385">
        <ele>70.82</ele>
        <time>2018-01-12T09:03:46Z</time>
      </trkpt>
      <trkpt lat="47.82894" lon="-2.75368">
        <ele>70.02</ele>
        <time>2018-01-12T09:04:01Z</time>
      </trkpt>
      <trkpt lat="47.82864" lon="-2.75359">
        <ele>68.79</ele>
        <time>2018-01-12T09:04:19Z</time>
      </trkpt>
      <trkpt lat="47.8284" lon="-2.75349">
        <ele>67.64</ele>
        <time>2018-01-12T09:04:33Z</time>
      </trkpt>
      <trkpt lat="47.82818" lon="-2.7534">
        <ele>67.54</ele>
        <time>2018-01-12T09:04:47Z</time>
      </trkpt>
      <trkpt lat="47.82798" lon="-2.75339">
        <ele>67.76</ele>
        <time>2018-01-12T09:04:59Z</time>
      </trkpt>
      <trkpt lat="47.82772" lon="-2.75312">
        <ele>67.81</ele>
        <time>2018-01-12T09:05:17Z</time>
      </trkpt>
      <trkpt lat="47.82749" lon="-2.75274">
        <ele>66.91</ele>
        <time>2018-01-12T09:05:36Z</time>
      </trkpt>
      <trkpt lat="47.82722" lon="-2.75229">
        <ele>65.85</ele>
        <time>2018-01-12T09:05:58Z</time>
      </trkpt>
      <trkpt lat="47.82704" lon="-2.75196">
        <ele>64.97</ele>
        <time>2018-01-12T09:06:15Z</time>
      </trkpt>
      <trkpt lat="47.82686" lon="-2.75162">
        <ele>63.29</ele>
        <time>2018-01-12T09:06:32Z</time>
      </trkpt>
      <trkpt lat="47.82668" lon="-2.75128">
        <ele>61.46</ele>
        <time>2018-01-12T09:06:49Z</time>
      </trkpt>
      <trkpt lat="47.82653" lon="-2.751">
        <ele>59.95</ele>
        <time>2018-01-12T09:07:02Z</time>
      </trkpt>
      <trkpt lat="47.82637" lon="-2.75069">
        <ele>57.83</ele>
        <time>2018-01-12T09:07:16Z</time>
      </trkpt>
      <trkpt lat="47.8262" lon="-2.75044">
        <ele>55.57</ele>
        <time>2018-01-12T09:07:31Z</time>
      </trkpt>
      <trkpt lat="47.82601" lon="-2.75031">
        <ele>54.21</ele>
        <time>2018-01-12T09:07:43Z</time>
      </trkpt>
      <trkpt lat="47.82577" lon="-2.75021">
        <ele>54.22</ele>
        <time>2018-01-12T09:07:57Z</time>
      </trkpt>
      <trkpt lat="47.82549" lon="-2.7502">
        <ele>54.64</ele>
        <time>2018-01-12T09:08:12Z</time>
      </trkpt>
      <trkpt lat="47.82529" lon="-2.7502">
        <ele>54.88</ele>
        <time>2018-01-12T09:08:24Z</time>
      </trkpt>
      <trkpt lat="47.82528" lon="-2.7502">
        <ele>54.89</ele>
        <time>2018-01-12T09:08:25Z</time>
      </trkpt>
      <trkpt lat="47.82527" lon="-2.7502">
        <ele>54.9</ele>
        <time>2018-01-12T09:08:26Z</time>
      </trkpt>
      <trkpt lat="47.82502" lon="-2.75023">
        <ele>55.41</ele>
        <time>2018-01-12T09:08:41Z</time>
      </trkpt>
      <trkpt lat="47.82477" lon="-2.75025">
        <ele>56.73</ele>
        <time>2018-01-12T09:08:56Z</time>
      </trkpt>
      <trkpt lat="47.82461" lon="-2.75028">
        <ele>57.77</ele>
        <time>2018-01-12T09:09:08Z</time>
      </trkpt>
      <trkpt lat="47.82436" lon="-2.75031">
        <ele>59.75</ele>
        <time>2018-01-12T09:09:21Z</time>
      </trkpt>
      <trkpt lat="47.82406" lon="-2.75035">
        <ele>62.53</ele>
        <time>2018-01-12T09:09:36Z</time>
      </trkpt>
      <trkpt lat="47.82393" lon="-2.7506">
        <ele>64.96</ele>
        <time>2018-01-12T09:09:50Z</time>
      </trkpt>
      <trkpt lat="47.8239" lon="-2.75099">
        <ele>65.17</ele>
        <time>2018-01-12T09:10:06Z</time>
      </trkpt>
      <trkpt lat="47.82389" lon="-2.75101">
        <ele>65.24</ele>
        <time>2018-01-12T09:10:07Z</time>
      </trkpt>
      <trkpt lat="47.82388" lon="-2.75103">
        <ele>65.29</ele>
        <time>2018-01-12T09:10:08Z</time>
      </trkpt>
      <trkpt lat="47.82388" lon="-2.75106">
        <ele>65.36</ele>
        <time>2018-01-12T09:10:09Z</time>
      </trkpt>
      <trkpt lat="47.82387" lon="-2.75108">
        <ele>65.42</ele>
        <time>2018-01-12T09:10:10Z</time>
      </trkpt>
      <trkpt lat="47.82387" lon="-2.75111">
        <ele>65.49</ele>
        <time>2018-01-12T09:10:11Z</time>
      </trkpt>
      <trkpt lat="47.8238" lon="-2.75152">
        <ele>67.33</ele>
        <time>2018-01-12T09:10:28Z</time>
      </trkpt>
      <trkpt lat="47.82377" lon="-2.75188">
        <ele>67.53</ele>
        <time>2018-01-12T09:10:42Z</time>
      </trkpt>
      <trkpt lat="47.82373" lon="-2.75228">
        <ele>67.75</ele>
        <time>2018-01-12T09:10:58Z</time>
      </trkpt>
      <trkpt lat="47.82366" lon="-2.75273">
        <ele>67.77</ele>
        <time>2018-01-12T09:11:16Z</time>
      </trkpt>
      <trkpt lat="47.82361" lon="-2.75299">
        <ele>67.89</ele>
        <time>2018-01-12T09:11:27Z</time>
      </trkpt>
      <trkpt lat="47.8236" lon="-2.75301">
        <ele>67.89</ele>
        <time>2018-01-12T09:11:28Z</time>
      </trkpt>
      <trkpt lat="47.82359" lon="-2.75303">
        <ele>67.87</ele>
        <time>2018-01-12T09:11:29Z</time>
      </trkpt>
      <trkpt lat="47.82355" lon="-2.7535">
        <ele>67.94</ele>
        <time>2018-01-12T09:11:47Z</time>
      </trkpt>
      <trkpt lat="47.82352" lon="-2.7538">
        <ele>68.73</ele>
        <time>2018-01-12T09:12:01Z</time>
      </trkpt>
      <trkpt lat="47.82351" lon="-2.75407">
        <ele>69.3</ele>
        <time>2018-01-12T09:12:13Z</time>
      </trkpt>
      <trkpt lat="47.82341" lon="-2.75455">
        <ele>70.32</ele>
        <time>2018-01-12T09:12:32Z</time>
      </trkpt>
      <trkpt lat="47.82329" lon="-2.75491">
        <ele>70.69</ele>
        <time>2018-01-12T09:12:47Z</time>
      </trkpt>
      <trkpt lat="47.82322" lon="-2.75528">
        <ele>70.67</ele>
        <time>2018-01-12T09:13:03Z</time>
      </trkpt>
      <trkpt lat="47.82314" lon="-2.7557">
        <ele>69.59</ele>
        <time>2018-01-12T09:13:21Z</time>
      </trkpt>
      <trkpt lat="47.82303" lon="-2.75617">
        <ele>67.94</ele>
        <time>2018-01-12T09:13:41Z</time>
      </trkpt>
      <trkpt lat="47.82297" lon="-2.7565">
        <ele>68.23</ele>
        <time>2018-01-12T09:13:56Z</time>
      </trkpt>
      <trkpt lat="47.82289" lon="-2.75692">
        <ele>70.14</ele>
        <time>2018-01-12T09:14:14Z</time>
      </trkpt>
      <trkpt lat="47.82283" lon="-2.75734">
        <ele>71.42</ele>
        <time>2018-01-12T09:14:31Z</time>
      </trkpt>
      <trkpt lat="47.82281" lon="-2.75786">
        <ele>71.86</ele>
        <time>2018-01-12T09:14:51Z</time>
      </trkpt>
      <trkpt lat="47.82284" lon="-2.75819">
        <ele>71.01</ele>
        <time>2018-01-12T09:15:04Z</time>
      </trkpt>
      <trkpt lat="47.8229" lon="-2.75854">
        <ele>70.26</ele>
        <time>2018-01-12T09:15:19Z</time>
      </trkpt>
      <trkpt lat="47.82302" lon="-2.75893">
        <ele>68.63</ele>
        <time>2018-01-12T09:15:37Z</time>
      </trkpt>
      <trkpt lat="47.82325" lon="-2.75919">
        <ele>67.47</ele>
        <time>2018-01-12T09:15:54Z</time>
      </trkpt>
      <trkpt lat="47.82349" lon="-2.75941">
        <ele>67.33</ele>
        <time>2018-01-12T09:16:10Z</time>
      </trkpt>
      <trkpt lat="47.82369" lon="-2.7596">
        <ele>67.52</ele>
        <time>2018-01-12T09:16:25Z</time>
      </trkpt>
      <trkpt lat="47.82393" lon="-2.7598">
        <ele>67.42</ele>
        <time>2018-01-12T09:16:41Z</time>
      </trkpt>
      <trkpt lat="47.8242" lon="-2.76003">
        <ele>67.03</ele>
        <time>2018-01-12T09:16:59Z</time>
      </trkpt>
      <trkpt lat="47.82424" lon="-2.76008">
        <ele>66.59</ele>
        <time>2018-01-12T09:17:11Z</time>
      </trkpt>
      <trkpt lat="47.82422" lon="-2.7601">
        <ele>66.63</ele>
        <time>2018-01-12T09:17:33Z</time>
      </trkpt>
      <trkpt lat="47.82424" lon="-2.76012">
        <ele>66.63</ele>
        <time>2018-01-12T09:17:44Z</time>
      </trkpt>
      <trkpt lat="47.82425" lon="-2.76013">
        <ele>66.6</ele>
        <time>2018-01-12T09:17:45Z</time>
      </trkpt>
      <trkpt lat="47.82427" lon="-2.76013">
        <ele>66.56</ele>
        <time>2018-01-12T09:17:46Z</time>
      </trkpt>
      <trkpt lat="47.82428" lon="-2.76014">
        <ele>66.52</ele>
        <time>2018-01-12T09:17:47Z</time>
      </trkpt>
      <trkpt lat="47.82429" lon="-2.76015">
        <ele>66.48</ele>
        <time>2018-01-12T09:17:48Z</time>
      </trkpt>
      <trkpt lat="47.8243" lon="-2.76017">
        <ele>66.44</ele>
        <time>2018-01-12T09:17:49Z</time>
      </trkpt>
      <trkpt lat="47.82432" lon="-2.76018">
        <ele>66.41</ele>
        <time>2018-01-12T09:17:50Z</time>
      </trkpt>
      <trkpt lat="47.82458" lon="-2.7604">
        <ele>65.75</ele>
        <time>2018-01-12T09:18:07Z</time>
      </trkpt>
      <trkpt lat="47.82483" lon="-2.76063">
        <ele>64.9</ele>
        <time>2018-01-12T09:18:24Z</time>
      </trkpt>
      <trkpt lat="47.82507" lon="-2.76094">
        <ele>64.22</ele>
        <time>2018-01-12T09:18:42Z</time>
      </trkpt>
      <trkpt lat="47.82522" lon="-2.7613">
        <ele>64.18</ele>
        <time>2018-01-12T09:18:58Z</time>
      </trkpt>
      <trkpt lat="47.8253" lon="-2.76175">
        <ele>63.75</ele>
        <time>2018-01-12T09:19:16Z</time>
      </trkpt>
      <trkpt lat="47.82532" lon="-2.76213">
        <ele>62.54</ele>
        <time>2018-01-12T09:19:31Z</time>
      </trkpt>
      <trkpt lat="47.82535" lon="-2.76258">
        <ele>61.57</ele>
        <time>2018-01-12T09:19:48Z</time>
      </trkpt>
      <trkpt lat="47.82535" lon="-2.76299">
        <ele>60.62</ele>
        <time>2018-01-12T09:20:03Z</time>
      </trkpt>
      <trkpt lat="47.82537" lon="-2.76337">
        <ele>60.2</ele>
        <time>2018-01-12T09:20:18Z</time>
      </trkpt>
      <trkpt lat="47.82538" lon="-2.76378">
        <ele>60.15</ele>
        <time>2018-01-12T09:20:34Z</time>
      </trkpt>
      <trkpt lat="47.82533" lon="-2.76425">
        <ele>59.96</ele>
        <time>2018-01-12T09:20:53Z</time>
      </trkpt>
      <trkpt lat="47.82528" lon="-2.76452">
        <ele>59.41</ele>
        <time>2018-01-12T09:21:05Z</time>
      </trkpt>
      <trkpt lat="47.82525" lon="-2.7646">
        <ele>59.27</ele>
        <time>2018-01-12T09:21:10Z</time>
      </trkpt>
      <trkpt lat="47.82518" lon="-2.76474">
        <ele>58.98</ele>
        <time>2018-01-12T09:21:17Z</time>
      </trkpt>
      <trkpt lat="47.82517" lon="-2.76474">
        <ele>58.94</ele>
        <time>2018-01-12T09:21:18Z</time>
      </trkpt>
      <trkpt lat="47.82515" lon="-2.76475">
        <ele>58.88</ele>
        <time>2018-01-12T09:21:19Z</time>
      </trkpt>
      <trkpt lat="47.82513" lon="-2.76474">
        <ele>58.84</ele>
        <time>2018-01-12T09:21:20Z</time>
      </trkpt>
      <trkpt lat="47.82512" lon="-2.76473">
        <ele>58.79</ele>
        <time>2018-01-12T09:21:21Z</time>
      </trkpt>
      <trkpt lat="47.8251" lon="-2.76473">
        <ele>58.74</ele>
        <time>2018-01-12T09:21:22Z</time>
      </trkpt>
      <trkpt lat="47.82509" lon="-2.76472">
        <ele>58.69</ele>
        <time>2018-01-12T09:21:23Z</time>
      </trkpt>
      <trkpt lat="47.82491" lon="-2.76471">
        <ele>59.18</ele>
        <time>2018-01-12T09:21:37Z</time>
      </trkpt>
      <trkpt lat="47.82473" lon="-2.76476">
        <ele>60.36</ele>
        <time>2018-01-12T09:21:51Z</time>
      </trkpt>
      <trkpt lat="47.82472" lon="-2.76476">
        <ele>60.46</ele>
        <time>2018-01-12T09:21:52Z</time>
      </trkpt>
      <trkpt lat="47.8247" lon="-2.76476">
        <ele>60.55</ele>
        <time>2018-01-12T09:21:53Z</time>
      </trkpt>
      <trkpt lat="47.82468" lon="-2.76477">
        <ele>60.66</ele>
        <time>2018-01-12T09:21:54Z</time>
      </trkpt>
      <trkpt lat="47.82466" lon="-2.76476">
        <ele>60.81</ele>
        <time>2018-01-12T09:21:55Z</time>
      </trkpt>
      <trkpt lat="47.82443" lon="-2.76475">
        <ele>62.52</ele>
        <time>2018-01-12T09:22:07Z</time>
      </trkpt>
      <trkpt lat="47.82412" lon="-2.76473">
        <ele>64.08</ele>
        <time>2018-01-12T09:22:23Z</time>
      </trkpt>
      <trkpt lat="47.82378" lon="-2.7647">
        <ele>66.64</ele>
        <time>2018-01-12T09:22:41Z</time>
      </trkpt>
      <trkpt lat="47.82351" lon="-2.76469">
        <ele>68.8</ele>
        <time>2018-01-12T09:22:58Z</time>
      </trkpt>
      <trkpt lat="47.82323" lon="-2.7647">
        <ele>70.01</ele>
        <time>2018-01-12T09:23:15Z</time>
      </trkpt>
      <trkpt lat="47.82297" lon="-2.76469">
        <ele>71.42</ele>
        <time>2018-01-12T09:23:31Z</time>
      </trkpt>
      <trkpt lat="47.82267" lon="-2.76468">
        <ele>72.88</ele>
        <time>2018-01-12T09:23:49Z</time>
      </trkpt>
      <trkpt lat="47.82236" lon="-2.76469">
        <ele>74.16</ele>
        <time>2018-01-12T09:24:08Z</time>
      </trkpt>
      <trkpt lat="47.82206" lon="-2.76468">
        <ele>76.02</ele>
        <time>2018-01-12T09:24:26Z</time>
      </trkpt>
      <trkpt lat="47.82179" lon="-2.76465">
        <ele>78.22</ele>
        <time>2018-01-12T09:24:42Z</time>
      </trkpt>
      <trkpt lat="47.82146" lon="-2.76463">
        <ele>80.27</ele>
        <time>2018-01-12T09:25:02Z</time>
      </trkpt>
      <trkpt lat="47.82119" lon="-2.76459">
        <ele>81.95</ele>
        <time>2018-01-12T09:25:17Z</time>
      </trkpt>
      <trkpt lat="47.82091" lon="-2.76461">
        <ele>82.96</ele>
        <time>2018-01-12T09:25:33Z</time>
      </trkpt>
      <trkpt lat="47.82057" lon="-2.76458">
        <ele>83.11</ele>
        <time>2018-01-12T09:25:53Z</time>
      </trkpt>
      <trkpt lat="47.82031" lon="-2.76456">
        <ele>83.34</ele>
        <time>2018-01-12T09:26:08Z</time>
      </trkpt>
      <trkpt lat="47.82003" lon="-2.76455">
        <ele>83.68</ele>
        <time>2018-01-12T09:26:24Z</time>
      </trkpt>
      <trkpt lat="47.8197" lon="-2.76455">
        <ele>83.77</ele>
        <time>2018-01-12T09:26:43Z</time>
      </trkpt>
      <trkpt lat="47.81933" lon="-2.76451">
        <ele>84.02</ele>
        <time>2018-01-12T09:27:03Z</time>
      </trkpt>
      <trkpt lat="47.81909" lon="-2.76452">
        <ele>84.5</ele>
        <time>2018-01-12T09:27:17Z</time>
      </trkpt>
      <trkpt lat="47.81881" lon="-2.76448">
        <ele>84.75</ele>
        <time>2018-01-12T09:27:32Z</time>
      </trkpt>
      <trkpt lat="47.81865" lon="-2.76457">
        <ele>85.23</ele>
        <time>2018-01-12T09:27:44Z</time>
      </trkpt>
      <trkpt lat="47.81865" lon="-2.7646">
        <ele>85.24</ele>
        <time>2018-01-12T09:27:46Z</time>
      </trkpt>
      <trkpt lat="47.81865" lon="-2.76461">
        <ele>85.24</ele>
        <time>2018-01-12T09:27:47Z</time>
      </trkpt>
      <trkpt lat="47.81865" lon="-2.76463">
        <ele>85.25</ele>
        <time>2018-01-12T09:27:48Z</time>
      </trkpt>
      <trkpt lat="47.81865" lon="-2.76465">
        <ele>85.29</ele>
        <time>2018-01-12T09:27:49Z</time>
      </trkpt>
      <trkpt lat="47.81865" lon="-2.76467">
        <ele>85.34</ele>
        <time>2018-01-12T09:27:50Z</time>
      </trkpt>
      <trkpt lat="47.81865" lon="-2.76469">
        <ele>85.43</ele>
        <time>2018-01-12T09:27:51Z</time>
      </trkpt>
      <trkpt lat="47.81866" lon="-2.76472">
        <ele>85.51</ele>
        <time>2018-01-12T09:27:52Z</time>
      </trkpt>
      <trkpt lat="47.81866" lon="-2.76474">
        <ele>85.61</ele>
        <time>2018-01-12T09:27:53Z</time>
      </trkpt>
      <trkpt lat="47.81866" lon="-2.76476">
        <ele>85.76</ele>
        <time>2018-01-12T09:27:54Z</time>
      </trkpt>
      <trkpt lat="47.81866" lon="-2.76478">
        <ele>85.92</ele>
        <time>2018-01-12T09:27:55Z</time>
      </trkpt>
      <trkpt lat="47.81866" lon="-2.76516">
        <ele>87.75</ele>
        <time>2018-01-12T09:28:12Z</time>
      </trkpt>
      <trkpt lat="47.81863" lon="-2.76546">
        <ele>89.09</ele>
        <time>2018-01-12T09:28:24Z</time>
      </trkpt>
      <trkpt lat="47.81863" lon="-2.76548">
        <ele>89.16</ele>
        <time>2018-01-12T09:28:25Z</time>
      </trkpt>
      <trkpt lat="47.81863" lon="-2.7655">
        <ele>89.23</ele>
        <time>2018-01-12T09:28:26Z</time>
      </trkpt>
      <trkpt lat="47.81863" lon="-2.76552">
        <ele>89.28</ele>
        <time>2018-01-12T09:28:27Z</time>
      </trkpt>
      <trkpt lat="47.81863" lon="-2.76554">
        <ele>89.35</ele>
        <time>2018-01-12T09:28:28Z</time>
      </trkpt>
      <trkpt lat="47.81863" lon="-2.76556">
        <ele>89.43</ele>
        <time>2018-01-12T09:28:29Z</time>
      </trkpt>
      <trkpt lat="47.81862" lon="-2.76585">
        <ele>90.51</ele>
        <time>2018-01-12T09:28:41Z</time>
      </trkpt>
      <trkpt lat="47.81862" lon="-2.76587">
        <ele>90.59</ele>
        <time>2018-01-12T09:28:42Z</time>
      </trkpt>
      <trkpt lat="47.81862" lon="-2.76589">
        <ele>90.67</ele>
        <time>2018-01-12T09:28:43Z</time>
      </trkpt>
      <trkpt lat="47.8186" lon="-2.76594">
        <ele>90.94</ele>
        <time>2018-01-12T09:28:46Z</time>
      </trkpt>
      <trkpt lat="47.81854" lon="-2.76627">
        <ele>92.4</ele>
        <time>2018-01-12T09:29:00Z</time>
      </trkpt>
      <trkpt lat="47.81849" lon="-2.76676">
        <ele>94.4</ele>
        <time>2018-01-12T09:29:20Z</time>
      </trkpt>
      <trkpt lat="47.81846" lon="-2.76712">
        <ele>95.3</ele>
        <time>2018-01-12T09:29:36Z</time>
      </trkpt>
      <trkpt lat="47.81843" lon="-2.76717">
        <ele>95.39</ele>
        <time>2018-01-12T09:29:39Z</time>
      </trkpt>
      <trkpt lat="47.81834" lon="-2.76723">
        <ele>95.72</ele>
        <time>2018-01-12T09:29:52Z</time>
      </trkpt>
      <trkpt lat="47.81837" lon="-2.76722">
        <ele>95.77</ele>
        <time>2018-01-12T09:29:59Z</time>
      </trkpt>
      <trkpt lat="47.81839" lon="-2.76723">
        <ele>95.79</ele>
        <time>2018-01-12T09:30:00Z</time>
      </trkpt>
      <trkpt lat="47.8184" lon="-2.76723">
        <ele>95.84</ele>
        <time>2018-01-12T09:30:01Z</time>
      </trkpt>
      <trkpt lat="47.81842" lon="-2.76723">
        <ele>95.87</ele>
        <time>2018-01-12T09:30:02Z</time>
      </trkpt>
      <trkpt lat="47.81843" lon="-2.76723">
        <ele>95.9</ele>
        <time>2018-01-12T09:30:03Z</time>
      </trkpt>
      <trkpt lat="47.81844" lon="-2.76723">
        <ele>95.93</ele>
        <time>2018-01-12T09:30:04Z</time>
      </trkpt>
      <trkpt lat="47.81845" lon="-2.76724">
        <ele>95.97</ele>
        <time>2018-01-12T09:30:05Z</time>
      </trkpt>
      <trkpt lat="47.81847" lon="-2.76725">
        <ele>96.01</ele>
        <time>2018-01-12T09:30:06Z</time>
      </trkpt>
      <trkpt lat="47.81848" lon="-2.76726">
        <ele>96.05</ele>
        <time>2018-01-12T09:30:07Z</time>
      </trkpt>
      <trkpt lat="47.8185" lon="-2.76729">
        <ele>96.1</ele>
        <time>2018-01-12T09:30:11Z</time>
      </trkpt>
      <trkpt lat="47.81852" lon="-2.7673">
        <ele>96.08</ele>
        <time>2018-01-12T09:30:12Z</time>
      </trkpt>
      <trkpt lat="47.81853" lon="-2.7673">
        <ele>96.09</ele>
        <time>2018-01-12T09:30:13Z</time>
      </trkpt>
      <trkpt lat="47.81854" lon="-2.76731">
        <ele>96.08</ele>
        <time>2018-01-12T09:30:14Z</time>
      </trkpt>
      <trkpt lat="47.81855" lon="-2.76731">
        <ele>96.05</ele>
        <time>2018-01-12T09:30:15Z</time>
      </trkpt>
      <trkpt lat="47.81857" lon="-2.76732">
        <ele>96.04</ele>
        <time>2018-01-12T09:30:16Z</time>
      </trkpt>
      <trkpt lat="47.81858" lon="-2.76733">
        <ele>96.06</ele>
        <time>2018-01-12T09:30:17Z</time>
      </trkpt>
      <trkpt lat="47.81859" lon="-2.76733">
        <ele>96.08</ele>
        <time>2018-01-12T09:30:18Z</time>
      </trkpt>
      <trkpt lat="47.81868" lon="-2.76753">
        <ele>96.38</ele>
        <time>2018-01-12T09:30:29Z</time>
      </trkpt>
      <trkpt lat="47.81872" lon="-2.76758">
        <ele>96.43</ele>
        <time>2018-01-12T09:30:33Z</time>
      </trkpt>
      <trkpt lat="47.81877" lon="-2.76759">
        <ele>96.45</ele>
        <time>2018-01-12T09:30:41Z</time>
      </trkpt>
      <trkpt lat="47.81878" lon="-2.76759">
        <ele>96.45</ele>
        <time>2018-01-12T09:30:42Z</time>
      </trkpt>
      <trkpt lat="47.8188" lon="-2.76759">
        <ele>96.45</ele>
        <time>2018-01-12T09:30:43Z</time>
      </trkpt>
      <trkpt lat="47.81881" lon="-2.76759">
        <ele>96.46</ele>
        <time>2018-01-12T09:30:44Z</time>
      </trkpt>
      <trkpt lat="47.81883" lon="-2.76759">
        <ele>96.49</ele>
        <time>2018-01-12T09:30:45Z</time>
      </trkpt>
      <trkpt lat="47.81884" lon="-2.76759">
        <ele>96.5</ele>
        <time>2018-01-12T09:30:46Z</time>
      </trkpt>
      <trkpt lat="47.81888" lon="-2.76759">
        <ele>96.77</ele>
        <time>2018-01-12T09:31:03Z</time>
      </trkpt>
      <trkpt lat="47.81889" lon="-2.76759">
        <ele>96.75</ele>
        <time>2018-01-12T09:31:04Z</time>
      </trkpt>
      <trkpt lat="47.81891" lon="-2.7676">
        <ele>96.74</ele>
        <time>2018-01-12T09:31:05Z</time>
      </trkpt>
      <trkpt lat="47.81892" lon="-2.76761">
        <ele>96.69</ele>
        <time>2018-01-12T09:31:06Z</time>
      </trkpt>
      <trkpt lat="47.81893" lon="-2.76762">
        <ele>96.69</ele>
        <time>2018-01-12T09:31:07Z</time>
      </trkpt>
      <trkpt lat="47.81894" lon="-2.76763">
        <ele>96.69</ele>
        <time>2018-01-12T09:31:08Z</time>
      </trkpt>
      <trkpt lat="47.81896" lon="-2.76764">
        <ele>96.64</ele>
        <time>2018-01-12T09:31:23Z</time>
      </trkpt>
      <trkpt lat="47.81896" lon="-2.76763">
        <ele>96.28</ele>
        <time>2018-01-12T09:31:39Z</time>
      </trkpt>
      <trkpt lat="47.81891" lon="-2.76764">
        <ele>96.66</ele>
        <time>2018-01-12T09:31:54Z</time>
      </trkpt>
      <trkpt lat="47.81893" lon="-2.7676">
        <ele>96.52</ele>
        <time>2018-01-12T09:32:16Z</time>
      </trkpt>
      <trkpt lat="47.81895" lon="-2.76759">
        <ele>96.46</ele>
        <time>2018-01-12T09:32:33Z</time>
      </trkpt>
      <trkpt lat="47.81893" lon="-2.76764">
        <ele>96.11</ele>
        <time>2018-01-12T09:32:52Z</time>
      </trkpt>
      <trkpt lat="47.81895" lon="-2.76765">
        <ele>95.97</ele>
        <time>2018-01-12T09:33:20Z</time>
      </trkpt>
      <trkpt lat="47.81896" lon="-2.76763">
        <ele>96.33</ele>
        <time>2018-01-12T09:33:39Z</time>
      </trkpt>
      <trkpt lat="47.81897" lon="-2.76762">
        <ele>96.4</ele>
        <time>2018-01-12T09:33:52Z</time>
      </trkpt>
      <trkpt lat="47.81896" lon="-2.76762">
        <ele>96.4</ele>
        <time>2018-01-12T09:33:53Z</time>
      </trkpt>
      <trkpt lat="47.81894" lon="-2.76761">
        <ele>96.4</ele>
        <time>2018-01-12T09:33:54Z</time>
      </trkpt>
      <trkpt lat="47.81893" lon="-2.7676">
        <ele>96.4</ele>
        <time>2018-01-12T09:33:55Z</time>
      </trkpt>
      <trkpt lat="47.81892" lon="-2.7676">
        <ele>96.4</ele>
        <time>2018-01-12T09:33:56Z</time>
      </trkpt>
      <trkpt lat="47.81887" lon="-2.76754">
        <ele>96.53</ele>
        <time>2018-01-12T09:34:01Z</time>
      </trkpt>
      <trkpt lat="47.81885" lon="-2.76751">
        <ele>96.77</ele>
        <time>2018-01-12T09:34:14Z</time>
      </trkpt>
      <trkpt lat="47.81887" lon="-2.76752">
        <ele>96.79</ele>
        <time>2018-01-12T09:34:16Z</time>
      </trkpt>
      <trkpt lat="47.81889" lon="-2.76753">
        <ele>96.77</ele>
        <time>2018-01-12T09:34:18Z</time>
      </trkpt>
      <trkpt lat="47.81893" lon="-2.76762">
        <ele>96.56</ele>
        <time>2018-01-12T09:34:32Z</time>
      </trkpt>
      <trkpt lat="47.81888" lon="-2.76757">
        <ele>96.35</ele>
        <time>2018-01-12T09:34:43Z</time>
      </trkpt>
      <trkpt lat="47.81886" lon="-2.76754">
        <ele>96.22</ele>
        <time>2018-01-12T09:34:47Z</time>
      </trkpt>
      <trkpt lat="47.81884" lon="-2.76751">
        <ele>96.15</ele>
        <time>2018-01-12T09:34:49Z</time>
      </trkpt>
      <trkpt lat="47.81876" lon="-2.76745">
        <ele>96.16</ele>
        <time>2018-01-12T09:34:55Z</time>
      </trkpt>
      <trkpt lat="47.81858" lon="-2.76733">
        <ele>96.03</ele>
        <time>2018-01-12T09:35:11Z</time>
      </trkpt>
      <trkpt lat="47.81837" lon="-2.76722">
        <ele>95.39</ele>
        <time>2018-01-12T09:35:26Z</time>
      </trkpt>
      <trkpt lat="47.81811" lon="-2.76706">
        <ele>95.03</ele>
        <time>2018-01-12T09:35:43Z</time>
      </trkpt>
      <trkpt lat="47.81798" lon="-2.76702">
        <ele>94.66</ele>
        <time>2018-01-12T09:35:51Z</time>
      </trkpt>
      <trkpt lat="47.81794" lon="-2.76714">
        <ele>94.37</ele>
        <time>2018-01-12T09:35:57Z</time>
      </trkpt>
      <trkpt lat="47.8179" lon="-2.76744">
        <ele>93.93</ele>
        <time>2018-01-12T09:36:11Z</time>
      </trkpt>
      <trkpt lat="47.8179" lon="-2.76749">
        <ele>93.83</ele>
        <time>2018-01-12T09:36:13Z</time>
      </trkpt>
      <trkpt lat="47.81784" lon="-2.76758">
        <ele>93.37</ele>
        <time>2018-01-12T09:36:19Z</time>
      </trkpt>
      <trkpt lat="47.81763" lon="-2.76777">
        <ele>91.53</ele>
        <time>2018-01-12T09:36:35Z</time>
      </trkpt>
      <trkpt lat="47.81746" lon="-2.76794">
        <ele>89.91</ele>
        <time>2018-01-12T09:36:49Z</time>
      </trkpt>
      <trkpt lat="47.81743" lon="-2.76797">
        <ele>89.71</ele>
        <time>2018-01-12T09:36:51Z</time>
      </trkpt>
      <trkpt lat="47.81738" lon="-2.76803">
        <ele>89.26</ele>
        <time>2018-01-12T09:36:55Z</time>
      </trkpt>
      <trkpt lat="47.8172" lon="-2.7682">
        <ele>87.56</ele>
        <time>2018-01-12T09:37:10Z</time>
      </trkpt>
      <trkpt lat="47.81715" lon="-2.76821">
        <ele>87.12</ele>
        <time>2018-01-12T09:37:25Z</time>
      </trkpt>
      <trkpt lat="47.81714" lon="-2.76822">
        <ele>87.13</ele>
        <time>2018-01-12T09:37:27Z</time>
      </trkpt>
      <trkpt lat="47.81709" lon="-2.76826">
        <ele>87.16</ele>
        <time>2018-01-12T09:37:31Z</time>
      </trkpt>
      <trkpt lat="47.81695" lon="-2.76834">
        <ele>86.51</ele>
        <time>2018-01-12T09:37:41Z</time>
      </trkpt>
      <trkpt lat="47.81672" lon="-2.76845">
        <ele>85.34</ele>
        <time>2018-01-12T09:37:56Z</time>
      </trkpt>
      <trkpt lat="47.81648" lon="-2.76839">
        <ele>84.24</ele>
        <time>2018-01-12T09:38:13Z</time>
      </trkpt>
      <trkpt lat="47.81627" lon="-2.76829">
        <ele>83.61</ele>
        <time>2018-01-12T09:38:25Z</time>
      </trkpt>
      <trkpt lat="47.81604" lon="-2.7682">
        <ele>82.42</ele>
        <time>2018-01-12T09:38:41Z</time>
      </trkpt>
      <trkpt lat="47.81583" lon="-2.76811">
        <ele>80.95</ele>
        <time>2018-01-12T09:38:55Z</time>
      </trkpt>
      <trkpt lat="47.81561" lon="-2.76809">
        <ele>79.91</ele>
        <time>2018-01-12T09:39:09Z</time>
      </trkpt>
      <trkpt lat="47.81549" lon="-2.7681">
        <ele>79.4</ele>
        <time>2018-01-12T09:39:18Z</time>
      </trkpt>
      <trkpt lat="47.81547" lon="-2.7681">
        <ele>79.38</ele>
        <time>2018-01-12T09:39:19Z</time>
      </trkpt>
      <trkpt lat="47.81528" lon="-2.76812">
        <ele>79.53</ele>
        <time>2018-01-12T09:39:34Z</time>
      </trkpt>
      <trkpt lat="47.81527" lon="-2.76815">
        <ele>79.66</ele>
        <time>2018-01-12T09:39:54Z</time>
      </trkpt>
      <trkpt lat="47.81524" lon="-2.76816">
        <ele>80.04</ele>
        <time>2018-01-12T09:39:59Z</time>
      </trkpt>
      <trkpt lat="47.81523" lon="-2.76817">
        <ele>80.14</ele>
        <time>2018-01-12T09:40:00Z</time>
      </trkpt>
      <trkpt lat="47.81522" lon="-2.76817">
        <ele>80.23</ele>
        <time>2018-01-12T09:40:01Z</time>
      </trkpt>
      <trkpt lat="47.81521" lon="-2.76818">
        <ele>80.31</ele>
        <time>2018-01-12T09:40:02Z</time>
      </trkpt>
      <trkpt lat="47.81508" lon="-2.76825">
        <ele>81.69</ele>
        <time>2018-01-12T09:40:16Z</time>
      </trkpt>
      <trkpt lat="47.81498" lon="-2.76832">
        <ele>82.63</ele>
        <time>2018-01-12T09:40:32Z</time>
      </trkpt>
      <trkpt lat="47.81497" lon="-2.76833">
        <ele>83.23</ele>
        <time>2018-01-12T09:40:47Z</time>
      </trkpt>
      <trkpt lat="47.81493" lon="-2.76833">
        <ele>83.24</ele>
        <time>2018-01-12T09:40:55Z</time>
      </trkpt>
      <trkpt lat="47.81488" lon="-2.76835">
        <ele>83.31</ele>
        <time>2018-01-12T09:40:59Z</time>
      </trkpt>
      <trkpt lat="47.81459" lon="-2.76851">
        <ele>84.39</ele>
        <time>2018-01-12T09:41:09Z</time>
      </trkpt>
      <trkpt lat="47.81414" lon="-2.76874">
        <ele>86.06</ele>
        <time>2018-01-12T09:41:21Z</time>
      </trkpt>
      <trkpt lat="47.81385" lon="-2.76888">
        <ele>87.27</ele>
        <time>2018-01-12T09:41:27Z</time>
      </trkpt>
      <trkpt lat="47.8138" lon="-2.7689">
        <ele>87.67</ele>
        <time>2018-01-12T09:41:28Z</time>
      </trkpt>
      <trkpt lat="47.8137" lon="-2.76894">
        <ele>88.68</ele>
        <time>2018-01-12T09:41:30Z</time>
      </trkpt>
      <trkpt lat="47.81347" lon="-2.76909">
        <ele>91.9</ele>
        <time>2018-01-12T09:41:35Z</time>
      </trkpt>
      <trkpt lat="47.81331" lon="-2.76919">
        <ele>94.58</ele>
        <time>2018-01-12T09:41:40Z</time>
      </trkpt>
      <trkpt lat="47.8133" lon="-2.76921">
        <ele>95.11</ele>
        <time>2018-01-12T09:41:41Z</time>
      </trkpt>
      <trkpt lat="47.81329" lon="-2.76923">
        <ele>95.63</ele>
        <time>2018-01-12T09:41:42Z</time>
      </trkpt>
      <trkpt lat="47.81328" lon="-2.76925">
        <ele>96.1</ele>
        <time>2018-01-12T09:41:43Z</time>
      </trkpt>
      <trkpt lat="47.81328" lon="-2.76927">
        <ele>96.52</ele>
        <time>2018-01-12T09:41:44Z</time>
      </trkpt>
      <trkpt lat="47.81327" lon="-2.76953">
        <ele>96.74</ele>
        <time>2018-01-12T09:41:55Z</time>
      </trkpt>
      <trkpt lat="47.81327" lon="-2.76984">
        <ele>94.01</ele>
        <time>2018-01-12T09:42:07Z</time>
      </trkpt>
      <trkpt lat="47.81326" lon="-2.77031">
        <ele>90.94</ele>
        <time>2018-01-12T09:42:16Z</time>
      </trkpt>
      <trkpt lat="47.81329" lon="-2.77088">
        <ele>88.78</ele>
        <time>2018-01-12T09:42:26Z</time>
      </trkpt>
      <trkpt lat="47.81335" lon="-2.77124">
        <ele>88.88</ele>
        <time>2018-01-12T09:42:36Z</time>
      </trkpt>
      <trkpt lat="47.81335" lon="-2.77129">
        <ele>89.03</ele>
        <time>2018-01-12T09:42:40Z</time>
      </trkpt>
      <trkpt lat="47.81336" lon="-2.77136">
        <ele>89.04</ele>
        <time>2018-01-12T09:42:46Z</time>
      </trkpt>
      <trkpt lat="47.81337" lon="-2.77137">
        <ele>89.05</ele>
        <time>2018-01-12T09:42:47Z</time>
      </trkpt>
      <trkpt lat="47.81343" lon="-2.77148">
        <ele>88.52</ele>
        <time>2018-01-12T09:42:56Z</time>
      </trkpt>
      <trkpt lat="47.81344" lon="-2.77151">
        <ele>88.51</ele>
        <time>2018-01-12T09:42:57Z</time>
      </trkpt>
      <trkpt lat="47.81345" lon="-2.77155">
        <ele>88.49</ele>
        <time>2018-01-12T09:42:58Z</time>
      </trkpt>
      <trkpt lat="47.81347" lon="-2.77171">
        <ele>88.11</ele>
        <time>2018-01-12T09:43:10Z</time>
      </trkpt>
      <trkpt lat="47.81346" lon="-2.77182">
        <ele>87.64</ele>
        <time>2018-01-12T09:43:24Z</time>
      </trkpt>
      <trkpt lat="47.81347" lon="-2.77189">
        <ele>87.31</ele>
        <time>2018-01-12T09:43:36Z</time>
      </trkpt>
      <trkpt lat="47.81347" lon="-2.77191">
        <ele>87.32</ele>
        <time>2018-01-12T09:43:37Z</time>
      </trkpt>
      <trkpt lat="47.81347" lon="-2.77194">
        <ele>87.31</ele>
        <time>2018-01-12T09:43:38Z</time>
      </trkpt>
      <trkpt lat="47.81343" lon="-2.77222">
        <ele>86.08</ele>
        <time>2018-01-12T09:43:49Z</time>
      </trkpt>
      <trkpt lat="47.81329" lon="-2.77247">
        <ele>85.09</ele>
        <time>2018-01-12T09:43:57Z</time>
      </trkpt>
      <trkpt lat="47.81308" lon="-2.77281">
        <ele>85.3</ele>
        <time>2018-01-12T09:44:09Z</time>
      </trkpt>
      <trkpt lat="47.81302" lon="-2.77287">
        <ele>85.55</ele>
        <time>2018-01-12T09:44:12Z</time>
      </trkpt>
      <trkpt lat="47.81298" lon="-2.77287">
        <ele>85.64</ele>
        <time>2018-01-12T09:44:13Z</time>
      </trkpt>
      <trkpt lat="47.81273" lon="-2.77285">
        <ele>86.57</ele>
        <time>2018-01-12T09:44:20Z</time>
      </trkpt>
      <trkpt lat="47.81244" lon="-2.77292">
        <ele>88.02</ele>
        <time>2018-01-12T09:44:27Z</time>
      </trkpt>
      <trkpt lat="47.81239" lon="-2.77292">
        <ele>88.27</ele>
        <time>2018-01-12T09:44:28Z</time>
      </trkpt>
      <trkpt lat="47.81235" lon="-2.77298">
        <ele>88.49</ele>
        <time>2018-01-12T09:44:29Z</time>
      </trkpt>
      <trkpt lat="47.81232" lon="-2.77297">
        <ele>88.7</ele>
        <time>2018-01-12T09:44:30Z</time>
      </trkpt>
      <trkpt lat="47.81229" lon="-2.77296">
        <ele>88.98</ele>
        <time>2018-01-12T09:44:31Z</time>
      </trkpt>
      <trkpt lat="47.81226" lon="-2.77296">
        <ele>89.28</ele>
        <time>2018-01-12T09:44:32Z</time>
      </trkpt>
      <trkpt lat="47.81223" lon="-2.77296">
        <ele>89.77</ele>
        <time>2018-01-12T09:44:33Z</time>
      </trkpt>
      <trkpt lat="47.81219" lon="-2.77296">
        <ele>90.03</ele>
        <time>2018-01-12T09:44:34Z</time>
      </trkpt>
      <trkpt lat="47.81206" lon="-2.77296">
        <ele>91.13</ele>
        <time>2018-01-12T09:44:38Z</time>
      </trkpt>
      <trkpt lat="47.81204" lon="-2.77296">
        <ele>91.41</ele>
        <time>2018-01-12T09:44:39Z</time>
      </trkpt>
      <trkpt lat="47.8119" lon="-2.77299">
        <ele>92.87</ele>
        <time>2018-01-12T09:44:50Z</time>
      </trkpt>
      <trkpt lat="47.81187" lon="-2.77301">
        <ele>93.1</ele>
        <time>2018-01-12T09:44:53Z</time>
      </trkpt>
      <trkpt lat="47.81176" lon="-2.77307">
        <ele>91.75</ele>
        <time>2018-01-12T09:45:10Z</time>
      </trkpt>
      <trkpt lat="47.8116" lon="-2.77301">
        <ele>93.28</ele>
        <time>2018-01-12T09:45:29Z</time>
      </trkpt>
      <trkpt lat="47.81153" lon="-2.77304">
        <ele>93.82</ele>
        <time>2018-01-12T09:45:33Z</time>
      </trkpt>
      <trkpt lat="47.8115" lon="-2.77307">
        <ele>94.06</ele>
        <time>2018-01-12T09:45:35Z</time>
      </trkpt>
      <trkpt lat="47.81148" lon="-2.77309">
        <ele>94.21</ele>
        <time>2018-01-12T09:45:36Z</time>
      </trkpt>
      <trkpt lat="47.81145" lon="-2.7736">
        <ele>95.2</ele>
        <time>2018-01-12T09:45:47Z</time>
      </trkpt>
      <trkpt lat="47.81144" lon="-2.77362">
        <ele>95.27</ele>
        <time>2018-01-12T09:45:48Z</time>
      </trkpt>
      <trkpt lat="47.81137" lon="-2.77393">
        <ele>96.92</ele>
        <time>2018-01-12T09:46:05Z</time>
      </trkpt>
      <trkpt lat="47.81138" lon="-2.77394">
        <ele>97.3</ele>
        <time>2018-01-12T09:46:06Z</time>
      </trkpt>
      <trkpt lat="47.81138" lon="-2.77396">
        <ele>97.62</ele>
        <time>2018-01-12T09:46:07Z</time>
      </trkpt>
      <trkpt lat="47.81138" lon="-2.77398">
        <ele>97.92</ele>
        <time>2018-01-12T09:46:08Z</time>
      </trkpt>
      <trkpt lat="47.81139" lon="-2.77409">
        <ele>99.25</ele>
        <time>2018-01-12T09:46:14Z</time>
      </trkpt>
      <trkpt lat="47.81143" lon="-2.77425">
        <ele>100.89</ele>
        <time>2018-01-12T09:46:20Z</time>
      </trkpt>
      <trkpt lat="47.81142" lon="-2.77428">
        <ele>101.1</ele>
        <time>2018-01-12T09:46:21Z</time>
      </trkpt>
      <trkpt lat="47.81141" lon="-2.77433">
        <ele>101.29</ele>
        <time>2018-01-12T09:46:22Z</time>
      </trkpt>
      <trkpt lat="47.8114" lon="-2.77436">
        <ele>101.49</ele>
        <time>2018-01-12T09:46:23Z</time>
      </trkpt>
      <trkpt lat="47.81139" lon="-2.7744">
        <ele>101.76</ele>
        <time>2018-01-12T09:46:24Z</time>
      </trkpt>
      <trkpt lat="47.81137" lon="-2.77443">
        <ele>102.07</ele>
        <time>2018-01-12T09:46:25Z</time>
      </trkpt>
      <trkpt lat="47.81136" lon="-2.77447">
        <ele>102.34</ele>
        <time>2018-01-12T09:46:26Z</time>
      </trkpt>
      <trkpt lat="47.81135" lon="-2.77451">
        <ele>102.75</ele>
        <time>2018-01-12T09:46:27Z</time>
      </trkpt>
      <trkpt lat="47.81135" lon="-2.77456">
        <ele>102.88</ele>
        <time>2018-01-12T09:46:28Z</time>
      </trkpt>
      <trkpt lat="47.81135" lon="-2.77461">
        <ele>102.96</ele>
        <time>2018-01-12T09:46:29Z</time>
      </trkpt>
      <trkpt lat="47.81135" lon="-2.77466">
        <ele>102.97</ele>
        <time>2018-01-12T09:46:30Z</time>
      </trkpt>
      <trkpt lat="47.81136" lon="-2.7747">
        <ele>102.94</ele>
        <time>2018-01-12T09:46:31Z</time>
      </trkpt>
      <trkpt lat="47.81137" lon="-2.77475">
        <ele>102.9</ele>
        <time>2018-01-12T09:46:32Z</time>
      </trkpt>
      <trkpt lat="47.81138" lon="-2.77479">
        <ele>102.88</ele>
        <time>2018-01-12T09:46:33Z</time>
      </trkpt>
      <trkpt lat="47.81143" lon="-2.77497">
        <ele>102.75</ele>
        <time>2018-01-12T09:46:38Z</time>
      </trkpt>
      <trkpt lat="47.81143" lon="-2.77501">
        <ele>102.74</ele>
        <time>2018-01-12T09:46:39Z</time>
      </trkpt>
      <trkpt lat="47.81143" lon="-2.77505">
        <ele>102.7</ele>
        <time>2018-01-12T09:46:40Z</time>
      </trkpt>
      <trkpt lat="47.81143" lon="-2.77508">
        <ele>102.67</ele>
        <time>2018-01-12T09:46:41Z</time>
      </trkpt>
      <trkpt lat="47.81143" lon="-2.77512">
        <ele>102.64</ele>
        <time>2018-01-12T09:46:42Z</time>
      </trkpt>
      <trkpt lat="47.81143" lon="-2.77514">
        <ele>102.61</ele>
        <time>2018-01-12T09:46:43Z</time>
      </trkpt>
      <trkpt lat="47.81143" lon="-2.77517">
        <ele>102.6</ele>
        <time>2018-01-12T09:46:44Z</time>
      </trkpt>
      <trkpt lat="47.81143" lon="-2.7752">
        <ele>102.6</ele>
        <time>2018-01-12T09:46:45Z</time>
      </trkpt>
      <trkpt lat="47.81144" lon="-2.77522">
        <ele>102.59</ele>
        <time>2018-01-12T09:46:46Z</time>
      </trkpt>
      <trkpt lat="47.81145" lon="-2.77524">
        <ele>102.58</ele>
        <time>2018-01-12T09:46:47Z</time>
      </trkpt>
      <trkpt lat="47.81147" lon="-2.77526">
        <ele>102.57</ele>
        <time>2018-01-12T09:46:48Z</time>
      </trkpt>
      <trkpt lat="47.81164" lon="-2.77549">
        <ele>101.85</ele>
        <time>2018-01-12T09:46:56Z</time>
      </trkpt>
      <trkpt lat="47.81166" lon="-2.7755">
        <ele>101.69</ele>
        <time>2018-01-12T09:46:57Z</time>
      </trkpt>
      <trkpt lat="47.81167" lon="-2.77551">
        <ele>101.5</ele>
        <time>2018-01-12T09:46:58Z</time>
      </trkpt>
      <trkpt lat="47.81169" lon="-2.77552">
        <ele>101.32</ele>
        <time>2018-01-12T09:46:59Z</time>
      </trkpt>
      <trkpt lat="47.81171" lon="-2.77553">
        <ele>101.14</ele>
        <time>2018-01-12T09:47:00Z</time>
      </trkpt>
      <trkpt lat="47.81173" lon="-2.77553">
        <ele>100.98</ele>
        <time>2018-01-12T09:47:01Z</time>
      </trkpt>
      <trkpt lat="47.81175" lon="-2.77553">
        <ele>100.84</ele>
        <time>2018-01-12T09:47:02Z</time>
      </trkpt>
      <trkpt lat="47.81177" lon="-2.77553">
        <ele>100.69</ele>
        <time>2018-01-12T09:47:03Z</time>
      </trkpt>
      <trkpt lat="47.81178" lon="-2.77554">
        <ele>100.52</ele>
        <time>2018-01-12T09:47:04Z</time>
      </trkpt>
      <trkpt lat="47.8118" lon="-2.77555">
        <ele>100.37</ele>
        <time>2018-01-12T09:47:05Z</time>
      </trkpt>
      <trkpt lat="47.81181" lon="-2.77555">
        <ele>100.25</ele>
        <time>2018-01-12T09:47:06Z</time>
      </trkpt>
      <trkpt lat="47.81206" lon="-2.7756">
        <ele>98.72</ele>
        <time>2018-01-12T09:47:20Z</time>
      </trkpt>
      <trkpt lat="47.81228" lon="-2.7756">
        <ele>96.56</ele>
        <time>2018-01-12T09:47:33Z</time>
      </trkpt>
      <trkpt lat="47.81252" lon="-2.77564">
        <ele>95.24</ele>
        <time>2018-01-12T09:47:47Z</time>
      </trkpt>
      <trkpt lat="47.8126" lon="-2.77595">
        <ele>94.5</ele>
        <time>2018-01-12T09:47:56Z</time>
      </trkpt>
      <trkpt lat="47.81251" lon="-2.77653">
        <ele>95.77</ele>
        <time>2018-01-12T09:48:07Z</time>
      </trkpt>
      <trkpt lat="47.81239" lon="-2.7772">
        <ele>98.9</ele>
        <time>2018-01-12T09:48:19Z</time>
      </trkpt>
      <trkpt lat="47.81234" lon="-2.77747">
        <ele>99.78</ele>
        <time>2018-01-12T09:48:23Z</time>
      </trkpt>
      <trkpt lat="47.81228" lon="-2.77785">
        <ele>101.37</ele>
        <time>2018-01-12T09:48:29Z</time>
      </trkpt>
      <trkpt lat="47.81226" lon="-2.77791">
        <ele>101.64</ele>
        <time>2018-01-12T09:48:30Z</time>
      </trkpt>
      <trkpt lat="47.81225" lon="-2.77797">
        <ele>101.91</ele>
        <time>2018-01-12T09:48:31Z</time>
      </trkpt>
      <trkpt lat="47.81224" lon="-2.77804">
        <ele>102.18</ele>
        <time>2018-01-12T09:48:32Z</time>
      </trkpt>
      <trkpt lat="47.81224" lon="-2.7781">
        <ele>102.42</ele>
        <time>2018-01-12T09:48:33Z</time>
      </trkpt>
      <trkpt lat="47.81213" lon="-2.77876">
        <ele>105.54</ele>
        <time>2018-01-12T09:48:44Z</time>
      </trkpt>
      <trkpt lat="47.81205" lon="-2.77924">
        <ele>107.46</ele>
        <time>2018-01-12T09:48:53Z</time>
      </trkpt>
      <trkpt lat="47.81204" lon="-2.77929">
        <ele>107.66</ele>
        <time>2018-01-12T09:48:54Z</time>
      </trkpt>
      <trkpt lat="47.81203" lon="-2.77934">
        <ele>107.91</ele>
        <time>2018-01-12T09:48:55Z</time>
      </trkpt>
      <trkpt lat="47.81215" lon="-2.77972">
        <ele>109.83</ele>
        <time>2018-01-12T09:49:05Z</time>
      </trkpt>
      <trkpt lat="47.81244" lon="-2.77994">
        <ele>110.5</ele>
        <time>2018-01-12T09:49:16Z</time>
      </trkpt>
      <trkpt lat="47.81267" lon="-2.7801">
        <ele>110.18</ele>
        <time>2018-01-12T09:49:30Z</time>
      </trkpt>
      <trkpt lat="47.81291" lon="-2.78033">
        <ele>108.9</ele>
        <time>2018-01-12T09:49:48Z</time>
      </trkpt>
      <trkpt lat="47.81311" lon="-2.78048">
        <ele>107.9</ele>
        <time>2018-01-12T09:50:03Z</time>
      </trkpt>
      <trkpt lat="47.8134" lon="-2.78067">
        <ele>106.74</ele>
        <time>2018-01-12T09:50:22Z</time>
      </trkpt>
      <trkpt lat="47.81365" lon="-2.78087">
        <ele>105.11</ele>
        <time>2018-01-12T09:50:39Z</time>
      </trkpt>
      <trkpt lat="47.81392" lon="-2.78115">
        <ele>103.45</ele>
        <time>2018-01-12T09:50:57Z</time>
      </trkpt>
      <trkpt lat="47.81416" lon="-2.78132">
        <ele>101.72</ele>
        <time>2018-01-12T09:51:14Z</time>
      </trkpt>
      <trkpt lat="47.81422" lon="-2.78135">
        <ele>101.15</ele>
        <time>2018-01-12T09:51:18Z</time>
      </trkpt>
      <trkpt lat="47.81423" lon="-2.78136">
        <ele>100.8</ele>
        <time>2018-01-12T09:51:19Z</time>
      </trkpt>
      <trkpt lat="47.81426" lon="-2.78141">
        <ele>100.37</ele>
        <time>2018-01-12T09:51:23Z</time>
      </trkpt>
      <trkpt lat="47.81417" lon="-2.78172">
        <ele>99.69</ele>
        <time>2018-01-12T09:51:38Z</time>
      </trkpt>
      <trkpt lat="47.81396" lon="-2.782">
        <ele>100.4</ele>
        <time>2018-01-12T09:51:54Z</time>
      </trkpt>
      <trkpt lat="47.81382" lon="-2.78219">
        <ele>100.77</ele>
        <time>2018-01-12T09:52:05Z</time>
      </trkpt>
      <trkpt lat="47.81381" lon="-2.7822">
        <ele>100.69</ele>
        <time>2018-01-12T09:52:06Z</time>
      </trkpt>
      <trkpt lat="47.81379" lon="-2.78221">
        <ele>100.58</ele>
        <time>2018-01-12T09:52:07Z</time>
      </trkpt>
      <trkpt lat="47.81378" lon="-2.78222">
        <ele>100.52</ele>
        <time>2018-01-12T09:52:08Z</time>
      </trkpt>
      <trkpt lat="47.81377" lon="-2.78223">
        <ele>100.49</ele>
        <time>2018-01-12T09:52:09Z</time>
      </trkpt>
      <trkpt lat="47.81363" lon="-2.78237">
        <ele>100.91</ele>
        <time>2018-01-12T09:52:22Z</time>
      </trkpt>
      <trkpt lat="47.81361" lon="-2.78239">
        <ele>100.94</ele>
        <time>2018-01-12T09:52:23Z</time>
      </trkpt>
      <trkpt lat="47.8136" lon="-2.7824">
        <ele>100.97</ele>
        <time>2018-01-12T09:52:24Z</time>
      </trkpt>
      <trkpt lat="47.81359" lon="-2.78241">
        <ele>101.03</ele>
        <time>2018-01-12T09:52:25Z</time>
      </trkpt>
      <trkpt lat="47.81345" lon="-2.78259">
        <ele>101.22</ele>
        <time>2018-01-12T09:52:37Z</time>
      </trkpt>
      <trkpt lat="47.81333" lon="-2.78281">
        <ele>101.64</ele>
        <time>2018-01-12T09:52:49Z</time>
      </trkpt>
      <trkpt lat="47.81317" lon="-2.7831">
        <ele>102.34</ele>
        <time>2018-01-12T09:53:01Z</time>
      </trkpt>
      <trkpt lat="47.81305" lon="-2.78334">
        <ele>102.8</ele>
        <time>2018-01-12T09:53:14Z</time>
      </trkpt>
      <trkpt lat="47.81298" lon="-2.7836">
        <ele>103.47</ele>
        <time>2018-01-12T09:53:28Z</time>
      </trkpt>
      <trkpt lat="47.81296" lon="-2.78374">
        <ele>103.92</ele>
        <time>2018-01-12T09:53:36Z</time>
      </trkpt>
      <trkpt lat="47.81294" lon="-2.78382">
        <ele>104.04</ele>
        <time>2018-01-12T09:53:39Z</time>
      </trkpt>
      <trkpt lat="47.8129" lon="-2.78408">
        <ele>104.44</ele>
        <time>2018-01-12T09:53:50Z</time>
      </trkpt>
      <trkpt lat="47.81289" lon="-2.78411">
        <ele>104.45</ele>
        <time>2018-01-12T09:53:51Z</time>
      </trkpt>
      <trkpt lat="47.81283" lon="-2.78453">
        <ele>104.83</ele>
        <time>2018-01-12T09:54:06Z</time>
      </trkpt>
      <trkpt lat="47.8128" lon="-2.78476">
        <ele>105.68</ele>
        <time>2018-01-12T09:54:22Z</time>
      </trkpt>
      <trkpt lat="47.81278" lon="-2.78483">
        <ele>105.94</ele>
        <time>2018-01-12T09:54:45Z</time>
      </trkpt>
      <trkpt lat="47.81275" lon="-2.78488">
        <ele>105.96</ele>
        <time>2018-01-12T09:55:01Z</time>
      </trkpt>
      <trkpt lat="47.81275" lon="-2.78492">
        <ele>105.86</ele>
        <time>2018-01-12T09:55:06Z</time>
      </trkpt>
      <trkpt lat="47.81275" lon="-2.78497">
        <ele>105.82</ele>
        <time>2018-01-12T09:55:08Z</time>
      </trkpt>
      <trkpt lat="47.81275" lon="-2.78499">
        <ele>105.81</ele>
        <time>2018-01-12T09:55:09Z</time>
      </trkpt>
      <trkpt lat="47.81275" lon="-2.78501">
        <ele>105.81</ele>
        <time>2018-01-12T09:55:10Z</time>
      </trkpt>
      <trkpt lat="47.81275" lon="-2.78504">
        <ele>105.81</ele>
        <time>2018-01-12T09:55:11Z</time>
      </trkpt>
      <trkpt lat="47.81275" lon="-2.78506">
        <ele>105.81</ele>
        <time>2018-01-12T09:55:12Z</time>
      </trkpt>
      <trkpt lat="47.81275" lon="-2.78508">
        <ele>105.82</ele>
        <time>2018-01-12T09:55:13Z</time>
      </trkpt>
      <trkpt lat="47.81275" lon="-2.78511">
        <ele>105.84</ele>
        <time>2018-01-12T09:55:14Z</time>
      </trkpt>
      <trkpt lat="47.81276" lon="-2.78513">
        <ele>105.91</ele>
        <time>2018-01-12T09:55:15Z</time>
      </trkpt>
      <trkpt lat="47.81276" lon="-2.78516">
        <ele>105.95</ele>
        <time>2018-01-12T09:55:16Z</time>
      </trkpt>
      <trkpt lat="47.81273" lon="-2.78552">
        <ele>106.25</ele>
        <time>2018-01-12T09:55:32Z</time>
      </trkpt>
      <trkpt lat="47.81271" lon="-2.78586">
        <ele>106.12</ele>
        <time>2018-01-12T09:55:46Z</time>
      </trkpt>
      <trkpt lat="47.81268" lon="-2.78621">
        <ele>106.34</ele>
        <time>2018-01-12T09:55:59Z</time>
      </trkpt>
      <trkpt lat="47.81265" lon="-2.78658">
        <ele>106.92</ele>
        <time>2018-01-12T09:56:14Z</time>
      </trkpt>
      <trkpt lat="47.81262" lon="-2.78701">
        <ele>107.35</ele>
        <time>2018-01-12T09:56:30Z</time>
      </trkpt>
      <trkpt lat="47.81261" lon="-2.78746">
        <ele>107.72</ele>
        <time>2018-01-12T09:56:47Z</time>
      </trkpt>
      <trkpt lat="47.81256" lon="-2.78781">
        <ele>108.14</ele>
        <time>2018-01-12T09:57:03Z</time>
      </trkpt>
      <trkpt lat="47.81254" lon="-2.78819">
        <ele>108.31</ele>
        <time>2018-01-12T09:57:18Z</time>
      </trkpt>
      <trkpt lat="47.81252" lon="-2.78854">
        <ele>108.37</ele>
        <time>2018-01-12T09:57:33Z</time>
      </trkpt>
      <trkpt lat="47.8125" lon="-2.78894">
        <ele>108.39</ele>
        <time>2018-01-12T09:57:49Z</time>
      </trkpt>
      <trkpt lat="47.81248" lon="-2.78934">
        <ele>108.62</ele>
        <time>2018-01-12T09:58:04Z</time>
      </trkpt>
      <trkpt lat="47.81246" lon="-2.78968">
        <ele>109.45</ele>
        <time>2018-01-12T09:58:19Z</time>
      </trkpt>
      <trkpt lat="47.81244" lon="-2.79016">
        <ele>110.72</ele>
        <time>2018-01-12T09:58:38Z</time>
      </trkpt>
      <trkpt lat="47.81241" lon="-2.79045">
        <ele>111.66</ele>
        <time>2018-01-12T09:58:51Z</time>
      </trkpt>
      <trkpt lat="47.8124" lon="-2.79047">
        <ele>111.7</ele>
        <time>2018-01-12T09:58:52Z</time>
      </trkpt>
      <trkpt lat="47.8124" lon="-2.79049">
        <ele>111.76</ele>
        <time>2018-01-12T09:58:53Z</time>
      </trkpt>
      <trkpt lat="47.8124" lon="-2.79052">
        <ele>111.81</ele>
        <time>2018-01-12T09:58:54Z</time>
      </trkpt>
      <trkpt lat="47.81239" lon="-2.79055">
        <ele>111.88</ele>
        <time>2018-01-12T09:58:55Z</time>
      </trkpt>
      <trkpt lat="47.81236" lon="-2.7907">
        <ele>112.52</ele>
        <time>2018-01-12T09:59:01Z</time>
      </trkpt>
      <trkpt lat="47.81236" lon="-2.79072">
        <ele>112.56</ele>
        <time>2018-01-12T09:59:02Z</time>
      </trkpt>
      <trkpt lat="47.81229" lon="-2.79113">
        <ele>113.43</ele>
        <time>2018-01-12T09:59:17Z</time>
      </trkpt>
      <trkpt lat="47.81218" lon="-2.79137">
        <ele>114.02</ele>
        <time>2018-01-12T09:59:29Z</time>
      </trkpt>
      <trkpt lat="47.81218" lon="-2.79171">
        <ele>114.59</ele>
        <time>2018-01-12T09:59:41Z</time>
      </trkpt>
      <trkpt lat="47.8121" lon="-2.79218">
        <ele>114.84</ele>
        <time>2018-01-12T10:00:00Z</time>
      </trkpt>
      <trkpt lat="47.81201" lon="-2.79252">
        <ele>114.5</ele>
        <time>2018-01-12T10:00:13Z</time>
      </trkpt>
      <trkpt lat="47.81196" lon="-2.79285">
        <ele>114.07</ele>
        <time>2018-01-12T10:00:27Z</time>
      </trkpt>
      <trkpt lat="47.81194" lon="-2.79296">
        <ele>114.2</ele>
        <time>2018-01-12T10:00:32Z</time>
      </trkpt>
      <trkpt lat="47.81193" lon="-2.79297">
        <ele>114.24</ele>
        <time>2018-01-12T10:00:33Z</time>
      </trkpt>
      <trkpt lat="47.81191" lon="-2.79313">
        <ele>114.42</ele>
        <time>2018-01-12T10:00:39Z</time>
      </trkpt>
      <trkpt lat="47.8119" lon="-2.79316">
        <ele>114.44</ele>
        <time>2018-01-12T10:00:40Z</time>
      </trkpt>
      <trkpt lat="47.8119" lon="-2.79319">
        <ele>114.45</ele>
        <time>2018-01-12T10:00:41Z</time>
      </trkpt>
      <trkpt lat="47.81189" lon="-2.79322">
        <ele>114.46</ele>
        <time>2018-01-12T10:00:42Z</time>
      </trkpt>
      <trkpt lat="47.81189" lon="-2.79324">
        <ele>114.49</ele>
        <time>2018-01-12T10:00:43Z</time>
      </trkpt>
      <trkpt lat="47.81189" lon="-2.79327">
        <ele>114.53</ele>
        <time>2018-01-12T10:00:44Z</time>
      </trkpt>
      <trkpt lat="47.81188" lon="-2.7933">
        <ele>114.55</ele>
        <time>2018-01-12T10:00:45Z</time>
      </trkpt>
      <trkpt lat="47.81183" lon="-2.79364">
        <ele>115.54</ele>
        <time>2018-01-12T10:01:00Z</time>
      </trkpt>
      <trkpt lat="47.81177" lon="-2.79395">
        <ele>116.31</ele>
        <time>2018-01-12T10:01:13Z</time>
      </trkpt>
      <trkpt lat="47.81176" lon="-2.79397">
        <ele>116.36</ele>
        <time>2018-01-12T10:01:14Z</time>
      </trkpt>
      <trkpt lat="47.81173" lon="-2.7943">
        <ele>116.67</ele>
        <time>2018-01-12T10:01:28Z</time>
      </trkpt>
      <trkpt lat="47.81165" lon="-2.79467">
        <ele>116.98</ele>
        <time>2018-01-12T10:01:43Z</time>
      </trkpt>
      <trkpt lat="47.81161" lon="-2.79502">
        <ele>116.96</ele>
        <time>2018-01-12T10:01:57Z</time>
      </trkpt>
      <trkpt lat="47.81159" lon="-2.79533">
        <ele>116.75</ele>
        <time>2018-01-12T10:02:11Z</time>
      </trkpt>
      <trkpt lat="47.81159" lon="-2.79539">
        <ele>116.6</ele>
        <time>2018-01-12T10:02:14Z</time>
      </trkpt>
      <trkpt lat="47.81159" lon="-2.79541">
        <ele>116.55</ele>
        <time>2018-01-12T10:02:15Z</time>
      </trkpt>
      <trkpt lat="47.81159" lon="-2.79544">
        <ele>116.52</ele>
        <time>2018-01-12T10:02:16Z</time>
      </trkpt>
      <trkpt lat="47.81159" lon="-2.79546">
        <ele>116.48</ele>
        <time>2018-01-12T10:02:17Z</time>
      </trkpt>
      <trkpt lat="47.81159" lon="-2.79549">
        <ele>116.43</ele>
        <time>2018-01-12T10:02:18Z</time>
      </trkpt>
      <trkpt lat="47.81159" lon="-2.79551">
        <ele>116.36</ele>
        <time>2018-01-12T10:02:19Z</time>
      </trkpt>
      <trkpt lat="47.81158" lon="-2.79588">
        <ele>115.64</ele>
        <time>2018-01-12T10:02:34Z</time>
      </trkpt>
      <trkpt lat="47.81156" lon="-2.79629">
        <ele>114.84</ele>
        <time>2018-01-12T10:02:51Z</time>
      </trkpt>
      <trkpt lat="47.81156" lon="-2.79653">
        <ele>114.35</ele>
        <time>2018-01-12T10:03:07Z</time>
      </trkpt>
      <trkpt lat="47.81156" lon="-2.79654">
        <ele>114.32</ele>
        <time>2018-01-12T10:03:08Z</time>
      </trkpt>
      <trkpt lat="47.81156" lon="-2.79656">
        <ele>114.29</ele>
        <time>2018-01-12T10:03:09Z</time>
      </trkpt>
      <trkpt lat="47.81156" lon="-2.79658">
        <ele>114.23</ele>
        <time>2018-01-12T10:03:10Z</time>
      </trkpt>
      <trkpt lat="47.81156" lon="-2.79661">
        <ele>114.19</ele>
        <time>2018-01-12T10:03:11Z</time>
      </trkpt>
      <trkpt lat="47.81156" lon="-2.79663">
        <ele>114.14</ele>
        <time>2018-01-12T10:03:12Z</time>
      </trkpt>
      <trkpt lat="47.81154" lon="-2.79687">
        <ele>113.69</ele>
        <time>2018-01-12T10:03:23Z</time>
      </trkpt>
      <trkpt lat="47.81153" lon="-2.79688">
        <ele>113.63</ele>
        <time>2018-01-12T10:03:24Z</time>
      </trkpt>
      <trkpt lat="47.81151" lon="-2.79688">
        <ele>113.58</ele>
        <time>2018-01-12T10:03:25Z</time>
      </trkpt>
      <trkpt lat="47.8115" lon="-2.79687">
        <ele>113.53</ele>
        <time>2018-01-12T10:03:26Z</time>
      </trkpt>
      <trkpt lat="47.81149" lon="-2.79686">
        <ele>113.49</ele>
        <time>2018-01-12T10:03:27Z</time>
      </trkpt>
      <trkpt lat="47.81148" lon="-2.79686">
        <ele>113.45</ele>
        <time>2018-01-12T10:03:28Z</time>
      </trkpt>
      <trkpt lat="47.8114" lon="-2.79656">
        <ele>113.36</ele>
        <time>2018-01-12T10:03:41Z</time>
      </trkpt>
      <trkpt lat="47.81136" lon="-2.79605">
        <ele>113.82</ele>
        <time>2018-01-12T10:03:53Z</time>
      </trkpt>
      <trkpt lat="47.81129" lon="-2.79531">
        <ele>114.66</ele>
        <time>2018-01-12T10:04:08Z</time>
      </trkpt>
      <trkpt lat="47.81122" lon="-2.7946">
        <ele>115.31</ele>
        <time>2018-01-12T10:04:21Z</time>
      </trkpt>
      <trkpt lat="47.81114" lon="-2.79381">
        <ele>115.39</ele>
        <time>2018-01-12T10:04:35Z</time>
      </trkpt>
      <trkpt lat="47.81112" lon="-2.79349">
        <ele>115.44</ele>
        <time>2018-01-12T10:04:42Z</time>
      </trkpt>
      <trkpt lat="47.811" lon="-2.79326">
        <ele>115.78</ele>
        <time>2018-01-12T10:04:52Z</time>
      </trkpt>
      <trkpt lat="47.81098" lon="-2.79326">
        <ele>115.81</ele>
        <time>2018-01-12T10:04:53Z</time>
      </trkpt>
      <trkpt lat="47.81096" lon="-2.79326">
        <ele>115.84</ele>
        <time>2018-01-12T10:04:54Z</time>
      </trkpt>
      <trkpt lat="47.81058" lon="-2.79332">
        <ele>116.64</ele>
        <time>2018-01-12T10:05:06Z</time>
      </trkpt>
      <trkpt lat="47.81013" lon="-2.79341">
        <ele>117.6</ele>
        <time>2018-01-12T10:05:18Z</time>
      </trkpt>
      <trkpt lat="47.80967" lon="-2.79351">
        <ele>118.91</ele>
        <time>2018-01-12T10:05:31Z</time>
      </trkpt>
      <trkpt lat="47.80931" lon="-2.79359">
        <ele>119.26</ele>
        <time>2018-01-12T10:05:40Z</time>
      </trkpt>
      <trkpt lat="47.80878" lon="-2.79368">
        <ele>118.43</ele>
        <time>2018-01-12T10:05:53Z</time>
      </trkpt>
      <trkpt lat="47.80847" lon="-2.7938">
        <ele>118.04</ele>
        <time>2018-01-12T10:06:03Z</time>
      </trkpt>
      <trkpt lat="47.80829" lon="-2.79391">
        <ele>118.15</ele>
        <time>2018-01-12T10:06:08Z</time>
      </trkpt>
      <trkpt lat="47.80825" lon="-2.79393">
        <ele>118.19</ele>
        <time>2018-01-12T10:06:09Z</time>
      </trkpt>
      <trkpt lat="47.80822" lon="-2.79395">
        <ele>118.22</ele>
        <time>2018-01-12T10:06:10Z</time>
      </trkpt>
      <trkpt lat="47.80819" lon="-2.79398">
        <ele>118.25</ele>
        <time>2018-01-12T10:06:11Z</time>
      </trkpt>
      <trkpt lat="47.80815" lon="-2.794">
        <ele>118.28</ele>
        <time>2018-01-12T10:06:12Z</time>
      </trkpt>
      <trkpt lat="47.80812" lon="-2.79403">
        <ele>118.29</ele>
        <time>2018-01-12T10:06:13Z</time>
      </trkpt>
      <trkpt lat="47.8077" lon="-2.79433">
        <ele>117.97</ele>
        <time>2018-01-12T10:06:25Z</time>
      </trkpt>
      <trkpt lat="47.80765" lon="-2.79436">
        <ele>117.92</ele>
        <time>2018-01-12T10:06:26Z</time>
      </trkpt>
      <trkpt lat="47.80752" lon="-2.79444">
        <ele>117.78</ele>
        <time>2018-01-12T10:06:29Z</time>
      </trkpt>
      <trkpt lat="47.8074" lon="-2.79452">
        <ele>117.61</ele>
        <time>2018-01-12T10:06:32Z</time>
      </trkpt>
      <trkpt lat="47.80736" lon="-2.79454">
        <ele>117.55</ele>
        <time>2018-01-12T10:06:33Z</time>
      </trkpt>
      <trkpt lat="47.80728" lon="-2.79459">
        <ele>117.41</ele>
        <time>2018-01-12T10:06:35Z</time>
      </trkpt>
      <trkpt lat="47.80721" lon="-2.79464">
        <ele>117.29</ele>
        <time>2018-01-12T10:06:37Z</time>
      </trkpt>
      <trkpt lat="47.80702" lon="-2.79476">
        <ele>116.87</ele>
        <time>2018-01-12T10:06:42Z</time>
      </trkpt>
      <trkpt lat="47.80698" lon="-2.79478">
        <ele>116.64</ele>
        <time>2018-01-12T10:06:43Z</time>
      </trkpt>
      <trkpt lat="47.80661" lon="-2.795">
        <ele>115.37</ele>
        <time>2018-01-12T10:06:53Z</time>
      </trkpt>
      <trkpt lat="47.80652" lon="-2.79505">
        <ele>115.24</ele>
        <time>2018-01-12T10:06:55Z</time>
      </trkpt>
      <trkpt lat="47.80644" lon="-2.79509">
        <ele>115.1</ele>
        <time>2018-01-12T10:06:57Z</time>
      </trkpt>
      <trkpt lat="47.80633" lon="-2.79515">
        <ele>114.89</ele>
        <time>2018-01-12T10:07:00Z</time>
      </trkpt>
      <trkpt lat="47.80626" lon="-2.79519">
        <ele>114.74</ele>
        <time>2018-01-12T10:07:02Z</time>
      </trkpt>
      <trkpt lat="47.80622" lon="-2.79521">
        <ele>114.69</ele>
        <time>2018-01-12T10:07:03Z</time>
      </trkpt>
      <trkpt lat="47.80618" lon="-2.79524">
        <ele>114.64</ele>
        <time>2018-01-12T10:07:04Z</time>
      </trkpt>
      <trkpt lat="47.80615" lon="-2.79526">
        <ele>114.62</ele>
        <time>2018-01-12T10:07:05Z</time>
      </trkpt>
      <trkpt lat="47.80612" lon="-2.79528">
        <ele>114.63</ele>
        <time>2018-01-12T10:07:06Z</time>
      </trkpt>
      <trkpt lat="47.80579" lon="-2.79547">
        <ele>114.93</ele>
        <time>2018-01-12T10:07:17Z</time>
      </trkpt>
      <trkpt lat="47.80576" lon="-2.79549">
        <ele>114.98</ele>
        <time>2018-01-12T10:07:18Z</time>
      </trkpt>
      <trkpt lat="47.80572" lon="-2.7955">
        <ele>115.01</ele>
        <time>2018-01-12T10:07:19Z</time>
      </trkpt>
      <trkpt lat="47.80569" lon="-2.79551">
        <ele>115.03</ele>
        <time>2018-01-12T10:07:20Z</time>
      </trkpt>
      <trkpt lat="47.80565" lon="-2.79551">
        <ele>115.03</ele>
        <time>2018-01-12T10:07:21Z</time>
      </trkpt>
      <trkpt lat="47.80562" lon="-2.79551">
        <ele>115.01</ele>
        <time>2018-01-12T10:07:22Z</time>
      </trkpt>
      <trkpt lat="47.80558" lon="-2.7955">
        <ele>115.04</ele>
        <time>2018-01-12T10:07:23Z</time>
      </trkpt>
      <trkpt lat="47.80554" lon="-2.7955">
        <ele>115.03</ele>
        <time>2018-01-12T10:07:24Z</time>
      </trkpt>
      <trkpt lat="47.80511" lon="-2.79541">
        <ele>115.48</ele>
        <time>2018-01-12T10:07:35Z</time>
      </trkpt>
      <trkpt lat="47.80485" lon="-2.79536">
        <ele>116.63</ele>
        <time>2018-01-12T10:07:42Z</time>
      </trkpt>
      <trkpt lat="47.80481" lon="-2.79536">
        <ele>116.87</ele>
        <time>2018-01-12T10:07:43Z</time>
      </trkpt>
      <trkpt lat="47.80476" lon="-2.79535">
        <ele>117.12</ele>
        <time>2018-01-12T10:07:44Z</time>
      </trkpt>
      <trkpt lat="47.80472" lon="-2.79534">
        <ele>117.38</ele>
        <time>2018-01-12T10:07:45Z</time>
      </trkpt>
      <trkpt lat="47.80468" lon="-2.79534">
        <ele>117.66</ele>
        <time>2018-01-12T10:07:46Z</time>
      </trkpt>
      <trkpt lat="47.80428" lon="-2.79525">
        <ele>119.78</ele>
        <time>2018-01-12T10:07:57Z</time>
      </trkpt>
      <trkpt lat="47.80407" lon="-2.79521">
        <ele>121.57</ele>
        <time>2018-01-12T10:08:09Z</time>
      </trkpt>
      <trkpt lat="47.80382" lon="-2.79518">
        <ele>122.37</ele>
        <time>2018-01-12T10:08:25Z</time>
      </trkpt>
      <trkpt lat="47.80361" lon="-2.79496">
        <ele>122.34</ele>
        <time>2018-01-12T10:08:39Z</time>
      </trkpt>
      <trkpt lat="47.80352" lon="-2.79464">
        <ele>123.25</ele>
        <time>2018-01-12T10:08:54Z</time>
      </trkpt>
      <trkpt lat="47.80347" lon="-2.79437">
        <ele>123.82</ele>
        <time>2018-01-12T10:09:08Z</time>
      </trkpt>
      <trkpt lat="47.80332" lon="-2.79418">
        <ele>123.72</ele>
        <time>2018-01-12T10:09:21Z</time>
      </trkpt>
      <trkpt lat="47.80308" lon="-2.794">
        <ele>122.41</ele>
        <time>2018-01-12T10:09:37Z</time>
      </trkpt>
      <trkpt lat="47.80285" lon="-2.7939">
        <ele>120.98</ele>
        <time>2018-01-12T10:09:51Z</time>
      </trkpt>
      <trkpt lat="47.80256" lon="-2.79365">
        <ele>120.22</ele>
        <time>2018-01-12T10:10:06Z</time>
      </trkpt>
      <trkpt lat="47.80226" lon="-2.79339">
        <ele>119.21</ele>
        <time>2018-01-12T10:10:26Z</time>
      </trkpt>
      <trkpt lat="47.80193" lon="-2.79318">
        <ele>118.64</ele>
        <time>2018-01-12T10:10:37Z</time>
      </trkpt>
      <trkpt lat="47.8015" lon="-2.793">
        <ele>118.62</ele>
        <time>2018-01-12T10:10:50Z</time>
      </trkpt>
      <trkpt lat="47.80153" lon="-2.79302">
        <ele>119.35</ele>
        <time>2018-01-12T10:11:01Z</time>
      </trkpt>
      <trkpt lat="47.80154" lon="-2.79301">
        <ele>119.34</ele>
        <time>2018-01-12T10:11:02Z</time>
      </trkpt>
      <trkpt lat="47.80154" lon="-2.79297">
        <ele>119.29</ele>
        <time>2018-01-12T10:11:03Z</time>
      </trkpt>
      <trkpt lat="47.80155" lon="-2.79292">
        <ele>119.23</ele>
        <time>2018-01-12T10:11:04Z</time>
      </trkpt>
      <trkpt lat="47.80154" lon="-2.79285">
        <ele>119.19</ele>
        <time>2018-01-12T10:11:05Z</time>
      </trkpt>
      <trkpt lat="47.80154" lon="-2.79278">
        <ele>119.16</ele>
        <time>2018-01-12T10:11:06Z</time>
      </trkpt>
      <trkpt lat="47.80146" lon="-2.79164">
        <ele>120.48</ele>
        <time>2018-01-12T10:11:19Z</time>
      </trkpt>
      <trkpt lat="47.80141" lon="-2.79072">
        <ele>121.34</ele>
        <time>2018-01-12T10:11:33Z</time>
      </trkpt>
      <trkpt lat="47.8014" lon="-2.79045">
        <ele>121.69</ele>
        <time>2018-01-12T10:11:40Z</time>
      </trkpt>
      <trkpt lat="47.8014" lon="-2.79043">
        <ele>121.7</ele>
        <time>2018-01-12T10:11:41Z</time>
      </trkpt>
      <trkpt lat="47.80139" lon="-2.79037">
        <ele>121.57</ele>
        <time>2018-01-12T10:11:54Z</time>
      </trkpt>
      <trkpt lat="47.80137" lon="-2.79037">
        <ele>121.55</ele>
        <time>2018-01-12T10:11:55Z</time>
      </trkpt>
      <trkpt lat="47.80135" lon="-2.79038">
        <ele>121.55</ele>
        <time>2018-01-12T10:11:56Z</time>
      </trkpt>
      <trkpt lat="47.80132" lon="-2.79038">
        <ele>121.57</ele>
        <time>2018-01-12T10:11:57Z</time>
      </trkpt>
      <trkpt lat="47.80128" lon="-2.79039">
        <ele>121.61</ele>
        <time>2018-01-12T10:11:58Z</time>
      </trkpt>
      <trkpt lat="47.80125" lon="-2.7904">
        <ele>121.65</ele>
        <time>2018-01-12T10:11:59Z</time>
      </trkpt>
      <trkpt lat="47.80121" lon="-2.79041">
        <ele>121.68</ele>
        <time>2018-01-12T10:12:00Z</time>
      </trkpt>
      <trkpt lat="47.8008" lon="-2.79052">
        <ele>121.69</ele>
        <time>2018-01-12T10:12:12Z</time>
      </trkpt>
      <trkpt lat="47.80041" lon="-2.79084">
        <ele>121.36</ele>
        <time>2018-01-12T10:12:25Z</time>
      </trkpt>
      <trkpt lat="47.79998" lon="-2.79121">
        <ele>121.17</ele>
        <time>2018-01-12T10:12:37Z</time>
      </trkpt>
      <trkpt lat="47.79984" lon="-2.79128">
        <ele>121</ele>
        <time>2018-01-12T10:12:41Z</time>
      </trkpt>
      <trkpt lat="47.79979" lon="-2.79126">
        <ele>120.96</ele>
        <time>2018-01-12T10:12:42Z</time>
      </trkpt>
      <trkpt lat="47.79975" lon="-2.79125">
        <ele>120.91</ele>
        <time>2018-01-12T10:12:43Z</time>
      </trkpt>
      <trkpt lat="47.79925" lon="-2.79108">
        <ele>119.67</ele>
        <time>2018-01-12T10:12:56Z</time>
      </trkpt>
      <trkpt lat="47.79888" lon="-2.79098">
        <ele>119.12</ele>
        <time>2018-01-12T10:13:06Z</time>
      </trkpt>
      <trkpt lat="47.79858" lon="-2.79085">
        <ele>118.35</ele>
        <time>2018-01-12T10:13:16Z</time>
      </trkpt>
      <trkpt lat="47.79831" lon="-2.79075">
        <ele>117.76</ele>
        <time>2018-01-12T10:13:25Z</time>
      </trkpt>
      <trkpt lat="47.79794" lon="-2.7906">
        <ele>116.76</ele>
        <time>2018-01-12T10:13:36Z</time>
      </trkpt>
      <trkpt lat="47.79766" lon="-2.7905">
        <ele>115.86</ele>
        <time>2018-01-12T10:13:45Z</time>
      </trkpt>
      <trkpt lat="47.79729" lon="-2.79042">
        <ele>114.94</ele>
        <time>2018-01-12T10:13:56Z</time>
      </trkpt>
      <trkpt lat="47.79694" lon="-2.79032">
        <ele>113.71</ele>
        <time>2018-01-12T10:14:05Z</time>
      </trkpt>
      <trkpt lat="47.79653" lon="-2.79024">
        <ele>112.27</ele>
        <time>2018-01-12T10:14:16Z</time>
      </trkpt>
      <trkpt lat="47.79618" lon="-2.79014">
        <ele>110.8</ele>
        <time>2018-01-12T10:14:27Z</time>
      </trkpt>
      <trkpt lat="47.79597" lon="-2.79012">
        <ele>109.96</ele>
        <time>2018-01-12T10:14:32Z</time>
      </trkpt>
      <trkpt lat="47.79591" lon="-2.79012">
        <ele>109.73</ele>
        <time>2018-01-12T10:14:33Z</time>
      </trkpt>
      <trkpt lat="47.79587" lon="-2.79012">
        <ele>109.48</ele>
        <time>2018-01-12T10:14:34Z</time>
      </trkpt>
      <trkpt lat="47.79583" lon="-2.79011">
        <ele>109.21</ele>
        <time>2018-01-12T10:14:35Z</time>
      </trkpt>
      <trkpt lat="47.79578" lon="-2.79011">
        <ele>108.97</ele>
        <time>2018-01-12T10:14:36Z</time>
      </trkpt>
      <trkpt lat="47.79541" lon="-2.79008">
        <ele>106.98</ele>
        <time>2018-01-12T10:14:46Z</time>
      </trkpt>
      <trkpt lat="47.79501" lon="-2.78996">
        <ele>105.47</ele>
        <time>2018-01-12T10:14:56Z</time>
      </trkpt>
      <trkpt lat="47.79482" lon="-2.78986">
        <ele>104.38</ele>
        <time>2018-01-12T10:15:06Z</time>
      </trkpt>
      <trkpt lat="47.7947" lon="-2.78986">
        <ele>103.84</ele>
        <time>2018-01-12T10:15:12Z</time>
      </trkpt>
      <trkpt lat="47.79468" lon="-2.78985">
        <ele>103.77</ele>
        <time>2018-01-12T10:15:13Z</time>
      </trkpt>
      <trkpt lat="47.79466" lon="-2.78984">
        <ele>103.69</ele>
        <time>2018-01-12T10:15:14Z</time>
      </trkpt>
      <trkpt lat="47.79464" lon="-2.78983">
        <ele>103.6</ele>
        <time>2018-01-12T10:15:15Z</time>
      </trkpt>
      <trkpt lat="47.79462" lon="-2.78982">
        <ele>103.51</ele>
        <time>2018-01-12T10:15:16Z</time>
      </trkpt>
      <trkpt lat="47.79459" lon="-2.78981">
        <ele>103.42</ele>
        <time>2018-01-12T10:15:17Z</time>
      </trkpt>
      <trkpt lat="47.79447" lon="-2.78976">
        <ele>103.08</ele>
        <time>2018-01-12T10:15:24Z</time>
      </trkpt>
      <trkpt lat="47.79444" lon="-2.78975">
        <ele>102.99</ele>
        <time>2018-01-12T10:15:26Z</time>
      </trkpt>
      <trkpt lat="47.79432" lon="-2.78976">
        <ele>101.69</ele>
        <time>2018-01-12T10:15:38Z</time>
      </trkpt>
      <trkpt lat="47.79426" lon="-2.78978">
        <ele>101.14</ele>
        <time>2018-01-12T10:15:45Z</time>
      </trkpt>
      <trkpt lat="47.79422" lon="-2.78977">
        <ele>100.92</ele>
        <time>2018-01-12T10:15:48Z</time>
      </trkpt>
      <trkpt lat="47.79411" lon="-2.78974">
        <ele>99.91</ele>
        <time>2018-01-12T10:15:55Z</time>
      </trkpt>
      <trkpt lat="47.794" lon="-2.78973">
        <ele>97.88</ele>
        <time>2018-01-12T10:16:05Z</time>
      </trkpt>
      <trkpt lat="47.79398" lon="-2.78972">
        <ele>97.62</ele>
        <time>2018-01-12T10:16:06Z</time>
      </trkpt>
      <trkpt lat="47.79396" lon="-2.78972">
        <ele>97.33</ele>
        <time>2018-01-12T10:16:07Z</time>
      </trkpt>
      <trkpt lat="47.79394" lon="-2.78973">
        <ele>97.04</ele>
        <time>2018-01-12T10:16:08Z</time>
      </trkpt>
      <trkpt lat="47.79393" lon="-2.78973">
        <ele>96.77</ele>
        <time>2018-01-12T10:16:09Z</time>
      </trkpt>
      <trkpt lat="47.79373" lon="-2.78976">
        <ele>93.73</ele>
        <time>2018-01-12T10:16:24Z</time>
      </trkpt>
      <trkpt lat="47.79368" lon="-2.78977">
        <ele>93.14</ele>
        <time>2018-01-12T10:16:27Z</time>
      </trkpt>
      <trkpt lat="47.79365" lon="-2.78978">
        <ele>93.01</ele>
        <time>2018-01-12T10:16:28Z</time>
      </trkpt>
      <trkpt lat="47.79349" lon="-2.78981">
        <ele>92.06</ele>
        <time>2018-01-12T10:16:37Z</time>
      </trkpt>
      <trkpt lat="47.79348" lon="-2.78982">
        <ele>91.96</ele>
        <time>2018-01-12T10:16:38Z</time>
      </trkpt>
      <trkpt lat="47.79345" lon="-2.78982">
        <ele>91.85</ele>
        <time>2018-01-12T10:16:39Z</time>
      </trkpt>
      <trkpt lat="47.79342" lon="-2.78981">
        <ele>91.73</ele>
        <time>2018-01-12T10:16:40Z</time>
      </trkpt>
      <trkpt lat="47.79335" lon="-2.7898">
        <ele>91.27</ele>
        <time>2018-01-12T10:16:44Z</time>
      </trkpt>
      <trkpt lat="47.79312" lon="-2.78975">
        <ele>89.05</ele>
        <time>2018-01-12T10:16:59Z</time>
      </trkpt>
      <trkpt lat="47.79306" lon="-2.78968">
        <ele>88.77</ele>
        <time>2018-01-12T10:17:03Z</time>
      </trkpt>
      <trkpt lat="47.79299" lon="-2.78951">
        <ele>88.51</ele>
        <time>2018-01-12T10:17:14Z</time>
      </trkpt>
      <trkpt lat="47.79298" lon="-2.78941">
        <ele>88.78</ele>
        <time>2018-01-12T10:17:17Z</time>
      </trkpt>
      <trkpt lat="47.79294" lon="-2.78918">
        <ele>91.27</ele>
        <time>2018-01-12T10:17:25Z</time>
      </trkpt>
      <trkpt lat="47.7929" lon="-2.78878">
        <ele>94.7</ele>
        <time>2018-01-12T10:17:35Z</time>
      </trkpt>
      <trkpt lat="47.79289" lon="-2.78863">
        <ele>96.8</ele>
        <time>2018-01-12T10:17:42Z</time>
      </trkpt>
      <trkpt lat="47.79284" lon="-2.78848">
        <ele>98.3</ele>
        <time>2018-01-12T10:17:48Z</time>
      </trkpt>
      <trkpt lat="47.79279" lon="-2.78838">
        <ele>98.29</ele>
        <time>2018-01-12T10:17:52Z</time>
      </trkpt>
      <trkpt lat="47.79266" lon="-2.78822">
        <ele>97.11</ele>
        <time>2018-01-12T10:18:06Z</time>
      </trkpt>
      <trkpt lat="47.79266" lon="-2.78822">
        <ele>97.02</ele>
        <time>2018-01-12T10:18:07Z</time>
      </trkpt>
      <trkpt lat="47.79252" lon="-2.78802">
        <ele>96.38</ele>
        <time>2018-01-12T10:18:21Z</time>
      </trkpt>
      <trkpt lat="47.79236" lon="-2.78776">
        <ele>94.09</ele>
        <time>2018-01-12T10:18:38Z</time>
      </trkpt>
      <trkpt lat="47.79219" lon="-2.78746">
        <ele>92.27</ele>
        <time>2018-01-12T10:18:48Z</time>
      </trkpt>
      <trkpt lat="47.79215" lon="-2.78734">
        <ele>91.95</ele>
        <time>2018-01-12T10:18:51Z</time>
      </trkpt>
      <trkpt lat="47.79201" lon="-2.78701">
        <ele>91.19</ele>
        <time>2018-01-12T10:19:01Z</time>
      </trkpt>
      <trkpt lat="47.79191" lon="-2.78663">
        <ele>90.88</ele>
        <time>2018-01-12T10:19:12Z</time>
      </trkpt>
      <trkpt lat="47.79164" lon="-2.78607">
        <ele>90.74</ele>
        <time>2018-01-12T10:19:24Z</time>
      </trkpt>
      <trkpt lat="47.79161" lon="-2.78596">
        <ele>90.97</ele>
        <time>2018-01-12T10:19:26Z</time>
      </trkpt>
      <trkpt lat="47.79147" lon="-2.78511">
        <ele>93.32</ele>
        <time>2018-01-12T10:19:37Z</time>
      </trkpt>
      <trkpt lat="47.79122" lon="-2.78469">
        <ele>94.76</ele>
        <time>2018-01-12T10:19:47Z</time>
      </trkpt>
      <trkpt lat="47.79117" lon="-2.78463">
        <ele>94.16</ele>
        <time>2018-01-12T10:20:04Z</time>
      </trkpt>
      <trkpt lat="47.79117" lon="-2.78458">
        <ele>94.38</ele>
        <time>2018-01-12T10:20:26Z</time>
      </trkpt>
      <trkpt lat="47.79118" lon="-2.7845">
        <ele>94.55</ele>
        <time>2018-01-12T10:20:32Z</time>
      </trkpt>
      <trkpt lat="47.7912" lon="-2.78435">
        <ele>94.85</ele>
        <time>2018-01-12T10:20:37Z</time>
      </trkpt>
      <trkpt lat="47.79117" lon="-2.7842">
        <ele>95.93</ele>
        <time>2018-01-12T10:20:49Z</time>
      </trkpt>
      <trkpt lat="47.79117" lon="-2.78409">
        <ele>96.01</ele>
        <time>2018-01-12T10:21:11Z</time>
      </trkpt>
      <trkpt lat="47.79114" lon="-2.78403">
        <ele>95.12</ele>
        <time>2018-01-12T10:21:35Z</time>
      </trkpt>
      <trkpt lat="47.79115" lon="-2.78403">
        <ele>95.41</ele>
        <time>2018-01-12T10:21:58Z</time>
      </trkpt>
      <trkpt lat="47.79112" lon="-2.78391">
        <ele>95.49</ele>
        <time>2018-01-12T10:22:16Z</time>
      </trkpt>
      <trkpt lat="47.79112" lon="-2.7838">
        <ele>95.68</ele>
        <time>2018-01-12T10:22:29Z</time>
      </trkpt>
      <trkpt lat="47.79113" lon="-2.78364">
        <ele>95.82</ele>
        <time>2018-01-12T10:22:45Z</time>
      </trkpt>
      <trkpt lat="47.79113" lon="-2.78358">
        <ele>96.11</ele>
        <time>2018-01-12T10:22:49Z</time>
      </trkpt>
      <trkpt lat="47.79114" lon="-2.78342">
        <ele>96.56</ele>
        <time>2018-01-12T10:22:57Z</time>
      </trkpt>
      <trkpt lat="47.79119" lon="-2.78299">
        <ele>96.21</ele>
        <time>2018-01-12T10:23:08Z</time>
      </trkpt>
      <trkpt lat="47.79122" lon="-2.78259">
        <ele>96.77</ele>
        <time>2018-01-12T10:23:18Z</time>
      </trkpt>
      <trkpt lat="47.79124" lon="-2.78237">
        <ele>97.67</ele>
        <time>2018-01-12T10:23:24Z</time>
      </trkpt>
      <trkpt lat="47.79124" lon="-2.78235">
        <ele>97.76</ele>
        <time>2018-01-12T10:23:25Z</time>
      </trkpt>
      <trkpt lat="47.79124" lon="-2.78232">
        <ele>97.83</ele>
        <time>2018-01-12T10:23:26Z</time>
      </trkpt>
      <trkpt lat="47.79123" lon="-2.78228">
        <ele>97.98</ele>
        <time>2018-01-12T10:23:28Z</time>
      </trkpt>
      <trkpt lat="47.79123" lon="-2.78225">
        <ele>98.01</ele>
        <time>2018-01-12T10:23:29Z</time>
      </trkpt>
      <trkpt lat="47.79123" lon="-2.78221">
        <ele>98</ele>
        <time>2018-01-12T10:23:30Z</time>
      </trkpt>
      <trkpt lat="47.79124" lon="-2.78218">
        <ele>97.98</ele>
        <time>2018-01-12T10:23:31Z</time>
      </trkpt>
      <trkpt lat="47.79125" lon="-2.78213">
        <ele>97.96</ele>
        <time>2018-01-12T10:23:32Z</time>
      </trkpt>
      <trkpt lat="47.79129" lon="-2.78157">
        <ele>97.3</ele>
        <time>2018-01-12T10:23:43Z</time>
      </trkpt>
      <trkpt lat="47.79128" lon="-2.78138">
        <ele>96.44</ele>
        <time>2018-01-12T10:23:48Z</time>
      </trkpt>
      <trkpt lat="47.79127" lon="-2.78095">
        <ele>94.3</ele>
        <time>2018-01-12T10:24:02Z</time>
      </trkpt>
      <trkpt lat="47.7913" lon="-2.78056">
        <ele>91.86</ele>
        <time>2018-01-12T10:24:17Z</time>
      </trkpt>
      <trkpt lat="47.7913" lon="-2.78018">
        <ele>88.73</ele>
        <time>2018-01-12T10:24:32Z</time>
      </trkpt>
      <trkpt lat="47.79129" lon="-2.77981">
        <ele>85.59</ele>
        <time>2018-01-12T10:24:48Z</time>
      </trkpt>
      <trkpt lat="47.7913" lon="-2.77974">
        <ele>85.15</ele>
        <time>2018-01-12T10:24:51Z</time>
      </trkpt>
      <trkpt lat="47.79135" lon="-2.77952">
        <ele>81.86</ele>
        <time>2018-01-12T10:25:06Z</time>
      </trkpt>
      <trkpt lat="47.7913" lon="-2.77935">
        <ele>78.63</ele>
        <time>2018-01-12T10:25:19Z</time>
      </trkpt>
      <trkpt lat="47.79127" lon="-2.77929">
        <ele>76.98</ele>
        <time>2018-01-12T10:25:25Z</time>
      </trkpt>
      <trkpt lat="47.79124" lon="-2.77927">
        <ele>76.41</ele>
        <time>2018-01-12T10:25:27Z</time>
      </trkpt>
      <trkpt lat="47.79109" lon="-2.77897">
        <ele>73.05</ele>
        <time>2018-01-12T10:25:37Z</time>
      </trkpt>
      <trkpt lat="47.79105" lon="-2.77886">
        <ele>72.13</ele>
        <time>2018-01-12T10:25:41Z</time>
      </trkpt>
      <trkpt lat="47.79098" lon="-2.77875">
        <ele>71.16</ele>
        <time>2018-01-12T10:25:51Z</time>
      </trkpt>
      <trkpt lat="47.79095" lon="-2.77869">
        <ele>70.93</ele>
        <time>2018-01-12T10:25:55Z</time>
      </trkpt>
      <trkpt lat="47.79094" lon="-2.77859">
        <ele>70.35</ele>
        <time>2018-01-12T10:26:05Z</time>
      </trkpt>
      <trkpt lat="47.79095" lon="-2.77837">
        <ele>70.35</ele>
        <time>2018-01-12T10:26:27Z</time>
      </trkpt>
      <trkpt lat="47.79102" lon="-2.77817">
        <ele>71.75</ele>
        <time>2018-01-12T10:26:33Z</time>
      </trkpt>
      <trkpt lat="47.79107" lon="-2.77807">
        <ele>75.67</ele>
        <time>2018-01-12T10:26:38Z</time>
      </trkpt>
      <trkpt lat="47.7911" lon="-2.77795">
        <ele>78.87</ele>
        <time>2018-01-12T10:26:43Z</time>
      </trkpt>
      <trkpt lat="47.79113" lon="-2.77778">
        <ele>82.02</ele>
        <time>2018-01-12T10:26:49Z</time>
      </trkpt>
      <trkpt lat="47.79111" lon="-2.77753">
        <ele>85.17</ele>
        <time>2018-01-12T10:26:54Z</time>
      </trkpt>
      <trkpt lat="47.79112" lon="-2.77724">
        <ele>88.52</ele>
        <time>2018-01-12T10:27:00Z</time>
      </trkpt>
      <trkpt lat="47.79115" lon="-2.77704">
        <ele>91.1</ele>
        <time>2018-01-12T10:27:05Z</time>
      </trkpt>
      <trkpt lat="47.79122" lon="-2.77692">
        <ele>93.32</ele>
        <time>2018-01-12T10:27:10Z</time>
      </trkpt>
      <trkpt lat="47.79133" lon="-2.77639">
        <ele>96.3</ele>
        <time>2018-01-12T10:27:20Z</time>
      </trkpt>
      <trkpt lat="47.79134" lon="-2.77601">
        <ele>99.3</ele>
        <time>2018-01-12T10:27:27Z</time>
      </trkpt>
      <trkpt lat="47.79135" lon="-2.77589">
        <ele>100.35</ele>
        <time>2018-01-12T10:27:29Z</time>
      </trkpt>
      <trkpt lat="47.79134" lon="-2.7758">
        <ele>100.78</ele>
        <time>2018-01-12T10:27:30Z</time>
      </trkpt>
      <trkpt lat="47.79133" lon="-2.77572">
        <ele>101.21</ele>
        <time>2018-01-12T10:27:31Z</time>
      </trkpt>
      <trkpt lat="47.79129" lon="-2.7754">
        <ele>102.61</ele>
        <time>2018-01-12T10:27:34Z</time>
      </trkpt>
      <trkpt lat="47.79121" lon="-2.77483">
        <ele>106.08</ele>
        <time>2018-01-12T10:27:41Z</time>
      </trkpt>
      <trkpt lat="47.79116" lon="-2.77443">
        <ele>109.14</ele>
        <time>2018-01-12T10:27:47Z</time>
      </trkpt>
      <trkpt lat="47.79096" lon="-2.77409">
        <ele>111.8</ele>
        <time>2018-01-12T10:28:01Z</time>
      </trkpt>
      <trkpt lat="47.79067" lon="-2.77383">
        <ele>111.78</ele>
        <time>2018-01-12T10:28:17Z</time>
      </trkpt>
      <trkpt lat="47.79048" lon="-2.77364">
        <ele>110.98</ele>
        <time>2018-01-12T10:28:32Z</time>
      </trkpt>
      <trkpt lat="47.79027" lon="-2.7734">
        <ele>109.95</ele>
        <time>2018-01-12T10:28:47Z</time>
      </trkpt>
      <trkpt lat="47.79012" lon="-2.77315">
        <ele>108.23</ele>
        <time>2018-01-12T10:29:01Z</time>
      </trkpt>
      <trkpt lat="47.78991" lon="-2.77294">
        <ele>106.1</ele>
        <time>2018-01-12T10:29:15Z</time>
      </trkpt>
      <trkpt lat="47.78965" lon="-2.77267">
        <ele>103.02</ele>
        <time>2018-01-12T10:29:34Z</time>
      </trkpt>
      <trkpt lat="47.78942" lon="-2.77241">
        <ele>100.02</ele>
        <time>2018-01-12T10:29:51Z</time>
      </trkpt>
      <trkpt lat="47.78916" lon="-2.77215">
        <ele>96.86</ele>
        <time>2018-01-12T10:30:09Z</time>
      </trkpt>
      <trkpt lat="47.78893" lon="-2.77193">
        <ele>93.72</ele>
        <time>2018-01-12T10:30:25Z</time>
      </trkpt>
      <trkpt lat="47.78867" lon="-2.77174">
        <ele>91.27</ele>
        <time>2018-01-12T10:30:37Z</time>
      </trkpt>
      <trkpt lat="47.78837" lon="-2.77156">
        <ele>88.24</ele>
        <time>2018-01-12T10:30:55Z</time>
      </trkpt>
      <trkpt lat="47.78809" lon="-2.77125">
        <ele>86.46</ele>
        <time>2018-01-12T10:31:15Z</time>
      </trkpt>
      <trkpt lat="47.78798" lon="-2.77088">
        <ele>86.47</ele>
        <time>2018-01-12T10:31:32Z</time>
      </trkpt>
      <trkpt lat="47.78796" lon="-2.77053">
        <ele>86.88</ele>
        <time>2018-01-12T10:31:46Z</time>
      </trkpt>
      <trkpt lat="47.78811" lon="-2.77013">
        <ele>88.29</ele>
        <time>2018-01-12T10:31:59Z</time>
      </trkpt>
      <trkpt lat="47.78833" lon="-2.76957">
        <ele>91.19</ele>
        <time>2018-01-12T10:32:12Z</time>
      </trkpt>
      <trkpt lat="47.78846" lon="-2.76921">
        <ele>92.66</ele>
        <time>2018-01-12T10:32:19Z</time>
      </trkpt>
      <trkpt lat="47.78848" lon="-2.76916">
        <ele>92.93</ele>
        <time>2018-01-12T10:32:20Z</time>
      </trkpt>
      <trkpt lat="47.78854" lon="-2.76905">
        <ele>93.85</ele>
        <time>2018-01-12T10:32:22Z</time>
      </trkpt>
      <trkpt lat="47.78857" lon="-2.76899">
        <ele>94.1</ele>
        <time>2018-01-12T10:32:23Z</time>
      </trkpt>
      <trkpt lat="47.7886" lon="-2.76894">
        <ele>94.35</ele>
        <time>2018-01-12T10:32:24Z</time>
      </trkpt>
      <trkpt lat="47.78863" lon="-2.76888">
        <ele>94.62</ele>
        <time>2018-01-12T10:32:25Z</time>
      </trkpt>
      <trkpt lat="47.78866" lon="-2.76883">
        <ele>94.91</ele>
        <time>2018-01-12T10:32:26Z</time>
      </trkpt>
      <trkpt lat="47.78869" lon="-2.76877">
        <ele>95.21</ele>
        <time>2018-01-12T10:32:27Z</time>
      </trkpt>
      <trkpt lat="47.78894" lon="-2.76834">
        <ele>98.28</ele>
        <time>2018-01-12T10:32:37Z</time>
      </trkpt>
      <trkpt lat="47.78902" lon="-2.76822">
        <ele>99.5</ele>
        <time>2018-01-12T10:32:42Z</time>
      </trkpt>
      <trkpt lat="47.78904" lon="-2.76812">
        <ele>100.79</ele>
        <time>2018-01-12T10:32:47Z</time>
      </trkpt>
      <trkpt lat="47.78904" lon="-2.76807">
        <ele>101.1</ele>
        <time>2018-01-12T10:32:50Z</time>
      </trkpt>
      <trkpt lat="47.78904" lon="-2.76806">
        <ele>101.18</ele>
        <time>2018-01-12T10:32:51Z</time>
      </trkpt>
      <trkpt lat="47.78904" lon="-2.76804">
        <ele>101.23</ele>
        <time>2018-01-12T10:32:52Z</time>
      </trkpt>
      <trkpt lat="47.78904" lon="-2.76802">
        <ele>101.28</ele>
        <time>2018-01-12T10:32:53Z</time>
      </trkpt>
      <trkpt lat="47.78905" lon="-2.768">
        <ele>101.3</ele>
        <time>2018-01-12T10:32:54Z</time>
      </trkpt>
      <trkpt lat="47.78905" lon="-2.76797">
        <ele>101.3</ele>
        <time>2018-01-12T10:32:55Z</time>
      </trkpt>
      <trkpt lat="47.78905" lon="-2.76795">
        <ele>101.3</ele>
        <time>2018-01-12T10:32:56Z</time>
      </trkpt>
      <trkpt lat="47.78903" lon="-2.76759">
        <ele>100.58</ele>
        <time>2018-01-12T10:33:10Z</time>
      </trkpt>
      <trkpt lat="47.78903" lon="-2.76757">
        <ele>100.51</ele>
        <time>2018-01-12T10:33:11Z</time>
      </trkpt>
      <trkpt lat="47.78903" lon="-2.76755">
        <ele>100.43</ele>
        <time>2018-01-12T10:33:12Z</time>
      </trkpt>
      <trkpt lat="47.78902" lon="-2.76747">
        <ele>100.24</ele>
        <time>2018-01-12T10:33:16Z</time>
      </trkpt>
      <trkpt lat="47.78902" lon="-2.76743">
        <ele>100.22</ele>
        <time>2018-01-12T10:33:17Z</time>
      </trkpt>
      <trkpt lat="47.78897" lon="-2.76717">
        <ele>99.62</ele>
        <time>2018-01-12T10:33:25Z</time>
      </trkpt>
      <trkpt lat="47.78896" lon="-2.76714">
        <ele>99.53</ele>
        <time>2018-01-12T10:33:26Z</time>
      </trkpt>
      <trkpt lat="47.78895" lon="-2.76703">
        <ele>99.39</ele>
        <time>2018-01-12T10:33:30Z</time>
      </trkpt>
      <trkpt lat="47.78895" lon="-2.767">
        <ele>99.4</ele>
        <time>2018-01-12T10:33:31Z</time>
      </trkpt>
      <trkpt lat="47.78895" lon="-2.76697">
        <ele>99.42</ele>
        <time>2018-01-12T10:33:32Z</time>
      </trkpt>
      <trkpt lat="47.78894" lon="-2.76662">
        <ele>98.7</ele>
        <time>2018-01-12T10:33:44Z</time>
      </trkpt>
      <trkpt lat="47.78899" lon="-2.76623">
        <ele>97.8</ele>
        <time>2018-01-12T10:33:59Z</time>
      </trkpt>
      <trkpt lat="47.78906" lon="-2.76586">
        <ele>96.73</ele>
        <time>2018-01-12T10:34:15Z</time>
      </trkpt>
      <trkpt lat="47.78911" lon="-2.76555">
        <ele>95.97</ele>
        <time>2018-01-12T10:34:28Z</time>
      </trkpt>
      <trkpt lat="47.78911" lon="-2.76547">
        <ele>95.71</ele>
        <time>2018-01-12T10:34:31Z</time>
      </trkpt>
      <trkpt lat="47.78912" lon="-2.76544">
        <ele>95.63</ele>
        <time>2018-01-12T10:34:32Z</time>
      </trkpt>
      <trkpt lat="47.78912" lon="-2.7654">
        <ele>95.56</ele>
        <time>2018-01-12T10:34:33Z</time>
      </trkpt>
      <trkpt lat="47.78912" lon="-2.76538">
        <ele>95.49</ele>
        <time>2018-01-12T10:34:34Z</time>
      </trkpt>
      <trkpt lat="47.78912" lon="-2.76534">
        <ele>95.45</ele>
        <time>2018-01-12T10:34:35Z</time>
      </trkpt>
      <trkpt lat="47.78912" lon="-2.76532">
        <ele>95.41</ele>
        <time>2018-01-12T10:34:36Z</time>
      </trkpt>
      <trkpt lat="47.78912" lon="-2.76529">
        <ele>95.37</ele>
        <time>2018-01-12T10:34:37Z</time>
      </trkpt>
      <trkpt lat="47.78912" lon="-2.76527">
        <ele>95.34</ele>
        <time>2018-01-12T10:34:38Z</time>
      </trkpt>
      <trkpt lat="47.78911" lon="-2.76524">
        <ele>95.29</ele>
        <time>2018-01-12T10:34:39Z</time>
      </trkpt>
      <trkpt lat="47.78912" lon="-2.76522">
        <ele>95.24</ele>
        <time>2018-01-12T10:34:40Z</time>
      </trkpt>
      <trkpt lat="47.78912" lon="-2.7652">
        <ele>95.21</ele>
        <time>2018-01-12T10:34:41Z</time>
      </trkpt>
      <trkpt lat="47.78912" lon="-2.76517">
        <ele>95.19</ele>
        <time>2018-01-12T10:34:42Z</time>
      </trkpt>
      <trkpt lat="47.78912" lon="-2.76504">
        <ele>95.23</ele>
        <time>2018-01-12T10:34:48Z</time>
      </trkpt>
      <trkpt lat="47.78911" lon="-2.76501">
        <ele>95.23</ele>
        <time>2018-01-12T10:34:49Z</time>
      </trkpt>
      <trkpt lat="47.78911" lon="-2.76498">
        <ele>95.22</ele>
        <time>2018-01-12T10:34:50Z</time>
      </trkpt>
      <trkpt lat="47.78908" lon="-2.76474">
        <ele>95.57</ele>
        <time>2018-01-12T10:34:59Z</time>
      </trkpt>
      <trkpt lat="47.78907" lon="-2.76471">
        <ele>95.64</ele>
        <time>2018-01-12T10:35:00Z</time>
      </trkpt>
      <trkpt lat="47.78907" lon="-2.76469">
        <ele>95.74</ele>
        <time>2018-01-12T10:35:01Z</time>
      </trkpt>
      <trkpt lat="47.78903" lon="-2.76428">
        <ele>97.42</ele>
        <time>2018-01-12T10:35:18Z</time>
      </trkpt>
      <trkpt lat="47.78901" lon="-2.76398">
        <ele>98.83</ele>
        <time>2018-01-12T10:35:30Z</time>
      </trkpt>
      <trkpt lat="47.78896" lon="-2.76355">
        <ele>100.45</ele>
        <time>2018-01-12T10:35:47Z</time>
      </trkpt>
      <trkpt lat="47.78895" lon="-2.76315">
        <ele>101.16</ele>
        <time>2018-01-12T10:36:03Z</time>
      </trkpt>
      <trkpt lat="47.78892" lon="-2.76273">
        <ele>101.25</ele>
        <time>2018-01-12T10:36:21Z</time>
      </trkpt>
      <trkpt lat="47.78877" lon="-2.76213">
        <ele>100.73</ele>
        <time>2018-01-12T10:36:44Z</time>
      </trkpt>
      <trkpt lat="47.78861" lon="-2.76153">
        <ele>98.54</ele>
        <time>2018-01-12T10:37:08Z</time>
      </trkpt>
      <trkpt lat="47.78853" lon="-2.76105">
        <ele>97.04</ele>
        <time>2018-01-12T10:37:28Z</time>
      </trkpt>
      <trkpt lat="47.7885" lon="-2.76059">
        <ele>94.91</ele>
        <time>2018-01-12T10:37:46Z</time>
      </trkpt>
      <trkpt lat="47.78848" lon="-2.76018">
        <ele>93.39</ele>
        <time>2018-01-12T10:38:02Z</time>
      </trkpt>
      <trkpt lat="47.78845" lon="-2.75977">
        <ele>91.15</ele>
        <time>2018-01-12T10:38:18Z</time>
      </trkpt>
      <trkpt lat="47.78837" lon="-2.75934">
        <ele>90.03</ele>
        <time>2018-01-12T10:38:35Z</time>
      </trkpt>
      <trkpt lat="47.78825" lon="-2.75892">
        <ele>90.4</ele>
        <time>2018-01-12T10:38:48Z</time>
      </trkpt>
      <trkpt lat="47.78816" lon="-2.75872">
        <ele>90.55</ele>
        <time>2018-01-12T10:38:52Z</time>
      </trkpt>
      <trkpt lat="47.78813" lon="-2.75867">
        <ele>90.59</ele>
        <time>2018-01-12T10:38:53Z</time>
      </trkpt>
      <trkpt lat="47.78806" lon="-2.75851">
        <ele>90.71</ele>
        <time>2018-01-12T10:38:56Z</time>
      </trkpt>
      <trkpt lat="47.78771" lon="-2.75784">
        <ele>91.68</ele>
        <time>2018-01-12T10:39:08Z</time>
      </trkpt>
      <trkpt lat="47.78769" lon="-2.75779">
        <ele>91.79</ele>
        <time>2018-01-12T10:39:09Z</time>
      </trkpt>
      <trkpt lat="47.78766" lon="-2.75774">
        <ele>91.92</ele>
        <time>2018-01-12T10:39:10Z</time>
      </trkpt>
      <trkpt lat="47.78763" lon="-2.75768">
        <ele>92.06</ele>
        <time>2018-01-12T10:39:11Z</time>
      </trkpt>
      <trkpt lat="47.78762" lon="-2.75762">
        <ele>92.21</ele>
        <time>2018-01-12T10:39:12Z</time>
      </trkpt>
      <trkpt lat="47.7876" lon="-2.75756">
        <ele>92.38</ele>
        <time>2018-01-12T10:39:13Z</time>
      </trkpt>
      <trkpt lat="47.78743" lon="-2.75672">
        <ele>95.59</ele>
        <time>2018-01-12T10:39:27Z</time>
      </trkpt>
      <trkpt lat="47.78732" lon="-2.75645">
        <ele>97.77</ele>
        <time>2018-01-12T10:39:37Z</time>
      </trkpt>
      <trkpt lat="47.78706" lon="-2.75627">
        <ele>97.15</ele>
        <time>2018-01-12T10:39:54Z</time>
      </trkpt>
      <trkpt lat="47.78677" lon="-2.75609">
        <ele>95.49</ele>
        <time>2018-01-12T10:40:12Z</time>
      </trkpt>
      <trkpt lat="47.78646" lon="-2.75605">
        <ele>93.55</ele>
        <time>2018-01-12T10:40:31Z</time>
      </trkpt>
      <trkpt lat="47.78604" lon="-2.75613">
        <ele>91.06</ele>
        <time>2018-01-12T10:40:55Z</time>
      </trkpt>
      <trkpt lat="47.78576" lon="-2.75619">
        <ele>88.67</ele>
        <time>2018-01-12T10:41:12Z</time>
      </trkpt>
      <trkpt lat="47.78545" lon="-2.7564">
        <ele>86.62</ele>
        <time>2018-01-12T10:41:33Z</time>
      </trkpt>
      <trkpt lat="47.78512" lon="-2.75666">
        <ele>84.38</ele>
        <time>2018-01-12T10:41:56Z</time>
      </trkpt>
      <trkpt lat="47.78497" lon="-2.75678">
        <ele>82.83</ele>
        <time>2018-01-12T10:42:15Z</time>
      </trkpt>
      <trkpt lat="47.78495" lon="-2.75679">
        <ele>82.71</ele>
        <time>2018-01-12T10:42:28Z</time>
      </trkpt>
      <trkpt lat="47.78494" lon="-2.7568">
        <ele>82.72</ele>
        <time>2018-01-12T10:42:29Z</time>
      </trkpt>
      <trkpt lat="47.78493" lon="-2.75681">
        <ele>82.72</ele>
        <time>2018-01-12T10:42:30Z</time>
      </trkpt>
      <trkpt lat="47.78491" lon="-2.75682">
        <ele>82.72</ele>
        <time>2018-01-12T10:42:31Z</time>
      </trkpt>
      <trkpt lat="47.7849" lon="-2.75683">
        <ele>82.71</ele>
        <time>2018-01-12T10:42:32Z</time>
      </trkpt>
      <trkpt lat="47.78489" lon="-2.75684">
        <ele>82.69</ele>
        <time>2018-01-12T10:42:33Z</time>
      </trkpt>
      <trkpt lat="47.78488" lon="-2.75685">
        <ele>82.66</ele>
        <time>2018-01-12T10:42:34Z</time>
      </trkpt>
      <trkpt lat="47.78486" lon="-2.75686">
        <ele>82.64</ele>
        <time>2018-01-12T10:42:35Z</time>
      </trkpt>
      <trkpt lat="47.78484" lon="-2.75687">
        <ele>82.6</ele>
        <time>2018-01-12T10:42:36Z</time>
      </trkpt>
      <trkpt lat="47.7845" lon="-2.75715">
        <ele>81.27</ele>
        <time>2018-01-12T10:42:59Z</time>
      </trkpt>
      <trkpt lat="47.78427" lon="-2.75735">
        <ele>80.55</ele>
        <time>2018-01-12T10:43:14Z</time>
      </trkpt>
      <trkpt lat="47.78401" lon="-2.75735">
        <ele>79.62</ele>
        <time>2018-01-12T10:43:30Z</time>
      </trkpt>
      <trkpt lat="47.78399" lon="-2.75731">
        <ele>79.58</ele>
        <time>2018-01-12T10:43:33Z</time>
      </trkpt>
      <trkpt lat="47.78389" lon="-2.75691">
        <ele>79.19</ele>
        <time>2018-01-12T10:43:50Z</time>
      </trkpt>
      <trkpt lat="47.78388" lon="-2.75683">
        <ele>79.18</ele>
        <time>2018-01-12T10:43:53Z</time>
      </trkpt>
      <trkpt lat="47.78388" lon="-2.7568">
        <ele>79.15</ele>
        <time>2018-01-12T10:43:54Z</time>
      </trkpt>
      <trkpt lat="47.78387" lon="-2.75678">
        <ele>79.12</ele>
        <time>2018-01-12T10:43:55Z</time>
      </trkpt>
      <trkpt lat="47.78386" lon="-2.75676">
        <ele>79.08</ele>
        <time>2018-01-12T10:43:56Z</time>
      </trkpt>
      <trkpt lat="47.78386" lon="-2.75674">
        <ele>79.04</ele>
        <time>2018-01-12T10:43:57Z</time>
      </trkpt>
      <trkpt lat="47.78385" lon="-2.75671">
        <ele>79.01</ele>
        <time>2018-01-12T10:43:58Z</time>
      </trkpt>
      <trkpt lat="47.78385" lon="-2.75669">
        <ele>79.03</ele>
        <time>2018-01-12T10:43:59Z</time>
      </trkpt>
      <trkpt lat="47.7838" lon="-2.75628">
        <ele>78.89</ele>
        <time>2018-01-12T10:44:15Z</time>
      </trkpt>
      <trkpt lat="47.78376" lon="-2.75587">
        <ele>78.06</ele>
        <time>2018-01-12T10:44:31Z</time>
      </trkpt>
      <trkpt lat="47.78371" lon="-2.75538">
        <ele>76.65</ele>
        <time>2018-01-12T10:44:49Z</time>
      </trkpt>
      <trkpt lat="47.78366" lon="-2.75488">
        <ele>75.84</ele>
        <time>2018-01-12T10:45:08Z</time>
      </trkpt>
      <trkpt lat="47.78362" lon="-2.75437">
        <ele>74.84</ele>
        <time>2018-01-12T10:45:27Z</time>
      </trkpt>
      <trkpt lat="47.78357" lon="-2.75385">
        <ele>74.52</ele>
        <time>2018-01-12T10:45:47Z</time>
      </trkpt>
      <trkpt lat="47.78353" lon="-2.75337">
        <ele>74.15</ele>
        <time>2018-01-12T10:46:06Z</time>
      </trkpt>
      <trkpt lat="47.78348" lon="-2.75287">
        <ele>74.14</ele>
        <time>2018-01-12T10:46:26Z</time>
      </trkpt>
      <trkpt lat="47.78347" lon="-2.75246">
        <ele>74.4</ele>
        <time>2018-01-12T10:46:43Z</time>
      </trkpt>
      <trkpt lat="47.78349" lon="-2.75237">
        <ele>74.55</ele>
        <time>2018-01-12T10:46:48Z</time>
      </trkpt>
      <trkpt lat="47.7835" lon="-2.752">
        <ele>75.33</ele>
        <time>2018-01-12T10:47:02Z</time>
      </trkpt>
      <trkpt lat="47.78351" lon="-2.75152">
        <ele>77.06</ele>
        <time>2018-01-12T10:47:20Z</time>
      </trkpt>
      <trkpt lat="47.78354" lon="-2.75099">
        <ele>78.63</ele>
        <time>2018-01-12T10:47:41Z</time>
      </trkpt>
      <trkpt lat="47.78356" lon="-2.75062">
        <ele>79.82</ele>
        <time>2018-01-12T10:47:57Z</time>
      </trkpt>
      <trkpt lat="47.78366" lon="-2.75016">
        <ele>81.01</ele>
        <time>2018-01-12T10:48:18Z</time>
      </trkpt>
      <trkpt lat="47.78396" lon="-2.74997">
        <ele>82.47</ele>
        <time>2018-01-12T10:48:37Z</time>
      </trkpt>
      <trkpt lat="47.7843" lon="-2.74984">
        <ele>84.14</ele>
        <time>2018-01-12T10:48:58Z</time>
      </trkpt>
      <trkpt lat="47.78449" lon="-2.74957">
        <ele>85.97</ele>
        <time>2018-01-12T10:49:15Z</time>
      </trkpt>
      <trkpt lat="47.78451" lon="-2.74955">
        <ele>86.2</ele>
        <time>2018-01-12T10:49:17Z</time>
      </trkpt>
      <trkpt lat="47.78449" lon="-2.74959">
        <ele>87.11</ele>
        <time>2018-01-12T10:49:28Z</time>
      </trkpt>
      <trkpt lat="47.78452" lon="-2.74956">
        <ele>87</ele>
        <time>2018-01-12T10:49:45Z</time>
      </trkpt>
      <trkpt lat="47.78454" lon="-2.74955">
        <ele>87.32</ele>
        <time>2018-01-12T10:50:03Z</time>
      </trkpt>
      <trkpt lat="47.78456" lon="-2.74956">
        <ele>87.41</ele>
        <time>2018-01-12T10:50:24Z</time>
      </trkpt>
      <trkpt lat="47.78457" lon="-2.74955">
        <ele>87.69</ele>
        <time>2018-01-12T10:50:58Z</time>
      </trkpt>
      <trkpt lat="47.7846" lon="-2.74952">
        <ele>87.68</ele>
        <time>2018-01-12T10:51:28Z</time>
      </trkpt>
      <trkpt lat="47.7846" lon="-2.74951">
        <ele>87.68</ele>
        <time>2018-01-12T10:51:29Z</time>
      </trkpt>
      <trkpt lat="47.78461" lon="-2.74949">
        <ele>87.83</ele>
        <time>2018-01-12T10:51:31Z</time>
      </trkpt>
      <trkpt lat="47.78465" lon="-2.74929">
        <ele>88.67</ele>
        <time>2018-01-12T10:51:41Z</time>
      </trkpt>
      <trkpt lat="47.78466" lon="-2.74927">
        <ele>88.79</ele>
        <time>2018-01-12T10:51:42Z</time>
      </trkpt>
      <trkpt lat="47.78466" lon="-2.74923">
        <ele>88.9</ele>
        <time>2018-01-12T10:51:43Z</time>
      </trkpt>
      <trkpt lat="47.78467" lon="-2.7492">
        <ele>89.01</ele>
        <time>2018-01-12T10:51:44Z</time>
      </trkpt>
      <trkpt lat="47.78468" lon="-2.74916">
        <ele>89.12</ele>
        <time>2018-01-12T10:51:45Z</time>
      </trkpt>
      <trkpt lat="47.7847" lon="-2.74913">
        <ele>89.22</ele>
        <time>2018-01-12T10:51:46Z</time>
      </trkpt>
      <trkpt lat="47.78472" lon="-2.74911">
        <ele>89.32</ele>
        <time>2018-01-12T10:51:47Z</time>
      </trkpt>
      <trkpt lat="47.78475" lon="-2.74911">
        <ele>89.5</ele>
        <time>2018-01-12T10:51:48Z</time>
      </trkpt>
      <trkpt lat="47.78477" lon="-2.7491">
        <ele>89.61</ele>
        <time>2018-01-12T10:51:49Z</time>
      </trkpt>
      <trkpt lat="47.78494" lon="-2.74907">
        <ele>90.97</ele>
        <time>2018-01-12T10:52:01Z</time>
      </trkpt>
      <trkpt lat="47.78518" lon="-2.74904">
        <ele>91.99</ele>
        <time>2018-01-12T10:52:11Z</time>
      </trkpt>
      <trkpt lat="47.78545" lon="-2.74897">
        <ele>94.98</ele>
        <time>2018-01-12T10:52:24Z</time>
      </trkpt>
      <trkpt lat="47.78563" lon="-2.74897">
        <ele>96.21</ele>
        <time>2018-01-12T10:52:34Z</time>
      </trkpt>
      <trkpt lat="47.78565" lon="-2.74897">
        <ele>96.23</ele>
        <time>2018-01-12T10:52:35Z</time>
      </trkpt>
      <trkpt lat="47.78568" lon="-2.74897">
        <ele>96.37</ele>
        <time>2018-01-12T10:52:36Z</time>
      </trkpt>
      <trkpt lat="47.78571" lon="-2.74897">
        <ele>96.37</ele>
        <time>2018-01-12T10:52:37Z</time>
      </trkpt>
      <trkpt lat="47.78574" lon="-2.74898">
        <ele>96.82</ele>
        <time>2018-01-12T10:52:38Z</time>
      </trkpt>
      <trkpt lat="47.78576" lon="-2.74899">
        <ele>97.1</ele>
        <time>2018-01-12T10:52:39Z</time>
      </trkpt>
      <trkpt lat="47.78579" lon="-2.749">
        <ele>97.43</ele>
        <time>2018-01-12T10:52:40Z</time>
      </trkpt>
      <trkpt lat="47.78581" lon="-2.74901">
        <ele>97.84</ele>
        <time>2018-01-12T10:52:41Z</time>
      </trkpt>
      <trkpt lat="47.78583" lon="-2.74902">
        <ele>98.34</ele>
        <time>2018-01-12T10:52:42Z</time>
      </trkpt>
      <trkpt lat="47.78595" lon="-2.74902">
        <ele>101.04</ele>
        <time>2018-01-12T10:52:48Z</time>
      </trkpt>
      <trkpt lat="47.78596" lon="-2.74898">
        <ele>101.72</ele>
        <time>2018-01-12T10:52:50Z</time>
      </trkpt>
      <trkpt lat="47.78597" lon="-2.74897">
        <ele>102.03</ele>
        <time>2018-01-12T10:52:51Z</time>
      </trkpt>
      <trkpt lat="47.78585" lon="-2.74861">
        <ele>104.62</ele>
        <time>2018-01-12T10:53:02Z</time>
      </trkpt>
      <trkpt lat="47.78578" lon="-2.7482">
        <ele>105.88</ele>
        <time>2018-01-12T10:53:11Z</time>
      </trkpt>
      <trkpt lat="47.78576" lon="-2.74802">
        <ele>106.84</ele>
        <time>2018-01-12T10:53:19Z</time>
      </trkpt>
      <trkpt lat="47.78574" lon="-2.74784">
        <ele>107.15</ele>
        <time>2018-01-12T10:53:24Z</time>
      </trkpt>
      <trkpt lat="47.78565" lon="-2.74734">
        <ele>108.34</ele>
        <time>2018-01-12T10:53:36Z</time>
      </trkpt>
      <trkpt lat="47.78563" lon="-2.74725">
        <ele>108.79</ele>
        <time>2018-01-12T10:53:39Z</time>
      </trkpt>
      <trkpt lat="47.7856" lon="-2.74709">
        <ele>109.29</ele>
        <time>2018-01-12T10:53:43Z</time>
      </trkpt>
      <trkpt lat="47.78535" lon="-2.74603">
        <ele>108.86</ele>
        <time>2018-01-12T10:53:58Z</time>
      </trkpt>
      <trkpt lat="47.78529" lon="-2.74556">
        <ele>107.63</ele>
        <time>2018-01-12T10:54:10Z</time>
      </trkpt>
      <trkpt lat="47.78536" lon="-2.7451">
        <ele>107.06</ele>
        <time>2018-01-12T10:54:22Z</time>
      </trkpt>
      <trkpt lat="47.78547" lon="-2.74492">
        <ele>109.75</ele>
        <time>2018-01-12T10:54:30Z</time>
      </trkpt>
      <trkpt lat="47.78546" lon="-2.74472">
        <ele>112.34</ele>
        <time>2018-01-12T10:54:41Z</time>
      </trkpt>
      <trkpt lat="47.78546" lon="-2.74466">
        <ele>112.45</ele>
        <time>2018-01-12T10:54:45Z</time>
      </trkpt>
      <trkpt lat="47.78544" lon="-2.74445">
        <ele>111.66</ele>
        <time>2018-01-12T10:54:53Z</time>
      </trkpt>
      <trkpt lat="47.78563" lon="-2.7443">
        <ele>114.94</ele>
        <time>2018-01-12T10:55:02Z</time>
      </trkpt>
      <trkpt lat="47.7857" lon="-2.74421">
        <ele>117.4</ele>
        <time>2018-01-12T10:55:07Z</time>
      </trkpt>
      <trkpt lat="47.78573" lon="-2.74407">
        <ele>119.28</ele>
        <time>2018-01-12T10:55:13Z</time>
      </trkpt>
      <trkpt lat="47.78562" lon="-2.74379">
        <ele>119.15</ele>
        <time>2018-01-12T10:55:25Z</time>
      </trkpt>
      <trkpt lat="47.7856" lon="-2.74351">
        <ele>118.23</ele>
        <time>2018-01-12T10:55:37Z</time>
      </trkpt>
      <trkpt lat="47.78581" lon="-2.7432">
        <ele>118.17</ele>
        <time>2018-01-12T10:55:46Z</time>
      </trkpt>
      <trkpt lat="47.7859" lon="-2.74295">
        <ele>120.78</ele>
        <time>2018-01-12T10:55:54Z</time>
      </trkpt>
      <trkpt lat="47.78602" lon="-2.74261">
        <ele>123.86</ele>
        <time>2018-01-12T10:56:02Z</time>
      </trkpt>
      <trkpt lat="47.78617" lon="-2.74224">
        <ele>127</ele>
        <time>2018-01-12T10:56:10Z</time>
      </trkpt>
      <trkpt lat="47.78638" lon="-2.74206">
        <ele>130.4</ele>
        <time>2018-01-12T10:56:18Z</time>
      </trkpt>
      <trkpt lat="47.78661" lon="-2.74195">
        <ele>133.63</ele>
        <time>2018-01-12T10:56:26Z</time>
      </trkpt>
      <trkpt lat="47.78673" lon="-2.7419">
        <ele>134.63</ele>
        <time>2018-01-12T10:56:29Z</time>
      </trkpt>
      <trkpt lat="47.78691" lon="-2.74183">
        <ele>136.88</ele>
        <time>2018-01-12T10:56:34Z</time>
      </trkpt>
      <trkpt lat="47.78709" lon="-2.74175">
        <ele>139.26</ele>
        <time>2018-01-12T10:56:40Z</time>
      </trkpt>
      <trkpt lat="47.78719" lon="-2.74192">
        <ele>140.51</ele>
        <time>2018-01-12T10:56:46Z</time>
      </trkpt>
      <trkpt lat="47.78744" lon="-2.74239">
        <ele>140.45</ele>
        <time>2018-01-12T10:56:57Z</time>
      </trkpt>
      <trkpt lat="47.78762" lon="-2.74286">
        <ele>140.52</ele>
        <time>2018-01-12T10:57:06Z</time>
      </trkpt>
      <trkpt lat="47.78771" lon="-2.74336">
        <ele>140.34</ele>
        <time>2018-01-12T10:57:16Z</time>
      </trkpt>
      <trkpt lat="47.78779" lon="-2.74375">
        <ele>140.33</ele>
        <time>2018-01-12T10:57:28Z</time>
      </trkpt>
      <trkpt lat="47.78785" lon="-2.74432">
        <ele>140.31</ele>
        <time>2018-01-12T10:57:39Z</time>
      </trkpt>
      <trkpt lat="47.78789" lon="-2.74476">
        <ele>139.89</ele>
        <time>2018-01-12T10:57:48Z</time>
      </trkpt>
      <trkpt lat="47.78829" lon="-2.74504">
        <ele>140.63</ele>
        <time>2018-01-12T10:57:59Z</time>
      </trkpt>
      <trkpt lat="47.78862" lon="-2.74503">
        <ele>142.15</ele>
        <time>2018-01-12T10:58:05Z</time>
      </trkpt>
      <trkpt lat="47.78913" lon="-2.74509">
        <ele>144.95</ele>
        <time>2018-01-12T10:58:16Z</time>
      </trkpt>
      <trkpt lat="47.78955" lon="-2.74519">
        <ele>145.51</ele>
        <time>2018-01-12T10:58:24Z</time>
      </trkpt>
      <trkpt lat="47.78994" lon="-2.74551">
        <ele>144.84</ele>
        <time>2018-01-12T10:58:35Z</time>
      </trkpt>
      <trkpt lat="47.79036" lon="-2.74545">
        <ele>142.93</ele>
        <time>2018-01-12T10:58:45Z</time>
      </trkpt>
      <trkpt lat="47.79071" lon="-2.74547">
        <ele>140.4</ele>
        <time>2018-01-12T10:58:57Z</time>
      </trkpt>
      <trkpt lat="47.79075" lon="-2.74548">
        <ele>140.16</ele>
        <time>2018-01-12T10:59:00Z</time>
      </trkpt>
      <trkpt lat="47.79077" lon="-2.74548">
        <ele>140.1</ele>
        <time>2018-01-12T10:59:01Z</time>
      </trkpt>
      <trkpt lat="47.79079" lon="-2.74548">
        <ele>140.06</ele>
        <time>2018-01-12T10:59:02Z</time>
      </trkpt>
      <trkpt lat="47.79091" lon="-2.7455">
        <ele>139.14</ele>
        <time>2018-01-12T10:59:10Z</time>
      </trkpt>
      <trkpt lat="47.79094" lon="-2.7455">
        <ele>139.11</ele>
        <time>2018-01-12T10:59:12Z</time>
      </trkpt>
      <trkpt lat="47.79095" lon="-2.74549">
        <ele>139.12</ele>
        <time>2018-01-12T10:59:13Z</time>
      </trkpt>
      <trkpt lat="47.79097" lon="-2.74549">
        <ele>139.14</ele>
        <time>2018-01-12T10:59:14Z</time>
      </trkpt>
      <trkpt lat="47.79099" lon="-2.74549">
        <ele>139.16</ele>
        <time>2018-01-12T10:59:15Z</time>
      </trkpt>
      <trkpt lat="47.791" lon="-2.7455">
        <ele>139.18</ele>
        <time>2018-01-12T10:59:16Z</time>
      </trkpt>
      <trkpt lat="47.79107" lon="-2.74548">
        <ele>139.14</ele>
        <time>2018-01-12T10:59:21Z</time>
      </trkpt>
      <trkpt lat="47.79108" lon="-2.74546">
        <ele>139.12</ele>
        <time>2018-01-12T10:59:22Z</time>
      </trkpt>
      <trkpt lat="47.7911" lon="-2.74544">
        <ele>139.11</ele>
        <time>2018-01-12T10:59:23Z</time>
      </trkpt>
      <trkpt lat="47.79115" lon="-2.74539">
        <ele>139.1</ele>
        <time>2018-01-12T10:59:25Z</time>
      </trkpt>
      <trkpt lat="47.79113" lon="-2.745">
        <ele>140.47</ele>
        <time>2018-01-12T10:59:40Z</time>
      </trkpt>
      <trkpt lat="47.79105" lon="-2.74459">
        <ele>141.85</ele>
        <time>2018-01-12T10:59:57Z</time>
      </trkpt>
      <trkpt lat="47.791" lon="-2.74434">
        <ele>142.57</ele>
        <time>2018-01-12T11:00:09Z</time>
      </trkpt>
      <trkpt lat="47.79093" lon="-2.74401">
        <ele>143.54</ele>
        <time>2018-01-12T11:00:23Z</time>
      </trkpt>
      <trkpt lat="47.79087" lon="-2.74369">
        <ele>144.66</ele>
        <time>2018-01-12T11:00:37Z</time>
      </trkpt>
      <trkpt lat="47.7908" lon="-2.74334">
        <ele>145.41</ele>
        <time>2018-01-12T11:00:52Z</time>
      </trkpt>
      <trkpt lat="47.79072" lon="-2.74297">
        <ele>146.35</ele>
        <time>2018-01-12T11:01:09Z</time>
      </trkpt>
      <trkpt lat="47.79065" lon="-2.74254">
        <ele>147.38</ele>
        <time>2018-01-12T11:01:27Z</time>
      </trkpt>
      <trkpt lat="47.79063" lon="-2.74213">
        <ele>147.93</ele>
        <time>2018-01-12T11:01:44Z</time>
      </trkpt>
      <trkpt lat="47.79061" lon="-2.7417">
        <ele>148.38</ele>
        <time>2018-01-12T11:02:02Z</time>
      </trkpt>
      <trkpt lat="47.79059" lon="-2.74127">
        <ele>148.78</ele>
        <time>2018-01-12T11:02:19Z</time>
      </trkpt>
      <trkpt lat="47.79057" lon="-2.74096">
        <ele>149.07</ele>
        <time>2018-01-12T11:02:32Z</time>
      </trkpt>
      <trkpt lat="47.79055" lon="-2.74056">
        <ele>149.04</ele>
        <time>2018-01-12T11:02:48Z</time>
      </trkpt>
      <trkpt lat="47.79052" lon="-2.74005">
        <ele>148.94</ele>
        <time>2018-01-12T11:03:08Z</time>
      </trkpt>
      <trkpt lat="47.79049" lon="-2.73954">
        <ele>148.37</ele>
        <time>2018-01-12T11:03:30Z</time>
      </trkpt>
      <trkpt lat="47.79046" lon="-2.73907">
        <ele>147.09</ele>
        <time>2018-01-12T11:03:50Z</time>
      </trkpt>
      <trkpt lat="47.79043" lon="-2.7387">
        <ele>146.63</ele>
        <time>2018-01-12T11:04:06Z</time>
      </trkpt>
      <trkpt lat="47.79042" lon="-2.73832">
        <ele>145.83</ele>
        <time>2018-01-12T11:04:22Z</time>
      </trkpt>
      <trkpt lat="47.79049" lon="-2.73789">
        <ele>145.26</ele>
        <time>2018-01-12T11:04:40Z</time>
      </trkpt>
      <trkpt lat="47.79051" lon="-2.73754">
        <ele>144.88</ele>
        <time>2018-01-12T11:04:55Z</time>
      </trkpt>
      <trkpt lat="47.79056" lon="-2.73693">
        <ele>143.93</ele>
        <time>2018-01-12T11:05:17Z</time>
      </trkpt>
      <trkpt lat="47.79063" lon="-2.73641">
        <ele>142.89</ele>
        <time>2018-01-12T11:05:38Z</time>
      </trkpt>
      <trkpt lat="47.79075" lon="-2.73603">
        <ele>142.5</ele>
        <time>2018-01-12T11:05:56Z</time>
      </trkpt>
      <trkpt lat="47.79097" lon="-2.73579">
        <ele>142.04</ele>
        <time>2018-01-12T11:06:14Z</time>
      </trkpt>
      <trkpt lat="47.79128" lon="-2.73558">
        <ele>141.63</ele>
        <time>2018-01-12T11:06:35Z</time>
      </trkpt>
      <trkpt lat="47.79156" lon="-2.73542">
        <ele>141.42</ele>
        <time>2018-01-12T11:06:55Z</time>
      </trkpt>
      <trkpt lat="47.79183" lon="-2.73521">
        <ele>141.12</ele>
        <time>2018-01-12T11:07:14Z</time>
      </trkpt>
      <trkpt lat="47.79208" lon="-2.73503">
        <ele>140.26</ele>
        <time>2018-01-12T11:07:31Z</time>
      </trkpt>
      <trkpt lat="47.79244" lon="-2.73479">
        <ele>139.54</ele>
        <time>2018-01-12T11:07:55Z</time>
      </trkpt>
      <trkpt lat="47.79279" lon="-2.73459">
        <ele>139.25</ele>
        <time>2018-01-12T11:08:18Z</time>
      </trkpt>
      <trkpt lat="47.79303" lon="-2.73456">
        <ele>139.22</ele>
        <time>2018-01-12T11:08:33Z</time>
      </trkpt>
      <trkpt lat="47.79341" lon="-2.73453">
        <ele>139.77</ele>
        <time>2018-01-12T11:08:47Z</time>
      </trkpt>
      <trkpt lat="47.79391" lon="-2.7345">
        <ele>140.31</ele>
        <time>2018-01-12T11:09:00Z</time>
      </trkpt>
      <trkpt lat="47.79452" lon="-2.73446">
        <ele>139.82</ele>
        <time>2018-01-12T11:09:13Z</time>
      </trkpt>
      <trkpt lat="47.79476" lon="-2.73443">
        <ele>139.82</ele>
        <time>2018-01-12T11:09:18Z</time>
      </trkpt>
      <trkpt lat="47.7955" lon="-2.73438">
        <ele>138.77</ele>
        <time>2018-01-12T11:09:32Z</time>
      </trkpt>
      <trkpt lat="47.79623" lon="-2.73432">
        <ele>138.21</ele>
        <time>2018-01-12T11:09:45Z</time>
      </trkpt>
      <trkpt lat="47.79679" lon="-2.73429">
        <ele>138.63</ele>
        <time>2018-01-12T11:09:59Z</time>
      </trkpt>
      <trkpt lat="47.79683" lon="-2.73428">
        <ele>138.7</ele>
        <time>2018-01-12T11:10:01Z</time>
      </trkpt>
      <trkpt lat="47.79684" lon="-2.73425">
        <ele>138.72</ele>
        <time>2018-01-12T11:10:02Z</time>
      </trkpt>
      <trkpt lat="47.79685" lon="-2.7342">
        <ele>138.74</ele>
        <time>2018-01-12T11:10:03Z</time>
      </trkpt>
      <trkpt lat="47.79685" lon="-2.73416">
        <ele>138.76</ele>
        <time>2018-01-12T11:10:04Z</time>
      </trkpt>
      <trkpt lat="47.79684" lon="-2.7341">
        <ele>138.77</ele>
        <time>2018-01-12T11:10:05Z</time>
      </trkpt>
      <trkpt lat="47.79682" lon="-2.73405">
        <ele>138.75</ele>
        <time>2018-01-12T11:10:06Z</time>
      </trkpt>
      <trkpt lat="47.79663" lon="-2.73339">
        <ele>137.73</ele>
        <time>2018-01-12T11:10:19Z</time>
      </trkpt>
      <trkpt lat="47.79652" lon="-2.73292">
        <ele>136.33</ele>
        <time>2018-01-12T11:10:32Z</time>
      </trkpt>
      <trkpt lat="47.79645" lon="-2.73265">
        <ele>135.24</ele>
        <time>2018-01-12T11:10:46Z</time>
      </trkpt>
      <trkpt lat="47.79636" lon="-2.73232">
        <ele>134.06</ele>
        <time>2018-01-12T11:11:02Z</time>
      </trkpt>
      <trkpt lat="47.79625" lon="-2.73199">
        <ele>132.91</ele>
        <time>2018-01-12T11:11:17Z</time>
      </trkpt>
      <trkpt lat="47.79608" lon="-2.73149">
        <ele>132.02</ele>
        <time>2018-01-12T11:11:28Z</time>
      </trkpt>
      <trkpt lat="47.79604" lon="-2.73071">
        <ele>130.46</ele>
        <time>2018-01-12T11:11:40Z</time>
      </trkpt>
      <trkpt lat="47.79602" lon="-2.72976">
        <ele>128.64</ele>
        <time>2018-01-12T11:11:53Z</time>
      </trkpt>
      <trkpt lat="47.79604" lon="-2.72947">
        <ele>128.48</ele>
        <time>2018-01-12T11:12:04Z</time>
      </trkpt>
      <trkpt lat="47.79602" lon="-2.72938">
        <ele>128.69</ele>
        <time>2018-01-12T11:12:09Z</time>
      </trkpt>
      <trkpt lat="47.79602" lon="-2.72934">
        <ele>128.7</ele>
        <time>2018-01-12T11:12:10Z</time>
      </trkpt>
      <trkpt lat="47.79601" lon="-2.72931">
        <ele>128.71</ele>
        <time>2018-01-12T11:12:11Z</time>
      </trkpt>
      <trkpt lat="47.79601" lon="-2.72927">
        <ele>128.71</ele>
        <time>2018-01-12T11:12:12Z</time>
      </trkpt>
      <trkpt lat="47.79601" lon="-2.72924">
        <ele>128.71</ele>
        <time>2018-01-12T11:12:13Z</time>
      </trkpt>
      <trkpt lat="47.79602" lon="-2.72904">
        <ele>128.54</ele>
        <time>2018-01-12T11:12:19Z</time>
      </trkpt>
      <trkpt lat="47.79603" lon="-2.72902">
        <ele>128.51</ele>
        <time>2018-01-12T11:12:20Z</time>
      </trkpt>
      <trkpt lat="47.79604" lon="-2.72899">
        <ele>128.47</ele>
        <time>2018-01-12T11:12:21Z</time>
      </trkpt>
      <trkpt lat="47.79604" lon="-2.72897">
        <ele>128.41</ele>
        <time>2018-01-12T11:12:22Z</time>
      </trkpt>
      <trkpt lat="47.79605" lon="-2.72896">
        <ele>128.35</ele>
        <time>2018-01-12T11:12:23Z</time>
      </trkpt>
      <trkpt lat="47.79607" lon="-2.72894">
        <ele>128.29</ele>
        <time>2018-01-12T11:12:24Z</time>
      </trkpt>
      <trkpt lat="47.79609" lon="-2.72891">
        <ele>128.25</ele>
        <time>2018-01-12T11:12:25Z</time>
      </trkpt>
      <trkpt lat="47.79633" lon="-2.72848">
        <ele>128.68</ele>
        <time>2018-01-12T11:12:36Z</time>
      </trkpt>
      <trkpt lat="47.79661" lon="-2.72798">
        <ele>129.67</ele>
        <time>2018-01-12T11:12:48Z</time>
      </trkpt>
      <trkpt lat="47.79688" lon="-2.72745">
        <ele>130.51</ele>
        <time>2018-01-12T11:13:00Z</time>
      </trkpt>
      <trkpt lat="47.79693" lon="-2.72726">
        <ele>130.73</ele>
        <time>2018-01-12T11:13:03Z</time>
      </trkpt>
      <trkpt lat="47.79703" lon="-2.72698">
        <ele>131.01</ele>
        <time>2018-01-12T11:13:07Z</time>
      </trkpt>
      <trkpt lat="47.79717" lon="-2.72646">
        <ele>131.6</ele>
        <time>2018-01-12T11:13:15Z</time>
      </trkpt>
      <trkpt lat="47.79739" lon="-2.72586">
        <ele>133.29</ele>
        <time>2018-01-12T11:13:27Z</time>
      </trkpt>
      <trkpt lat="47.79753" lon="-2.72559">
        <ele>134.21</ele>
        <time>2018-01-12T11:13:36Z</time>
      </trkpt>
      <trkpt lat="47.79758" lon="-2.72561">
        <ele>134.57</ele>
        <time>2018-01-12T11:13:40Z</time>
      </trkpt>
      <trkpt lat="47.79772" lon="-2.72562">
        <ele>135.25</ele>
        <time>2018-01-12T11:13:48Z</time>
      </trkpt>
      <trkpt lat="47.79776" lon="-2.7255">
        <ele>135.69</ele>
        <time>2018-01-12T11:13:54Z</time>
      </trkpt>
      <trkpt lat="47.79772" lon="-2.72515">
        <ele>136.33</ele>
        <time>2018-01-12T11:14:09Z</time>
      </trkpt>
      <trkpt lat="47.79764" lon="-2.7248">
        <ele>136.8</ele>
        <time>2018-01-12T11:14:23Z</time>
      </trkpt>
      <trkpt lat="47.79758" lon="-2.72448">
        <ele>137.37</ele>
        <time>2018-01-12T11:14:37Z</time>
      </trkpt>
      <trkpt lat="47.7975" lon="-2.72419">
        <ele>137.69</ele>
        <time>2018-01-12T11:14:51Z</time>
      </trkpt>
      <trkpt lat="47.79735" lon="-2.72369">
        <ele>138.6</ele>
        <time>2018-01-12T11:15:13Z</time>
      </trkpt>
      <trkpt lat="47.79726" lon="-2.72334">
        <ele>139.1</ele>
        <time>2018-01-12T11:15:29Z</time>
      </trkpt>
      <trkpt lat="47.79713" lon="-2.72294">
        <ele>139.97</ele>
        <time>2018-01-12T11:15:48Z</time>
      </trkpt>
      <trkpt lat="47.797" lon="-2.72252">
        <ele>140.51</ele>
        <time>2018-01-12T11:16:06Z</time>
      </trkpt>
      <trkpt lat="47.79687" lon="-2.72209">
        <ele>140.77</ele>
        <time>2018-01-12T11:16:25Z</time>
      </trkpt>
      <trkpt lat="47.79673" lon="-2.72168">
        <ele>140.84</ele>
        <time>2018-01-12T11:16:44Z</time>
      </trkpt>
      <trkpt lat="47.79659" lon="-2.72128">
        <ele>140.87</ele>
        <time>2018-01-12T11:17:03Z</time>
      </trkpt>
      <trkpt lat="47.79658" lon="-2.72122">
        <ele>140.82</ele>
        <time>2018-01-12T11:17:06Z</time>
      </trkpt>
      <trkpt lat="47.79658" lon="-2.7212">
        <ele>140.83</ele>
        <time>2018-01-12T11:17:07Z</time>
      </trkpt>
      <trkpt lat="47.79655" lon="-2.72091">
        <ele>140.8</ele>
        <time>2018-01-12T11:17:19Z</time>
      </trkpt>
      <trkpt lat="47.79646" lon="-2.72045">
        <ele>142.02</ele>
        <time>2018-01-12T11:17:30Z</time>
      </trkpt>
      <trkpt lat="47.79624" lon="-2.71974">
        <ele>141.88</ele>
        <time>2018-01-12T11:17:44Z</time>
      </trkpt>
      <trkpt lat="47.79601" lon="-2.71905">
        <ele>141.61</ele>
        <time>2018-01-12T11:17:58Z</time>
      </trkpt>
      <trkpt lat="47.7959" lon="-2.71867">
        <ele>141.38</ele>
        <time>2018-01-12T11:18:06Z</time>
      </trkpt>
      <trkpt lat="47.7959" lon="-2.71861">
        <ele>141.27</ele>
        <time>2018-01-12T11:18:07Z</time>
      </trkpt>
      <trkpt lat="47.79587" lon="-2.71834">
        <ele>139.95</ele>
        <time>2018-01-12T11:18:16Z</time>
      </trkpt>
      <trkpt lat="47.79587" lon="-2.71832">
        <ele>139.81</ele>
        <time>2018-01-12T11:18:17Z</time>
      </trkpt>
      <trkpt lat="47.79605" lon="-2.71794">
        <ele>138.76</ele>
        <time>2018-01-12T11:18:25Z</time>
      </trkpt>
      <trkpt lat="47.79608" lon="-2.71789">
        <ele>138.68</ele>
        <time>2018-01-12T11:18:26Z</time>
      </trkpt>
      <trkpt lat="47.79614" lon="-2.71779">
        <ele>138.6</ele>
        <time>2018-01-12T11:18:28Z</time>
      </trkpt>
      <trkpt lat="47.79621" lon="-2.71764">
        <ele>138.55</ele>
        <time>2018-01-12T11:18:31Z</time>
      </trkpt>
      <trkpt lat="47.79622" lon="-2.71758">
        <ele>138.46</ele>
        <time>2018-01-12T11:18:32Z</time>
      </trkpt>
      <trkpt lat="47.79639" lon="-2.71649">
        <ele>136.95</ele>
        <time>2018-01-12T11:18:46Z</time>
      </trkpt>
      <trkpt lat="47.79648" lon="-2.71561">
        <ele>137.9</ele>
        <time>2018-01-12T11:19:00Z</time>
      </trkpt>
      <trkpt lat="47.79639" lon="-2.71505">
        <ele>138.75</ele>
        <time>2018-01-12T11:19:11Z</time>
      </trkpt>
      <trkpt lat="47.79654" lon="-2.71467">
        <ele>139.36</ele>
        <time>2018-01-12T11:19:20Z</time>
      </trkpt>
      <trkpt lat="47.79668" lon="-2.71411">
        <ele>139.36</ele>
        <time>2018-01-12T11:19:32Z</time>
      </trkpt>
      <trkpt lat="47.79669" lon="-2.71392">
        <ele>139.39</ele>
        <time>2018-01-12T11:19:35Z</time>
      </trkpt>
      <trkpt lat="47.79662" lon="-2.71321">
        <ele>139.68</ele>
        <time>2018-01-12T11:19:47Z</time>
      </trkpt>
      <trkpt lat="47.79661" lon="-2.71264">
        <ele>139.58</ele>
        <time>2018-01-12T11:19:57Z</time>
      </trkpt>
      <trkpt lat="47.79661" lon="-2.71193">
        <ele>140.06</ele>
        <time>2018-01-12T11:20:10Z</time>
      </trkpt>
      <trkpt lat="47.7966" lon="-2.71178">
        <ele>140.17</ele>
        <time>2018-01-12T11:20:13Z</time>
      </trkpt>
      <trkpt lat="47.79645" lon="-2.71163">
        <ele>140.48</ele>
        <time>2018-01-12T11:20:18Z</time>
      </trkpt>
      <trkpt lat="47.7963" lon="-2.71159">
        <ele>140.91</ele>
        <time>2018-01-12T11:20:22Z</time>
      </trkpt>
      <trkpt lat="47.79616" lon="-2.71165">
        <ele>142.13</ele>
        <time>2018-01-12T11:20:31Z</time>
      </trkpt>
      <trkpt lat="47.79615" lon="-2.71161">
        <ele>142.26</ele>
        <time>2018-01-12T11:20:33Z</time>
      </trkpt>
      <trkpt lat="47.79629" lon="-2.71114">
        <ele>141.63</ele>
        <time>2018-01-12T11:20:45Z</time>
      </trkpt>
      <trkpt lat="47.79644" lon="-2.71077">
        <ele>140.74</ele>
        <time>2018-01-12T11:20:55Z</time>
      </trkpt>
      <trkpt lat="47.79645" lon="-2.71071">
        <ele>140.65</ele>
        <time>2018-01-12T11:20:57Z</time>
      </trkpt>
      <trkpt lat="47.79652" lon="-2.71038">
        <ele>140.26</ele>
        <time>2018-01-12T11:21:12Z</time>
      </trkpt>
      <trkpt lat="47.79657" lon="-2.71022">
        <ele>140.31</ele>
        <time>2018-01-12T11:21:21Z</time>
      </trkpt>
      <trkpt lat="47.79664" lon="-2.71002">
        <ele>140.47</ele>
        <time>2018-01-12T11:21:33Z</time>
      </trkpt>
      <trkpt lat="47.79666" lon="-2.70994">
        <ele>140.65</ele>
        <time>2018-01-12T11:21:37Z</time>
      </trkpt>
      <trkpt lat="47.79676" lon="-2.70963">
        <ele>140.22</ele>
        <time>2018-01-12T11:21:51Z</time>
      </trkpt>
      <trkpt lat="47.79675" lon="-2.70939">
        <ele>139.76</ele>
        <time>2018-01-12T11:22:01Z</time>
      </trkpt>
      <trkpt lat="47.79684" lon="-2.7092">
        <ele>139.58</ele>
        <time>2018-01-12T11:22:12Z</time>
      </trkpt>
      <trkpt lat="47.79687" lon="-2.70912">
        <ele>139.51</ele>
        <time>2018-01-12T11:22:16Z</time>
      </trkpt>
      <trkpt lat="47.79694" lon="-2.70869">
        <ele>139.01</ele>
        <time>2018-01-12T11:22:33Z</time>
      </trkpt>
      <trkpt lat="47.79699" lon="-2.70842">
        <ele>138.72</ele>
        <time>2018-01-12T11:22:45Z</time>
      </trkpt>
      <trkpt lat="47.79692" lon="-2.70807">
        <ele>138.39</ele>
        <time>2018-01-12T11:23:00Z</time>
      </trkpt>
      <trkpt lat="47.79664" lon="-2.70801">
        <ele>138.95</ele>
        <time>2018-01-12T11:23:12Z</time>
      </trkpt>
      <trkpt lat="47.7963" lon="-2.708">
        <ele>140.38</ele>
        <time>2018-01-12T11:23:21Z</time>
      </trkpt>
      <trkpt lat="47.79618" lon="-2.70799">
        <ele>141.11</ele>
        <time>2018-01-12T11:23:24Z</time>
      </trkpt>
      <trkpt lat="47.79601" lon="-2.708">
        <ele>141.65</ele>
        <time>2018-01-12T11:23:28Z</time>
      </trkpt>
      <trkpt lat="47.79552" lon="-2.708">
        <ele>142.83</ele>
        <time>2018-01-12T11:23:39Z</time>
      </trkpt>
      <trkpt lat="47.7951" lon="-2.70798">
        <ele>142.91</ele>
        <time>2018-01-12T11:23:51Z</time>
      </trkpt>
      <trkpt lat="47.79499" lon="-2.70798">
        <ele>143.06</ele>
        <time>2018-01-12T11:23:55Z</time>
      </trkpt>
      <trkpt lat="47.79495" lon="-2.70795">
        <ele>143.13</ele>
        <time>2018-01-12T11:23:59Z</time>
      </trkpt>
      <trkpt lat="47.79484" lon="-2.70752">
        <ele>143.36</ele>
        <time>2018-01-12T11:24:10Z</time>
      </trkpt>
      <trkpt lat="47.79478" lon="-2.70694">
        <ele>144.38</ele>
        <time>2018-01-12T11:24:21Z</time>
      </trkpt>
      <trkpt lat="47.79464" lon="-2.70676">
        <ele>144.42</ele>
        <time>2018-01-12T11:24:26Z</time>
      </trkpt>
      <trkpt lat="47.79429" lon="-2.70643">
        <ele>144.96</ele>
        <time>2018-01-12T11:24:35Z</time>
      </trkpt>
      <trkpt lat="47.79424" lon="-2.70641">
        <ele>145.07</ele>
        <time>2018-01-12T11:24:36Z</time>
      </trkpt>
      <trkpt lat="47.7942" lon="-2.70639">
        <ele>145.19</ele>
        <time>2018-01-12T11:24:37Z</time>
      </trkpt>
      <trkpt lat="47.79415" lon="-2.70639">
        <ele>145.27</ele>
        <time>2018-01-12T11:24:38Z</time>
      </trkpt>
      <trkpt lat="47.79411" lon="-2.70638">
        <ele>145.38</ele>
        <time>2018-01-12T11:24:39Z</time>
      </trkpt>
      <trkpt lat="47.79407" lon="-2.70637">
        <ele>145.48</ele>
        <time>2018-01-12T11:24:40Z</time>
      </trkpt>
      <trkpt lat="47.79402" lon="-2.70636">
        <ele>145.66</ele>
        <time>2018-01-12T11:24:41Z</time>
      </trkpt>
      <trkpt lat="47.79382" lon="-2.70635">
        <ele>145.96</ele>
        <time>2018-01-12T11:24:45Z</time>
      </trkpt>
      <trkpt lat="47.79366" lon="-2.70632">
        <ele>146.16</ele>
        <time>2018-01-12T11:24:48Z</time>
      </trkpt>
      <trkpt lat="47.79323" lon="-2.70621">
        <ele>147.06</ele>
        <time>2018-01-12T11:24:59Z</time>
      </trkpt>
      <trkpt lat="47.79295" lon="-2.70591">
        <ele>147.17</ele>
        <time>2018-01-12T11:25:06Z</time>
      </trkpt>
      <trkpt lat="47.79291" lon="-2.70587">
        <ele>147.16</ele>
        <time>2018-01-12T11:25:07Z</time>
      </trkpt>
      <trkpt lat="47.79255" lon="-2.70547">
        <ele>147.38</ele>
        <time>2018-01-12T11:25:19Z</time>
      </trkpt>
      <trkpt lat="47.79244" lon="-2.70535">
        <ele>147.51</ele>
        <time>2018-01-12T11:25:27Z</time>
      </trkpt>
      <trkpt lat="47.79239" lon="-2.70529">
        <ele>147.91</ele>
        <time>2018-01-12T11:25:43Z</time>
      </trkpt>
      <trkpt lat="47.79237" lon="-2.7052">
        <ele>148.04</ele>
        <time>2018-01-12T11:25:55Z</time>
      </trkpt>
      <trkpt lat="47.79238" lon="-2.70518">
        <ele>148</ele>
        <time>2018-01-12T11:25:56Z</time>
      </trkpt>
      <trkpt lat="47.79239" lon="-2.70517">
        <ele>147.98</ele>
        <time>2018-01-12T11:25:57Z</time>
      </trkpt>
      <trkpt lat="47.7924" lon="-2.70512">
        <ele>147.94</ele>
        <time>2018-01-12T11:26:04Z</time>
      </trkpt>
      <trkpt lat="47.79253" lon="-2.7049">
        <ele>147.69</ele>
        <time>2018-01-12T11:26:16Z</time>
      </trkpt>
      <trkpt lat="47.79269" lon="-2.70483">
        <ele>147.15</ele>
        <time>2018-01-12T11:26:28Z</time>
      </trkpt>
      <trkpt lat="47.79304" lon="-2.70485">
        <ele>146.9</ele>
        <time>2018-01-12T11:26:38Z</time>
      </trkpt>
      <trkpt lat="47.7936" lon="-2.70485">
        <ele>146.14</ele>
        <time>2018-01-12T11:26:52Z</time>
      </trkpt>
      <trkpt lat="47.79382" lon="-2.70483">
        <ele>145.8</ele>
        <time>2018-01-12T11:26:59Z</time>
      </trkpt>
      <trkpt lat="47.79408" lon="-2.70469">
        <ele>145.41</ele>
        <time>2018-01-12T11:27:07Z</time>
      </trkpt>
      <trkpt lat="47.79416" lon="-2.70467">
        <ele>145.26</ele>
        <time>2018-01-12T11:27:09Z</time>
      </trkpt>
      <trkpt lat="47.79441" lon="-2.70461">
        <ele>144.48</ele>
        <time>2018-01-12T11:27:15Z</time>
      </trkpt>
      <trkpt lat="47.79488" lon="-2.7043">
        <ele>142.28</ele>
        <time>2018-01-12T11:27:27Z</time>
      </trkpt>
      <trkpt lat="47.79517" lon="-2.70417">
        <ele>140.96</ele>
        <time>2018-01-12T11:27:36Z</time>
      </trkpt>
      <trkpt lat="47.79551" lon="-2.70408">
        <ele>139.82</ele>
        <time>2018-01-12T11:27:45Z</time>
      </trkpt>
      <trkpt lat="47.79569" lon="-2.7042">
        <ele>138.37</ele>
        <time>2018-01-12T11:27:53Z</time>
      </trkpt>
      <trkpt lat="47.79578" lon="-2.70425">
        <ele>137.48</ele>
        <time>2018-01-12T11:28:07Z</time>
      </trkpt>
      <trkpt lat="47.7958" lon="-2.70425">
        <ele>137.45</ele>
        <time>2018-01-12T11:28:10Z</time>
      </trkpt>
      <trkpt lat="47.79613" lon="-2.70427">
        <ele>136.69</ele>
        <time>2018-01-12T11:28:22Z</time>
      </trkpt>
      <trkpt lat="47.79644" lon="-2.70417">
        <ele>135.27</ele>
        <time>2018-01-12T11:28:33Z</time>
      </trkpt>
      <trkpt lat="47.79674" lon="-2.70402">
        <ele>133.55</ele>
        <time>2018-01-12T11:28:43Z</time>
      </trkpt>
      <trkpt lat="47.7968" lon="-2.70402">
        <ele>133.27</ele>
        <time>2018-01-12T11:28:45Z</time>
      </trkpt>
      <trkpt lat="47.7969" lon="-2.70354">
        <ele>131.99</ele>
        <time>2018-01-12T11:28:55Z</time>
      </trkpt>
      <trkpt lat="47.79694" lon="-2.70278">
        <ele>131.63</ele>
        <time>2018-01-12T11:29:08Z</time>
      </trkpt>
      <trkpt lat="47.7969" lon="-2.70224">
        <ele>130.91</ele>
        <time>2018-01-12T11:29:18Z</time>
      </trkpt>
      <trkpt lat="47.79688" lon="-2.70173">
        <ele>130.18</ele>
        <time>2018-01-12T11:29:28Z</time>
      </trkpt>
      <trkpt lat="47.79696" lon="-2.70121">
        <ele>128.71</ele>
        <time>2018-01-12T11:29:38Z</time>
      </trkpt>
      <trkpt lat="47.79699" lon="-2.70074">
        <ele>127.14</ele>
        <time>2018-01-12T11:29:48Z</time>
      </trkpt>
      <trkpt lat="47.79699" lon="-2.7007">
        <ele>126.99</ele>
        <time>2018-01-12T11:29:49Z</time>
      </trkpt>
      <trkpt lat="47.79708" lon="-2.7003">
        <ele>125.46</ele>
        <time>2018-01-12T11:29:58Z</time>
      </trkpt>
      <trkpt lat="47.79712" lon="-2.69984">
        <ele>122.76</ele>
        <time>2018-01-12T11:30:10Z</time>
      </trkpt>
      <trkpt lat="47.79713" lon="-2.69971">
        <ele>121.92</ele>
        <time>2018-01-12T11:30:13Z</time>
      </trkpt>
      <trkpt lat="47.79708" lon="-2.69937">
        <ele>120.31</ele>
        <time>2018-01-12T11:30:19Z</time>
      </trkpt>
      <trkpt lat="47.7968" lon="-2.69916">
        <ele>119.63</ele>
        <time>2018-01-12T11:30:27Z</time>
      </trkpt>
      <trkpt lat="47.79634" lon="-2.69906">
        <ele>120.68</ele>
        <time>2018-01-12T11:30:39Z</time>
      </trkpt>
      <trkpt lat="47.79595" lon="-2.69898">
        <ele>122.53</ele>
        <time>2018-01-12T11:30:51Z</time>
      </trkpt>
      <trkpt lat="47.79595" lon="-2.69897">
        <ele>122.67</ele>
        <time>2018-01-12T11:30:52Z</time>
      </trkpt>
      <trkpt lat="47.79596" lon="-2.69863">
        <ele>123.01</ele>
        <time>2018-01-12T11:31:02Z</time>
      </trkpt>
      <trkpt lat="47.79571" lon="-2.69808">
        <ele>121.28</ele>
        <time>2018-01-12T11:31:14Z</time>
      </trkpt>
      <trkpt lat="47.79543" lon="-2.6978">
        <ele>120.26</ele>
        <time>2018-01-12T11:31:24Z</time>
      </trkpt>
      <trkpt lat="47.79527" lon="-2.69766">
        <ele>120.36</ele>
        <time>2018-01-12T11:31:29Z</time>
      </trkpt>
      <trkpt lat="47.79527" lon="-2.69706">
        <ele>120.63</ele>
        <time>2018-01-12T11:31:38Z</time>
      </trkpt>
      <trkpt lat="47.79527" lon="-2.69699">
        <ele>120.66</ele>
        <time>2018-01-12T11:31:39Z</time>
      </trkpt>
      <trkpt lat="47.79538" lon="-2.69653">
        <ele>119.78</ele>
        <time>2018-01-12T11:31:48Z</time>
      </trkpt>
      <trkpt lat="47.79563" lon="-2.69595">
        <ele>117.97</ele>
        <time>2018-01-12T11:32:01Z</time>
      </trkpt>
      <trkpt lat="47.79593" lon="-2.69595">
        <ele>115.57</ele>
        <time>2018-01-12T11:32:10Z</time>
      </trkpt>
      <trkpt lat="47.796" lon="-2.69589">
        <ele>115.09</ele>
        <time>2018-01-12T11:32:12Z</time>
      </trkpt>
      <trkpt lat="47.79619" lon="-2.69544">
        <ele>112.77</ele>
        <time>2018-01-12T11:32:23Z</time>
      </trkpt>
      <trkpt lat="47.79625" lon="-2.69532">
        <ele>111.02</ele>
        <time>2018-01-12T11:32:37Z</time>
      </trkpt>
      <trkpt lat="47.7963" lon="-2.69514">
        <ele>111.05</ele>
        <time>2018-01-12T11:32:57Z</time>
      </trkpt>
      <trkpt lat="47.79612" lon="-2.69497">
        <ele>110.52</ele>
        <time>2018-01-12T11:33:12Z</time>
      </trkpt>
      <trkpt lat="47.79604" lon="-2.69491">
        <ele>110.67</ele>
        <time>2018-01-12T11:33:17Z</time>
      </trkpt>
      <trkpt lat="47.79595" lon="-2.69486">
        <ele>110.95</ele>
        <time>2018-01-12T11:33:25Z</time>
      </trkpt>
      <trkpt lat="47.79589" lon="-2.69487">
        <ele>111.13</ele>
        <time>2018-01-12T11:33:29Z</time>
      </trkpt>
      <trkpt lat="47.79583" lon="-2.69484">
        <ele>111.52</ele>
        <time>2018-01-12T11:33:33Z</time>
      </trkpt>
      <trkpt lat="47.7957" lon="-2.69485">
        <ele>111.83</ele>
        <time>2018-01-12T11:33:43Z</time>
      </trkpt>
      <trkpt lat="47.79552" lon="-2.6948">
        <ele>112.71</ele>
        <time>2018-01-12T11:33:58Z</time>
      </trkpt>
      <trkpt lat="47.79541" lon="-2.69474">
        <ele>112.48</ele>
        <time>2018-01-12T11:34:11Z</time>
      </trkpt>
      <trkpt lat="47.79538" lon="-2.6946">
        <ele>112.43</ele>
        <time>2018-01-12T11:34:27Z</time>
      </trkpt>
      <trkpt lat="47.79539" lon="-2.69438">
        <ele>114.26</ele>
        <time>2018-01-12T11:34:44Z</time>
      </trkpt>
      <trkpt lat="47.79535" lon="-2.69421">
        <ele>117.32</ele>
        <time>2018-01-12T11:34:57Z</time>
      </trkpt>
      <trkpt lat="47.7953" lon="-2.69401">
        <ele>118.83</ele>
        <time>2018-01-12T11:35:07Z</time>
      </trkpt>
      <trkpt lat="47.79525" lon="-2.69375">
        <ele>119.74</ele>
        <time>2018-01-12T11:35:21Z</time>
      </trkpt>
      <trkpt lat="47.79519" lon="-2.69344">
        <ele>119.8</ele>
        <time>2018-01-12T11:35:39Z</time>
      </trkpt>
      <trkpt lat="47.79513" lon="-2.69312">
        <ele>119.76</ele>
        <time>2018-01-12T11:35:55Z</time>
      </trkpt>
      <trkpt lat="47.79507" lon="-2.69295">
        <ele>119.83</ele>
        <time>2018-01-12T11:36:04Z</time>
      </trkpt>
      <trkpt lat="47.79502" lon="-2.69284">
        <ele>120.16</ele>
        <time>2018-01-12T11:36:10Z</time>
      </trkpt>
      <trkpt lat="47.79503" lon="-2.6927">
        <ele>120.21</ele>
        <time>2018-01-12T11:36:17Z</time>
      </trkpt>
      <trkpt lat="47.79502" lon="-2.6925">
        <ele>120.11</ele>
        <time>2018-01-12T11:36:24Z</time>
      </trkpt>
      <trkpt lat="47.79492" lon="-2.69208">
        <ele>119.61</ele>
        <time>2018-01-12T11:36:41Z</time>
      </trkpt>
      <trkpt lat="47.79486" lon="-2.69177">
        <ele>119.71</ele>
        <time>2018-01-12T11:36:55Z</time>
      </trkpt>
      <trkpt lat="47.79479" lon="-2.69146">
        <ele>119.48</ele>
        <time>2018-01-12T11:37:10Z</time>
      </trkpt>
      <trkpt lat="47.79471" lon="-2.69117">
        <ele>119.03</ele>
        <time>2018-01-12T11:37:24Z</time>
      </trkpt>
      <trkpt lat="47.79465" lon="-2.69088">
        <ele>118.85</ele>
        <time>2018-01-12T11:37:37Z</time>
      </trkpt>
      <trkpt lat="47.79463" lon="-2.6908">
        <ele>119.05</ele>
        <time>2018-01-12T11:37:41Z</time>
      </trkpt>
      <trkpt lat="47.79457" lon="-2.69067">
        <ele>119.7</ele>
        <time>2018-01-12T11:37:48Z</time>
      </trkpt>
      <trkpt lat="47.79453" lon="-2.69064">
        <ele>120.09</ele>
        <time>2018-01-12T11:37:52Z</time>
      </trkpt>
      <trkpt lat="47.79434" lon="-2.6906">
        <ele>121.67</ele>
        <time>2018-01-12T11:38:07Z</time>
      </trkpt>
      <trkpt lat="47.7941" lon="-2.69059">
        <ele>123.37</ele>
        <time>2018-01-12T11:38:23Z</time>
      </trkpt>
      <trkpt lat="47.79404" lon="-2.69051">
        <ele>123.63</ele>
        <time>2018-01-12T11:38:28Z</time>
      </trkpt>
      <trkpt lat="47.79329" lon="-2.69058">
        <ele>126.99609375</ele>
      </trkpt>
      <trkpt lat="47.79253" lon="-2.6911">
        <ele>130.1484375</ele>
      </trkpt>
      <trkpt lat="47.79147" lon="-2.69154">
        <ele>134.89453125</ele>
      </trkpt>
      <trkpt lat="47.79085" lon="-2.69167">
        <ele>134.93359375</ele>
      </trkpt>
      <trkpt lat="47.78997" lon="-2.69177">
        <ele>132.71484375</ele>
      </trkpt>
      <trkpt lat="47.7892" lon="-2.69186">
        <ele>129.52734375</ele>
      </trkpt>
      <trkpt lat="47.789" lon="-2.692">
        <ele>128.70703125</ele>
      </trkpt>
      <trkpt lat="47.78863" lon="-2.69246">
        <ele>127.3046875</ele>
      </trkpt>
      <trkpt lat="47.78785" lon="-2.69279">
        <ele>126.4609375</ele>
      </trkpt>
      <trkpt lat="47.78686" lon="-2.69309">
        <ele>124.671875</ele>
      </trkpt>
      <trkpt lat="47.78581" lon="-2.6931">
        <ele>124.53125</ele>
      </trkpt>
      <trkpt lat="47.78463" lon="-2.6935">
        <ele>124.77734375</ele>
      </trkpt>
      <trkpt lat="47.78398" lon="-2.69376">
        <ele>123.58203125</ele>
      </trkpt>
      <trkpt lat="47.7834" lon="-2.69411">
        <ele>123.03515625</ele>
      </trkpt>
      <trkpt lat="47.78275" lon="-2.69394">
        <ele>122.109375</ele>
      </trkpt>
      <trkpt lat="47.78201" lon="-2.69372">
        <ele>120.96875</ele>
      </trkpt>
      <trkpt lat="47.78155" lon="-2.69366">
        <ele>120.26171875</ele>
      </trkpt>
      <trkpt lat="47.78099" lon="-2.69364">
        <ele>118.7578125</ele>
      </trkpt>
      <trkpt lat="47.78033" lon="-2.69353">
        <ele>116.60546875</ele>
      </trkpt>
      <trkpt lat="47.77986" lon="-2.69331">
        <ele>114.9609375</ele>
      </trkpt>
      <trkpt lat="47.77955" lon="-2.69311">
        <ele>113.2421875</ele>
      </trkpt>
      <trkpt lat="47.77924" lon="-2.69286">
        <ele>112.03515625</ele>
      </trkpt>
      <trkpt lat="47.77982" lon="-2.69334">
        <ele>138.68</ele>
        <time>2018-01-12T13:32:01Z</time>
      </trkpt>
      <trkpt lat="47.78004" lon="-2.69351">
        <ele>139.9</ele>
        <time>2018-01-12T13:32:17Z</time>
      </trkpt>
      <trkpt lat="47.78027" lon="-2.69369">
        <ele>141.11</ele>
        <time>2018-01-12T13:32:37Z</time>
      </trkpt>
      <trkpt lat="47.78043" lon="-2.69367">
        <ele>142.05</ele>
        <time>2018-01-12T13:32:51Z</time>
      </trkpt>
      <trkpt lat="47.78063" lon="-2.69369">
        <ele>142.76</ele>
        <time>2018-01-12T13:33:07Z</time>
      </trkpt>
      <trkpt lat="47.78083" lon="-2.69369">
        <ele>143.17</ele>
        <time>2018-01-12T13:33:21Z</time>
      </trkpt>
      <trkpt lat="47.78101" lon="-2.6937">
        <ele>143.47</ele>
        <time>2018-01-12T13:33:34Z</time>
      </trkpt>
      <trkpt lat="47.7812" lon="-2.69369">
        <ele>144.28</ele>
        <time>2018-01-12T13:33:48Z</time>
      </trkpt>
      <trkpt lat="47.78127" lon="-2.69369">
        <ele>144.79</ele>
        <time>2018-01-12T13:33:54Z</time>
      </trkpt>
      <trkpt lat="47.78134" lon="-2.69369">
        <ele>145.23</ele>
        <time>2018-01-12T13:34:00Z</time>
      </trkpt>
      <trkpt lat="47.78144" lon="-2.6937">
        <ele>145.92</ele>
        <time>2018-01-12T13:34:08Z</time>
      </trkpt>
      <trkpt lat="47.78152" lon="-2.69368">
        <ele>146.5</ele>
        <time>2018-01-12T13:34:14Z</time>
      </trkpt>
      <trkpt lat="47.78176" lon="-2.69378">
        <ele>147.77</ele>
        <time>2018-01-12T13:34:31Z</time>
      </trkpt>
      <trkpt lat="47.78206" lon="-2.69393">
        <ele>148.76</ele>
        <time>2018-01-12T13:34:55Z</time>
      </trkpt>
      <trkpt lat="47.78226" lon="-2.69404">
        <ele>148.42</ele>
        <time>2018-01-12T13:35:12Z</time>
      </trkpt>
      <trkpt lat="47.78247" lon="-2.69414">
        <ele>148.45</ele>
        <time>2018-01-12T13:35:29Z</time>
      </trkpt>
      <trkpt lat="47.78269" lon="-2.69419">
        <ele>148.32</ele>
        <time>2018-01-12T13:35:45Z</time>
      </trkpt>
      <trkpt lat="47.78291" lon="-2.69412">
        <ele>148.16</ele>
        <time>2018-01-12T13:36:02Z</time>
      </trkpt>
      <trkpt lat="47.78294" lon="-2.69394">
        <ele>147.04</ele>
        <time>2018-01-12T13:36:16Z</time>
      </trkpt>
      <trkpt lat="47.78294" lon="-2.69393">
        <ele>146.41</ele>
        <time>2018-01-12T13:36:24Z</time>
      </trkpt>
      <trkpt lat="47.78293" lon="-2.69386">
        <ele>146.47</ele>
        <time>2018-01-12T13:36:28Z</time>
      </trkpt>
      <trkpt lat="47.78292" lon="-2.69343">
        <ele>144.96</ele>
        <time>2018-01-12T13:36:47Z</time>
      </trkpt>
      <trkpt lat="47.78291" lon="-2.69294">
        <ele>142.62</ele>
        <time>2018-01-12T13:37:09Z</time>
      </trkpt>
      <trkpt lat="47.7829" lon="-2.6926">
        <ele>140.38</ele>
        <time>2018-01-12T13:37:25Z</time>
      </trkpt>
      <trkpt lat="47.78291" lon="-2.69223">
        <ele>138.55</ele>
        <time>2018-01-12T13:37:42Z</time>
      </trkpt>
      <trkpt lat="47.78295" lon="-2.69193">
        <ele>137.69</ele>
        <time>2018-01-12T13:37:57Z</time>
      </trkpt>
      <trkpt lat="47.78305" lon="-2.69165">
        <ele>137.42</ele>
        <time>2018-01-12T13:38:12Z</time>
      </trkpt>
      <trkpt lat="47.7832" lon="-2.69126">
        <ele>137.13</ele>
        <time>2018-01-12T13:38:34Z</time>
      </trkpt>
      <trkpt lat="47.78336" lon="-2.69084">
        <ele>136.05</ele>
        <time>2018-01-12T13:38:57Z</time>
      </trkpt>
      <trkpt lat="47.78349" lon="-2.6905">
        <ele>134.85</ele>
        <time>2018-01-12T13:39:15Z</time>
      </trkpt>
      <trkpt lat="47.78361" lon="-2.69019">
        <ele>133.67</ele>
        <time>2018-01-12T13:39:32Z</time>
      </trkpt>
      <trkpt lat="47.78374" lon="-2.68988">
        <ele>131.94</ele>
        <time>2018-01-12T13:39:49Z</time>
      </trkpt>
      <trkpt lat="47.78383" lon="-2.68961">
        <ele>131.42</ele>
        <time>2018-01-12T13:40:03Z</time>
      </trkpt>
      <trkpt lat="47.78393" lon="-2.68933">
        <ele>131.43</ele>
        <time>2018-01-12T13:40:19Z</time>
      </trkpt>
      <trkpt lat="47.78405" lon="-2.689">
        <ele>132.85</ele>
        <time>2018-01-12T13:40:38Z</time>
      </trkpt>
      <trkpt lat="47.78414" lon="-2.68891">
        <ele>134.43</ele>
        <time>2018-01-12T13:40:53Z</time>
      </trkpt>
      <trkpt lat="47.78415" lon="-2.68889">
        <ele>134.64</ele>
        <time>2018-01-12T13:41:36Z</time>
      </trkpt>
      <trkpt lat="47.78414" lon="-2.68881">
        <ele>135</ele>
        <time>2018-01-12T13:41:49Z</time>
      </trkpt>
      <trkpt lat="47.78415" lon="-2.68887">
        <ele>135.16</ele>
        <time>2018-01-12T13:42:04Z</time>
      </trkpt>
      <trkpt lat="47.78418" lon="-2.68879">
        <ele>135.45</ele>
        <time>2018-01-12T13:42:12Z</time>
      </trkpt>
      <trkpt lat="47.78423" lon="-2.68871">
        <ele>135.69</ele>
        <time>2018-01-12T13:42:17Z</time>
      </trkpt>
      <trkpt lat="47.7844" lon="-2.68845">
        <ele>137.62</ele>
        <time>2018-01-12T13:42:32Z</time>
      </trkpt>
      <trkpt lat="47.78458" lon="-2.68817">
        <ele>139.22</ele>
        <time>2018-01-12T13:42:49Z</time>
      </trkpt>
      <trkpt lat="47.78474" lon="-2.68791">
        <ele>140.68</ele>
        <time>2018-01-12T13:43:05Z</time>
      </trkpt>
      <trkpt lat="47.78491" lon="-2.68762">
        <ele>142.08</ele>
        <time>2018-01-12T13:43:21Z</time>
      </trkpt>
      <trkpt lat="47.7851" lon="-2.68735">
        <ele>143.63</ele>
        <time>2018-01-12T13:43:37Z</time>
      </trkpt>
      <trkpt lat="47.78525" lon="-2.68713">
        <ele>144.91</ele>
        <time>2018-01-12T13:43:50Z</time>
      </trkpt>
      <trkpt lat="47.78546" lon="-2.68684">
        <ele>147.07</ele>
        <time>2018-01-12T13:44:08Z</time>
      </trkpt>
      <trkpt lat="47.78566" lon="-2.68652">
        <ele>148.95</ele>
        <time>2018-01-12T13:44:26Z</time>
      </trkpt>
      <trkpt lat="47.78582" lon="-2.68626">
        <ele>150.43</ele>
        <time>2018-01-12T13:44:41Z</time>
      </trkpt>
      <trkpt lat="47.78586" lon="-2.68621">
        <ele>150.63</ele>
        <time>2018-01-12T13:44:44Z</time>
      </trkpt>
      <trkpt lat="47.7859" lon="-2.68618">
        <ele>151.68</ele>
        <time>2018-01-12T13:45:02Z</time>
      </trkpt>
      <trkpt lat="47.78589" lon="-2.68619">
        <ele>151.85</ele>
        <time>2018-01-12T13:45:27Z</time>
      </trkpt>
      <trkpt lat="47.7859" lon="-2.68619">
        <ele>151.66</ele>
        <time>2018-01-12T13:45:46Z</time>
      </trkpt>
      <trkpt lat="47.78587" lon="-2.68624">
        <ele>151.68</ele>
        <time>2018-01-12T13:45:50Z</time>
      </trkpt>
      <trkpt lat="47.78582" lon="-2.6863">
        <ele>151.32</ele>
        <time>2018-01-12T13:46:07Z</time>
      </trkpt>
      <trkpt lat="47.78581" lon="-2.6863">
        <ele>151.17</ele>
        <time>2018-01-12T13:46:39Z</time>
      </trkpt>
      <trkpt lat="47.7858" lon="-2.68631">
        <ele>151.11</ele>
        <time>2018-01-12T13:47:13Z</time>
      </trkpt>
      <trkpt lat="47.78578" lon="-2.6863">
        <ele>151.04</ele>
        <time>2018-01-12T13:47:36Z</time>
      </trkpt>
      <trkpt lat="47.7858" lon="-2.68625">
        <ele>150.64</ele>
        <time>2018-01-12T13:48:08Z</time>
      </trkpt>
      <trkpt lat="47.7858" lon="-2.68626">
        <ele>150.58</ele>
        <time>2018-01-12T13:48:33Z</time>
      </trkpt>
      <trkpt lat="47.78578" lon="-2.68628">
        <ele>150.46</ele>
        <time>2018-01-12T13:49:04Z</time>
      </trkpt>
      <trkpt lat="47.7858" lon="-2.68632">
        <ele>150.56</ele>
        <time>2018-01-12T13:49:20Z</time>
      </trkpt>
      <trkpt lat="47.78584" lon="-2.68627">
        <ele>151.02</ele>
        <time>2018-01-12T13:49:36Z</time>
      </trkpt>
      <trkpt lat="47.78587" lon="-2.68624">
        <ele>151.02</ele>
        <time>2018-01-12T13:49:52Z</time>
      </trkpt>
      <trkpt lat="47.78588" lon="-2.6862">
        <ele>150.98</ele>
        <time>2018-01-12T13:50:21Z</time>
      </trkpt>
      <trkpt lat="47.78587" lon="-2.68616">
        <ele>151.09</ele>
        <time>2018-01-12T13:50:45Z</time>
      </trkpt>
      <trkpt lat="47.78587" lon="-2.68614">
        <ele>150.76</ele>
        <time>2018-01-12T13:51:20Z</time>
      </trkpt>
      <trkpt lat="47.78586" lon="-2.6861">
        <ele>151.03</ele>
        <time>2018-01-12T13:51:49Z</time>
      </trkpt>
      <trkpt lat="47.78586" lon="-2.68609">
        <ele>151.13</ele>
        <time>2018-01-12T13:52:23Z</time>
      </trkpt>
      <trkpt lat="47.78587" lon="-2.68609">
        <ele>151.31</ele>
        <time>2018-01-12T13:52:47Z</time>
      </trkpt>
      <trkpt lat="47.78586" lon="-2.6861">
        <ele>151.19</ele>
        <time>2018-01-12T13:53:15Z</time>
      </trkpt>
      <trkpt lat="47.78588" lon="-2.68611">
        <ele>151.12</ele>
        <time>2018-01-12T13:53:48Z</time>
      </trkpt>
      <trkpt lat="47.78593" lon="-2.68611">
        <ele>151.73</ele>
        <time>2018-01-12T13:54:03Z</time>
      </trkpt>
      <trkpt lat="47.78596" lon="-2.68607">
        <ele>152.04</ele>
        <time>2018-01-12T13:54:22Z</time>
      </trkpt>
      <trkpt lat="47.78596" lon="-2.68611">
        <ele>152.15</ele>
        <time>2018-01-12T13:54:48Z</time>
      </trkpt>
      <trkpt lat="47.78595" lon="-2.68607">
        <ele>152.14</ele>
        <time>2018-01-12T13:55:20Z</time>
      </trkpt>
      <trkpt lat="47.78592" lon="-2.68601">
        <ele>152.25</ele>
        <time>2018-01-12T13:55:50Z</time>
      </trkpt>
      <trkpt lat="47.78594" lon="-2.68603">
        <ele>151.53</ele>
        <time>2018-01-12T13:56:14Z</time>
      </trkpt>
      <trkpt lat="47.78598" lon="-2.68598">
        <ele>151.69</ele>
        <time>2018-01-12T13:56:41Z</time>
      </trkpt>
      <trkpt lat="47.78601" lon="-2.68595">
        <ele>151.84</ele>
        <time>2018-01-12T13:56:57Z</time>
      </trkpt>
      <trkpt lat="47.78601" lon="-2.68597">
        <ele>152.45</ele>
        <time>2018-01-12T13:57:20Z</time>
      </trkpt>
      <trkpt lat="47.786" lon="-2.68599">
        <ele>152.64</ele>
        <time>2018-01-12T13:57:42Z</time>
      </trkpt>
      <trkpt lat="47.78601" lon="-2.686">
        <ele>152.68</ele>
        <time>2018-01-12T13:58:03Z</time>
      </trkpt>
      <trkpt lat="47.78602" lon="-2.68598">
        <ele>152.5</ele>
        <time>2018-01-12T13:58:26Z</time>
      </trkpt>
      <trkpt lat="47.78602" lon="-2.68598">
        <ele>152.45</ele>
        <time>2018-01-12T13:58:45Z</time>
      </trkpt>
      <trkpt lat="47.78601" lon="-2.68598">
        <ele>152.88</ele>
        <time>2018-01-12T13:59:11Z</time>
      </trkpt>
      <trkpt lat="47.78605" lon="-2.6859">
        <ele>153.23</ele>
        <time>2018-01-12T13:59:30Z</time>
      </trkpt>
      <trkpt lat="47.78606" lon="-2.68588">
        <ele>153.29</ele>
        <time>2018-01-12T13:59:31Z</time>
      </trkpt>
      <trkpt lat="47.78607" lon="-2.68585">
        <ele>153.35</ele>
        <time>2018-01-12T13:59:32Z</time>
      </trkpt>
      <trkpt lat="47.78608" lon="-2.68584">
        <ele>153.41</ele>
        <time>2018-01-12T13:59:33Z</time>
      </trkpt>
      <trkpt lat="47.78609" lon="-2.68582">
        <ele>153.47</ele>
        <time>2018-01-12T13:59:34Z</time>
      </trkpt>
      <trkpt lat="47.7861" lon="-2.6858">
        <ele>153.52</ele>
        <time>2018-01-12T13:59:35Z</time>
      </trkpt>
      <trkpt lat="47.78617" lon="-2.68565">
        <ele>154.19</ele>
        <time>2018-01-12T13:59:44Z</time>
      </trkpt>
      <trkpt lat="47.78619" lon="-2.68559">
        <ele>154.41</ele>
        <time>2018-01-12T13:59:48Z</time>
      </trkpt>
      <trkpt lat="47.78634" lon="-2.68532">
        <ele>155.23</ele>
        <time>2018-01-12T13:59:58Z</time>
      </trkpt>
      <trkpt lat="47.78651" lon="-2.68507">
        <ele>156.11</ele>
        <time>2018-01-12T14:00:05Z</time>
      </trkpt>
      <trkpt lat="47.78667" lon="-2.68482">
        <ele>157.09</ele>
        <time>2018-01-12T14:00:12Z</time>
      </trkpt>
      <trkpt lat="47.7867" lon="-2.68476">
        <ele>157.28</ele>
        <time>2018-01-12T14:00:14Z</time>
      </trkpt>
      <trkpt lat="47.78673" lon="-2.68473">
        <ele>157.36</ele>
        <time>2018-01-12T14:00:15Z</time>
      </trkpt>
      <trkpt lat="47.78685" lon="-2.6845">
        <ele>158.43</ele>
        <time>2018-01-12T14:00:22Z</time>
      </trkpt>
      <trkpt lat="47.78686" lon="-2.68445">
        <ele>158.55</ele>
        <time>2018-01-12T14:00:23Z</time>
      </trkpt>
      <trkpt lat="47.78688" lon="-2.68442">
        <ele>158.67</ele>
        <time>2018-01-12T14:00:24Z</time>
      </trkpt>
      <trkpt lat="47.78713" lon="-2.68386">
        <ele>159.62</ele>
        <time>2018-01-12T14:00:35Z</time>
      </trkpt>
      <trkpt lat="47.78738" lon="-2.68323">
        <ele>160.2</ele>
        <time>2018-01-12T14:00:45Z</time>
      </trkpt>
      <trkpt lat="47.78754" lon="-2.68281">
        <ele>161.13</ele>
        <time>2018-01-12T14:00:55Z</time>
      </trkpt>
      <trkpt lat="47.78763" lon="-2.68264">
        <ele>161.57</ele>
        <time>2018-01-12T14:01:09Z</time>
      </trkpt>
      <trkpt lat="47.78762" lon="-2.68264">
        <ele>161.51</ele>
        <time>2018-01-12T14:01:11Z</time>
      </trkpt>
      <trkpt lat="47.7876" lon="-2.68264">
        <ele>161.46</ele>
        <time>2018-01-12T14:01:12Z</time>
      </trkpt>
      <trkpt lat="47.78788" lon="-2.68236">
        <ele>131.83203125</ele>
      </trkpt>
      <trkpt lat="47.78852" lon="-2.68143">
        <ele>129.03125</ele>
      </trkpt>
      <trkpt lat="47.78876" lon="-2.68134">
        <ele>156.75</ele>
        <time>2018-01-12T14:03:22Z</time>
      </trkpt>
      <trkpt lat="47.78909" lon="-2.6814">
        <ele>156.72</ele>
        <time>2018-01-12T14:03:42Z</time>
      </trkpt>
      <trkpt lat="47.78937" lon="-2.68148">
        <ele>156.85</ele>
        <time>2018-01-12T14:03:59Z</time>
      </trkpt>
      <trkpt lat="47.78964" lon="-2.68149">
        <ele>156.63</ele>
        <time>2018-01-12T14:04:15Z</time>
      </trkpt>
      <trkpt lat="47.7899" lon="-2.68137">
        <ele>157.18</ele>
        <time>2018-01-12T14:04:32Z</time>
      </trkpt>
      <trkpt lat="47.79013" lon="-2.68118">
        <ele>157.25</ele>
        <time>2018-01-12T14:04:48Z</time>
      </trkpt>
      <trkpt lat="47.79039" lon="-2.68097">
        <ele>156.99</ele>
        <time>2018-01-12T14:05:05Z</time>
      </trkpt>
      <trkpt lat="47.79046" lon="-2.68091">
        <ele>157.17</ele>
        <time>2018-01-12T14:05:11Z</time>
      </trkpt>
      <trkpt lat="47.79055" lon="-2.68083">
        <ele>157.54</ele>
        <time>2018-01-12T14:05:18Z</time>
      </trkpt>
      <trkpt lat="47.79082" lon="-2.68061">
        <ele>157.97</ele>
        <time>2018-01-12T14:05:36Z</time>
      </trkpt>
      <trkpt lat="47.79102" lon="-2.68044">
        <ele>158.39</ele>
        <time>2018-01-12T14:05:50Z</time>
      </trkpt>
      <trkpt lat="47.79123" lon="-2.68024">
        <ele>158.97</ele>
        <time>2018-01-12T14:06:05Z</time>
      </trkpt>
      <trkpt lat="47.79145" lon="-2.68004">
        <ele>159.61</ele>
        <time>2018-01-12T14:06:20Z</time>
      </trkpt>
      <trkpt lat="47.7917" lon="-2.67983">
        <ele>160.46</ele>
        <time>2018-01-12T14:06:37Z</time>
      </trkpt>
      <trkpt lat="47.7919" lon="-2.67966">
        <ele>160.77</ele>
        <time>2018-01-12T14:06:52Z</time>
      </trkpt>
      <trkpt lat="47.79205" lon="-2.67941">
        <ele>161.16</ele>
        <time>2018-01-12T14:07:07Z</time>
      </trkpt>
      <trkpt lat="47.79205" lon="-2.67926">
        <ele>161.26</ele>
        <time>2018-01-12T14:07:13Z</time>
      </trkpt>
      <trkpt lat="47.79205" lon="-2.67918">
        <ele>161.29</ele>
        <time>2018-01-12T14:07:17Z</time>
      </trkpt>
      <trkpt lat="47.79209" lon="-2.67887">
        <ele>161.35</ele>
        <time>2018-01-12T14:07:32Z</time>
      </trkpt>
      <trkpt lat="47.79211" lon="-2.67856">
        <ele>161.46</ele>
        <time>2018-01-12T14:07:46Z</time>
      </trkpt>
      <trkpt lat="47.79211" lon="-2.6781">
        <ele>161.76</ele>
        <time>2018-01-12T14:08:02Z</time>
      </trkpt>
      <trkpt lat="47.79215" lon="-2.67765">
        <ele>162.23</ele>
        <time>2018-01-12T14:08:19Z</time>
      </trkpt>
      <trkpt lat="47.79219" lon="-2.67746">
        <ele>162.44</ele>
        <time>2018-01-12T14:08:30Z</time>
      </trkpt>
      <trkpt lat="47.79215" lon="-2.67728">
        <ele>162.46</ele>
        <time>2018-01-12T14:08:39Z</time>
      </trkpt>
      <trkpt lat="47.79214" lon="-2.67717">
        <ele>162.49</ele>
        <time>2018-01-12T14:08:43Z</time>
      </trkpt>
      <trkpt lat="47.79215" lon="-2.67704">
        <ele>162.67</ele>
        <time>2018-01-12T14:08:49Z</time>
      </trkpt>
      <trkpt lat="47.79219" lon="-2.67665">
        <ele>162.43</ele>
        <time>2018-01-12T14:09:03Z</time>
      </trkpt>
      <trkpt lat="47.79224" lon="-2.67619">
        <ele>161.79</ele>
        <time>2018-01-12T14:09:13Z</time>
      </trkpt>
      <trkpt lat="47.79225" lon="-2.67563">
        <ele>162.04</ele>
        <time>2018-01-12T14:09:25Z</time>
      </trkpt>
      <trkpt lat="47.79226" lon="-2.67498">
        <ele>163</ele>
        <time>2018-01-12T14:09:38Z</time>
      </trkpt>
      <trkpt lat="47.79227" lon="-2.67445">
        <ele>163</ele>
        <time>2018-01-12T14:09:49Z</time>
      </trkpt>
      <trkpt lat="47.79227" lon="-2.6739">
        <ele>162.6</ele>
        <time>2018-01-12T14:10:00Z</time>
      </trkpt>
      <trkpt lat="47.79227" lon="-2.67328">
        <ele>160.78</ele>
        <time>2018-01-12T14:10:12Z</time>
      </trkpt>
      <trkpt lat="47.79224" lon="-2.67266">
        <ele>159.24</ele>
        <time>2018-01-12T14:10:24Z</time>
      </trkpt>
      <trkpt lat="47.79221" lon="-2.67199">
        <ele>158.29</ele>
        <time>2018-01-12T14:10:37Z</time>
      </trkpt>
      <trkpt lat="47.79217" lon="-2.67149">
        <ele>157.29</ele>
        <time>2018-01-12T14:10:47Z</time>
      </trkpt>
      <trkpt lat="47.79215" lon="-2.67084">
        <ele>155.47</ele>
        <time>2018-01-12T14:10:59Z</time>
      </trkpt>
      <trkpt lat="47.79216" lon="-2.67012">
        <ele>152.99</ele>
        <time>2018-01-12T14:11:12Z</time>
      </trkpt>
      <trkpt lat="47.79217" lon="-2.66952">
        <ele>151.7</ele>
        <time>2018-01-12T14:11:23Z</time>
      </trkpt>
      <trkpt lat="47.79218" lon="-2.6688">
        <ele>150.9</ele>
        <time>2018-01-12T14:11:36Z</time>
      </trkpt>
      <trkpt lat="47.79217" lon="-2.66812">
        <ele>151.25</ele>
        <time>2018-01-12T14:11:48Z</time>
      </trkpt>
      <trkpt lat="47.79218" lon="-2.66794">
        <ele>151.87</ele>
        <time>2018-01-12T14:11:58Z</time>
      </trkpt>
      <trkpt lat="47.79219" lon="-2.66789">
        <ele>151.8</ele>
        <time>2018-01-12T14:12:11Z</time>
      </trkpt>
      <trkpt lat="47.79219" lon="-2.66787">
        <ele>151.84</ele>
        <time>2018-01-12T14:12:12Z</time>
      </trkpt>
      <trkpt lat="47.79218" lon="-2.66785">
        <ele>151.9</ele>
        <time>2018-01-12T14:12:13Z</time>
      </trkpt>
      <trkpt lat="47.79218" lon="-2.66782">
        <ele>151.95</ele>
        <time>2018-01-12T14:12:14Z</time>
      </trkpt>
      <trkpt lat="47.79217" lon="-2.6678">
        <ele>151.97</ele>
        <time>2018-01-12T14:12:15Z</time>
      </trkpt>
      <trkpt lat="47.79217" lon="-2.66777">
        <ele>152</ele>
        <time>2018-01-12T14:12:16Z</time>
      </trkpt>
      <trkpt lat="47.79217" lon="-2.66774">
        <ele>152.03</ele>
        <time>2018-01-12T14:12:17Z</time>
      </trkpt>
      <trkpt lat="47.79216" lon="-2.66769">
        <ele>152.06</ele>
        <time>2018-01-12T14:12:18Z</time>
      </trkpt>
      <trkpt lat="47.79214" lon="-2.66708">
        <ele>152.55</ele>
        <time>2018-01-12T14:12:30Z</time>
      </trkpt>
      <trkpt lat="47.79212" lon="-2.66681">
        <ele>153.13</ele>
        <time>2018-01-12T14:12:41Z</time>
      </trkpt>
      <trkpt lat="47.79214" lon="-2.66674">
        <ele>153.2</ele>
        <time>2018-01-12T14:12:54Z</time>
      </trkpt>
      <trkpt lat="47.79215" lon="-2.6667">
        <ele>153.63</ele>
        <time>2018-01-12T14:13:02Z</time>
      </trkpt>
      <trkpt lat="47.79215" lon="-2.66666">
        <ele>153.57</ele>
        <time>2018-01-12T14:13:04Z</time>
      </trkpt>
      <trkpt lat="47.79214" lon="-2.66665">
        <ele>153.48</ele>
        <time>2018-01-12T14:13:05Z</time>
      </trkpt>
      <trkpt lat="47.79211" lon="-2.66642">
        <ele>153.39</ele>
        <time>2018-01-12T14:13:17Z</time>
      </trkpt>
      <trkpt lat="47.79213" lon="-2.66638">
        <ele>153.45</ele>
        <time>2018-01-12T14:13:21Z</time>
      </trkpt>
      <trkpt lat="47.79215" lon="-2.66638">
        <ele>153.42</ele>
        <time>2018-01-12T14:13:22Z</time>
      </trkpt>
      <trkpt lat="47.79217" lon="-2.66638">
        <ele>153.4</ele>
        <time>2018-01-12T14:13:23Z</time>
      </trkpt>
      <trkpt lat="47.7922" lon="-2.66638">
        <ele>153.36</ele>
        <time>2018-01-12T14:13:24Z</time>
      </trkpt>
      <trkpt lat="47.79222" lon="-2.66639">
        <ele>153.34</ele>
        <time>2018-01-12T14:13:25Z</time>
      </trkpt>
      <trkpt lat="47.79225" lon="-2.6664">
        <ele>153.33</ele>
        <time>2018-01-12T14:13:26Z</time>
      </trkpt>
      <trkpt lat="47.7925" lon="-2.66641">
        <ele>153.49</ele>
        <time>2018-01-12T14:13:35Z</time>
      </trkpt>
      <trkpt lat="47.79281" lon="-2.66641">
        <ele>153.94</ele>
        <time>2018-01-12T14:13:45Z</time>
      </trkpt>
      <trkpt lat="47.79295" lon="-2.66629">
        <ele>154.35</ele>
        <time>2018-01-12T14:13:50Z</time>
      </trkpt>
      <trkpt lat="47.79297" lon="-2.66624">
        <ele>154.4</ele>
        <time>2018-01-12T14:13:51Z</time>
      </trkpt>
      <trkpt lat="47.79298" lon="-2.6662">
        <ele>154.4</ele>
        <time>2018-01-12T14:13:52Z</time>
      </trkpt>
      <trkpt lat="47.79299" lon="-2.66615">
        <ele>154.4</ele>
        <time>2018-01-12T14:13:53Z</time>
      </trkpt>
      <trkpt lat="47.793" lon="-2.66611">
        <ele>154.4</ele>
        <time>2018-01-12T14:13:54Z</time>
      </trkpt>
      <trkpt lat="47.79302" lon="-2.66606">
        <ele>154.39</ele>
        <time>2018-01-12T14:13:55Z</time>
      </trkpt>
      <trkpt lat="47.79316" lon="-2.66565">
        <ele>154.62</ele>
        <time>2018-01-12T14:14:05Z</time>
      </trkpt>
      <trkpt lat="47.79321" lon="-2.66547">
        <ele>154.72</ele>
        <time>2018-01-12T14:14:13Z</time>
      </trkpt>
      <trkpt lat="47.79322" lon="-2.66544">
        <ele>154.7</ele>
        <time>2018-01-12T14:14:14Z</time>
      </trkpt>
      <trkpt lat="47.79331" lon="-2.66499">
        <ele>154.52</ele>
        <time>2018-01-12T14:14:25Z</time>
      </trkpt>
      <trkpt lat="47.79338" lon="-2.66468">
        <ele>154.36</ele>
        <time>2018-01-12T14:14:34Z</time>
      </trkpt>
      <trkpt lat="47.79338" lon="-2.66465">
        <ele>154.36</ele>
        <time>2018-01-12T14:14:35Z</time>
      </trkpt>
      <trkpt lat="47.79338" lon="-2.66462">
        <ele>154.35</ele>
        <time>2018-01-12T14:14:36Z</time>
      </trkpt>
      <trkpt lat="47.79339" lon="-2.66459">
        <ele>154.36</ele>
        <time>2018-01-12T14:14:37Z</time>
      </trkpt>
      <trkpt lat="47.7934" lon="-2.66456">
        <ele>154.39</ele>
        <time>2018-01-12T14:14:38Z</time>
      </trkpt>
      <trkpt lat="47.7934" lon="-2.66453">
        <ele>154.4</ele>
        <time>2018-01-12T14:14:39Z</time>
      </trkpt>
      <trkpt lat="47.79341" lon="-2.66449">
        <ele>154.37</ele>
        <time>2018-01-12T14:14:40Z</time>
      </trkpt>
      <trkpt lat="47.79342" lon="-2.66445">
        <ele>154.32</ele>
        <time>2018-01-12T14:14:41Z</time>
      </trkpt>
      <trkpt lat="47.79343" lon="-2.66441">
        <ele>154.29</ele>
        <time>2018-01-12T14:14:42Z</time>
      </trkpt>
      <trkpt lat="47.79344" lon="-2.66436">
        <ele>154.21</ele>
        <time>2018-01-12T14:14:43Z</time>
      </trkpt>
      <trkpt lat="47.79345" lon="-2.66431">
        <ele>154.17</ele>
        <time>2018-01-12T14:14:44Z</time>
      </trkpt>
      <trkpt lat="47.79345" lon="-2.66424">
        <ele>154.12</ele>
        <time>2018-01-12T14:14:45Z</time>
      </trkpt>
      <trkpt lat="47.79347" lon="-2.66418">
        <ele>154.06</ele>
        <time>2018-01-12T14:14:46Z</time>
      </trkpt>
      <trkpt lat="47.79359" lon="-2.66366">
        <ele>153.65</ele>
        <time>2018-01-12T14:14:55Z</time>
      </trkpt>
      <trkpt lat="47.79378" lon="-2.66321">
        <ele>154.21</ele>
        <time>2018-01-12T14:15:05Z</time>
      </trkpt>
      <trkpt lat="47.79387" lon="-2.66305">
        <ele>154.45</ele>
        <time>2018-01-12T14:15:10Z</time>
      </trkpt>
      <trkpt lat="47.79389" lon="-2.66304">
        <ele>154.46</ele>
        <time>2018-01-12T14:15:11Z</time>
      </trkpt>
      <trkpt lat="47.79391" lon="-2.66302">
        <ele>154.45</ele>
        <time>2018-01-12T14:15:12Z</time>
      </trkpt>
      <trkpt lat="47.79396" lon="-2.663">
        <ele>154.45</ele>
        <time>2018-01-12T14:15:14Z</time>
      </trkpt>
      <trkpt lat="47.79397" lon="-2.66298">
        <ele>154.45</ele>
        <time>2018-01-12T14:15:15Z</time>
      </trkpt>
      <trkpt lat="47.79399" lon="-2.66297">
        <ele>154.45</ele>
        <time>2018-01-12T14:15:16Z</time>
      </trkpt>
      <trkpt lat="47.794" lon="-2.66295">
        <ele>154.44</ele>
        <time>2018-01-12T14:15:17Z</time>
      </trkpt>
      <trkpt lat="47.79403" lon="-2.66294">
        <ele>154.44</ele>
        <time>2018-01-12T14:15:18Z</time>
      </trkpt>
      <trkpt lat="47.79408" lon="-2.66291">
        <ele>154.51</ele>
        <time>2018-01-12T14:15:20Z</time>
      </trkpt>
      <trkpt lat="47.7941" lon="-2.6629">
        <ele>154.58</ele>
        <time>2018-01-12T14:15:21Z</time>
      </trkpt>
      <trkpt lat="47.79413" lon="-2.66288">
        <ele>154.62</ele>
        <time>2018-01-12T14:15:22Z</time>
      </trkpt>
      <trkpt lat="47.79415" lon="-2.66285">
        <ele>154.66</ele>
        <time>2018-01-12T14:15:23Z</time>
      </trkpt>
      <trkpt lat="47.79417" lon="-2.66283">
        <ele>154.69</ele>
        <time>2018-01-12T14:15:24Z</time>
      </trkpt>
      <trkpt lat="47.79436" lon="-2.66275">
        <ele>154.81</ele>
        <time>2018-01-12T14:15:30Z</time>
      </trkpt>
      <trkpt lat="47.79451" lon="-2.66269">
        <ele>154.93</ele>
        <time>2018-01-12T14:15:36Z</time>
      </trkpt>
      <trkpt lat="47.79472" lon="-2.66252">
        <ele>155.08</ele>
        <time>2018-01-12T14:15:50Z</time>
      </trkpt>
      <trkpt lat="47.79493" lon="-2.66237">
        <ele>155.3</ele>
        <time>2018-01-12T14:16:04Z</time>
      </trkpt>
      <trkpt lat="47.79507" lon="-2.66232">
        <ele>155.32</ele>
        <time>2018-01-12T14:16:10Z</time>
      </trkpt>
      <trkpt lat="47.79525" lon="-2.6621">
        <ele>155.18</ele>
        <time>2018-01-12T14:16:25Z</time>
      </trkpt>
      <trkpt lat="47.79529" lon="-2.66204">
        <ele>155.16</ele>
        <time>2018-01-12T14:16:28Z</time>
      </trkpt>
      <trkpt lat="47.7953" lon="-2.66202">
        <ele>155.16</ele>
        <time>2018-01-12T14:16:29Z</time>
      </trkpt>
      <trkpt lat="47.79535" lon="-2.66194">
        <ele>155.07</ele>
        <time>2018-01-12T14:16:35Z</time>
      </trkpt>
      <trkpt lat="47.79548" lon="-2.66166">
        <ele>154.41</ele>
        <time>2018-01-12T14:16:54Z</time>
      </trkpt>
      <trkpt lat="47.79552" lon="-2.66153">
        <ele>154.55</ele>
        <time>2018-01-12T14:16:59Z</time>
      </trkpt>
      <trkpt lat="47.79557" lon="-2.66128">
        <ele>154.66</ele>
        <time>2018-01-12T14:17:13Z</time>
      </trkpt>
      <trkpt lat="47.79562" lon="-2.66119">
        <ele>154.46</ele>
        <time>2018-01-12T14:17:18Z</time>
      </trkpt>
      <trkpt lat="47.79568" lon="-2.66106">
        <ele>154.6</ele>
        <time>2018-01-12T14:17:25Z</time>
      </trkpt>
      <trkpt lat="47.79583" lon="-2.66092">
        <ele>154.46</ele>
        <time>2018-01-12T14:17:37Z</time>
      </trkpt>
      <trkpt lat="47.79584" lon="-2.6609">
        <ele>154.46</ele>
        <time>2018-01-12T14:17:38Z</time>
      </trkpt>
      <trkpt lat="47.79585" lon="-2.66089">
        <ele>154.46</ele>
        <time>2018-01-12T14:17:39Z</time>
      </trkpt>
      <trkpt lat="47.79587" lon="-2.66088">
        <ele>154.46</ele>
        <time>2018-01-12T14:17:40Z</time>
      </trkpt>
      <trkpt lat="47.7959" lon="-2.66085">
        <ele>154.47</ele>
        <time>2018-01-12T14:17:43Z</time>
      </trkpt>
      <trkpt lat="47.79602" lon="-2.66068">
        <ele>154.17</ele>
        <time>2018-01-12T14:17:55Z</time>
      </trkpt>
      <trkpt lat="47.79604" lon="-2.66065">
        <ele>154.1</ele>
        <time>2018-01-12T14:17:57Z</time>
      </trkpt>
      <trkpt lat="47.79607" lon="-2.66062">
        <ele>154.04</ele>
        <time>2018-01-12T14:17:59Z</time>
      </trkpt>
      <trkpt lat="47.79613" lon="-2.66058">
        <ele>153.89</ele>
        <time>2018-01-12T14:18:03Z</time>
      </trkpt>
      <trkpt lat="47.79616" lon="-2.66055">
        <ele>153.78</ele>
        <time>2018-01-12T14:18:05Z</time>
      </trkpt>
      <trkpt lat="47.79627" lon="-2.66045">
        <ele>153.6</ele>
        <time>2018-01-12T14:18:10Z</time>
      </trkpt>
      <trkpt lat="47.79649" lon="-2.66017">
        <ele>152.96</ele>
        <time>2018-01-12T14:18:19Z</time>
      </trkpt>
      <trkpt lat="47.79675" lon="-2.65975">
        <ele>152.16</ele>
        <time>2018-01-12T14:18:28Z</time>
      </trkpt>
      <trkpt lat="47.79678" lon="-2.6597">
        <ele>151.99</ele>
        <time>2018-01-12T14:18:29Z</time>
      </trkpt>
      <trkpt lat="47.79693" lon="-2.65924">
        <ele>150.69</ele>
        <time>2018-01-12T14:18:38Z</time>
      </trkpt>
      <trkpt lat="47.79716" lon="-2.65879">
        <ele>149.11</ele>
        <time>2018-01-12T14:18:47Z</time>
      </trkpt>
      <trkpt lat="47.79738" lon="-2.65848">
        <ele>147.55</ele>
        <time>2018-01-12T14:18:56Z</time>
      </trkpt>
      <trkpt lat="47.79768" lon="-2.65817">
        <ele>146.93</ele>
        <time>2018-01-12T14:19:05Z</time>
      </trkpt>
      <trkpt lat="47.79793" lon="-2.65791">
        <ele>146.26</ele>
        <time>2018-01-12T14:19:11Z</time>
      </trkpt>
      <trkpt lat="47.79827" lon="-2.65767">
        <ele>145.09</ele>
        <time>2018-01-12T14:19:21Z</time>
      </trkpt>
      <trkpt lat="47.79828" lon="-2.65765">
        <ele>145.06</ele>
        <time>2018-01-12T14:19:22Z</time>
      </trkpt>
      <trkpt lat="47.79831" lon="-2.65763">
        <ele>145.12</ele>
        <time>2018-01-12T14:19:24Z</time>
      </trkpt>
      <trkpt lat="47.79832" lon="-2.6576">
        <ele>145.2</ele>
        <time>2018-01-12T14:19:25Z</time>
      </trkpt>
      <trkpt lat="47.79833" lon="-2.65758">
        <ele>145.27</ele>
        <time>2018-01-12T14:19:26Z</time>
      </trkpt>
      <trkpt lat="47.79834" lon="-2.65754">
        <ele>145.32</ele>
        <time>2018-01-12T14:19:27Z</time>
      </trkpt>
      <trkpt lat="47.79834" lon="-2.6575">
        <ele>145.37</ele>
        <time>2018-01-12T14:19:28Z</time>
      </trkpt>
      <trkpt lat="47.79834" lon="-2.65746">
        <ele>145.4</ele>
        <time>2018-01-12T14:19:29Z</time>
      </trkpt>
      <trkpt lat="47.79835" lon="-2.65741">
        <ele>145.44</ele>
        <time>2018-01-12T14:19:30Z</time>
      </trkpt>
      <trkpt lat="47.79843" lon="-2.65691">
        <ele>146.52</ele>
        <time>2018-01-12T14:19:39Z</time>
      </trkpt>
      <trkpt lat="47.79851" lon="-2.65654">
        <ele>147.48</ele>
        <time>2018-01-12T14:19:47Z</time>
      </trkpt>
      <trkpt lat="47.79853" lon="-2.65651">
        <ele>147.49</ele>
        <time>2018-01-12T14:19:48Z</time>
      </trkpt>
      <trkpt lat="47.79854" lon="-2.65649">
        <ele>147.51</ele>
        <time>2018-01-12T14:19:49Z</time>
      </trkpt>
      <trkpt lat="47.79857" lon="-2.65647">
        <ele>147.53</ele>
        <time>2018-01-12T14:19:50Z</time>
      </trkpt>
      <trkpt lat="47.79861" lon="-2.65646">
        <ele>147.55</ele>
        <time>2018-01-12T14:19:51Z</time>
      </trkpt>
      <trkpt lat="47.79864" lon="-2.65644">
        <ele>147.56</ele>
        <time>2018-01-12T14:19:52Z</time>
      </trkpt>
      <trkpt lat="47.79892" lon="-2.65635">
        <ele>147.54</ele>
        <time>2018-01-12T14:20:00Z</time>
      </trkpt>
      <trkpt lat="47.79932" lon="-2.65633">
        <ele>146.76</ele>
        <time>2018-01-12T14:20:11Z</time>
      </trkpt>
      <trkpt lat="47.79964" lon="-2.65612">
        <ele>145.35</ele>
        <time>2018-01-12T14:20:20Z</time>
      </trkpt>
      <trkpt lat="47.79986" lon="-2.65605">
        <ele>144.74</ele>
        <time>2018-01-12T14:20:26Z</time>
      </trkpt>
      <trkpt lat="47.79988" lon="-2.65602">
        <ele>144.65</ele>
        <time>2018-01-12T14:20:27Z</time>
      </trkpt>
      <trkpt lat="47.79991" lon="-2.65598">
        <ele>144.57</ele>
        <time>2018-01-12T14:20:28Z</time>
      </trkpt>
      <trkpt lat="47.79997" lon="-2.65588">
        <ele>144.32</ele>
        <time>2018-01-12T14:20:31Z</time>
      </trkpt>
      <trkpt lat="47.79999" lon="-2.65586">
        <ele>144.27</ele>
        <time>2018-01-12T14:20:32Z</time>
      </trkpt>
      <trkpt lat="47.80001" lon="-2.65585">
        <ele>144.21</ele>
        <time>2018-01-12T14:20:33Z</time>
      </trkpt>
      <trkpt lat="47.80003" lon="-2.65585">
        <ele>144.16</ele>
        <time>2018-01-12T14:20:34Z</time>
      </trkpt>
      <trkpt lat="47.80007" lon="-2.65585">
        <ele>144.13</ele>
        <time>2018-01-12T14:20:35Z</time>
      </trkpt>
      <trkpt lat="47.80011" lon="-2.65586">
        <ele>144.09</ele>
        <time>2018-01-12T14:20:36Z</time>
      </trkpt>
      <trkpt lat="47.80038" lon="-2.65585">
        <ele>143.77</ele>
        <time>2018-01-12T14:20:46Z</time>
      </trkpt>
      <trkpt lat="47.80064" lon="-2.65586">
        <ele>143.72</ele>
        <time>2018-01-12T14:21:00Z</time>
      </trkpt>
      <trkpt lat="47.8008" lon="-2.65582">
        <ele>143.45</ele>
        <time>2018-01-12T14:21:12Z</time>
      </trkpt>
      <trkpt lat="47.80083" lon="-2.65582">
        <ele>143.39</ele>
        <time>2018-01-12T14:21:14Z</time>
      </trkpt>
      <trkpt lat="47.80084" lon="-2.65581">
        <ele>143.42</ele>
        <time>2018-01-12T14:21:15Z</time>
      </trkpt>
      <trkpt lat="47.80086" lon="-2.6558">
        <ele>143.49</ele>
        <time>2018-01-12T14:21:16Z</time>
      </trkpt>
      <trkpt lat="47.80087" lon="-2.6558">
        <ele>143.57</ele>
        <time>2018-01-12T14:21:17Z</time>
      </trkpt>
      <trkpt lat="47.80088" lon="-2.65579">
        <ele>143.63</ele>
        <time>2018-01-12T14:21:18Z</time>
      </trkpt>
      <trkpt lat="47.80113" lon="-2.65571">
        <ele>143.57</ele>
        <time>2018-01-12T14:21:33Z</time>
      </trkpt>
      <trkpt lat="47.80136" lon="-2.65562">
        <ele>143.31</ele>
        <time>2018-01-12T14:21:48Z</time>
      </trkpt>
      <trkpt lat="47.80161" lon="-2.65553">
        <ele>142.89</ele>
        <time>2018-01-12T14:22:04Z</time>
      </trkpt>
      <trkpt lat="47.80188" lon="-2.65553">
        <ele>142.54</ele>
        <time>2018-01-12T14:22:19Z</time>
      </trkpt>
      <trkpt lat="47.80213" lon="-2.6556">
        <ele>142.55</ele>
        <time>2018-01-12T14:22:34Z</time>
      </trkpt>
      <trkpt lat="47.80236" lon="-2.65567">
        <ele>142.82</ele>
        <time>2018-01-12T14:22:49Z</time>
      </trkpt>
      <trkpt lat="47.80267" lon="-2.65577">
        <ele>142.19</ele>
        <time>2018-01-12T14:23:08Z</time>
      </trkpt>
      <trkpt lat="47.80296" lon="-2.65584">
        <ele>141.43</ele>
        <time>2018-01-12T14:23:26Z</time>
      </trkpt>
      <trkpt lat="47.80301" lon="-2.65584">
        <ele>141.4</ele>
        <time>2018-01-12T14:23:29Z</time>
      </trkpt>
      <trkpt lat="47.80302" lon="-2.65582">
        <ele>141.34</ele>
        <time>2018-01-12T14:23:30Z</time>
      </trkpt>
      <trkpt lat="47.80303" lon="-2.6558">
        <ele>141.22</ele>
        <time>2018-01-12T14:23:31Z</time>
      </trkpt>
      <trkpt lat="47.80303" lon="-2.65578">
        <ele>141.08</ele>
        <time>2018-01-12T14:23:32Z</time>
      </trkpt>
      <trkpt lat="47.80304" lon="-2.65576">
        <ele>141</ele>
        <time>2018-01-12T14:23:33Z</time>
      </trkpt>
      <trkpt lat="47.80304" lon="-2.65573">
        <ele>140.93</ele>
        <time>2018-01-12T14:23:34Z</time>
      </trkpt>
      <trkpt lat="47.80304" lon="-2.65571">
        <ele>140.89</ele>
        <time>2018-01-12T14:23:35Z</time>
      </trkpt>
      <trkpt lat="47.80304" lon="-2.65569">
        <ele>140.86</ele>
        <time>2018-01-12T14:23:36Z</time>
      </trkpt>
      <trkpt lat="47.80304" lon="-2.65566">
        <ele>140.81</ele>
        <time>2018-01-12T14:23:37Z</time>
      </trkpt>
      <trkpt lat="47.80304" lon="-2.65564">
        <ele>140.8</ele>
        <time>2018-01-12T14:23:38Z</time>
      </trkpt>
      <trkpt lat="47.80303" lon="-2.65562">
        <ele>140.8</ele>
        <time>2018-01-12T14:23:39Z</time>
      </trkpt>
      <trkpt lat="47.80303" lon="-2.6556">
        <ele>140.8</ele>
        <time>2018-01-12T14:23:40Z</time>
      </trkpt>
      <trkpt lat="47.80302" lon="-2.65558">
        <ele>140.78</ele>
        <time>2018-01-12T14:23:41Z</time>
      </trkpt>
      <trkpt lat="47.80292" lon="-2.6553">
        <ele>140.92</ele>
        <time>2018-01-12T14:23:57Z</time>
      </trkpt>
      <trkpt lat="47.80281" lon="-2.65503">
        <ele>141.48</ele>
        <time>2018-01-12T14:24:12Z</time>
      </trkpt>
      <trkpt lat="47.80266" lon="-2.65469">
        <ele>141.73</ele>
        <time>2018-01-12T14:24:29Z</time>
      </trkpt>
      <trkpt lat="47.80257" lon="-2.65449">
        <ele>141.76</ele>
        <time>2018-01-12T14:24:41Z</time>
      </trkpt>
      <trkpt lat="47.80256" lon="-2.65447">
        <ele>141.76</ele>
        <time>2018-01-12T14:24:42Z</time>
      </trkpt>
      <trkpt lat="47.80255" lon="-2.65445">
        <ele>141.76</ele>
        <time>2018-01-12T14:24:43Z</time>
      </trkpt>
      <trkpt lat="47.80254" lon="-2.65443">
        <ele>141.77</ele>
        <time>2018-01-12T14:24:44Z</time>
      </trkpt>
      <trkpt lat="47.80254" lon="-2.65441">
        <ele>141.77</ele>
        <time>2018-01-12T14:24:45Z</time>
      </trkpt>
      <trkpt lat="47.80253" lon="-2.65439">
        <ele>141.77</ele>
        <time>2018-01-12T14:24:46Z</time>
      </trkpt>
      <trkpt lat="47.80252" lon="-2.65437">
        <ele>141.76</ele>
        <time>2018-01-12T14:24:47Z</time>
      </trkpt>
      <trkpt lat="47.80235" lon="-2.65398">
        <ele>141.83</ele>
        <time>2018-01-12T14:25:06Z</time>
      </trkpt>
      <trkpt lat="47.8022" lon="-2.65367">
        <ele>142.05</ele>
        <time>2018-01-12T14:25:23Z</time>
      </trkpt>
      <trkpt lat="47.80207" lon="-2.65332">
        <ele>142.06</ele>
        <time>2018-01-12T14:25:39Z</time>
      </trkpt>
      <trkpt lat="47.8019" lon="-2.65293">
        <ele>142.33</ele>
        <time>2018-01-12T14:25:56Z</time>
      </trkpt>
      <trkpt lat="47.80183" lon="-2.65269">
        <ele>142.53</ele>
        <time>2018-01-12T14:26:07Z</time>
      </trkpt>
      <trkpt lat="47.80182" lon="-2.65267">
        <ele>142.53</ele>
        <time>2018-01-12T14:26:08Z</time>
      </trkpt>
      <trkpt lat="47.80181" lon="-2.65226">
        <ele>142.8</ele>
        <time>2018-01-12T14:26:24Z</time>
      </trkpt>
      <trkpt lat="47.80184" lon="-2.65182">
        <ele>142.35</ele>
        <time>2018-01-12T14:26:42Z</time>
      </trkpt>
      <trkpt lat="47.80186" lon="-2.65144">
        <ele>142.47</ele>
        <time>2018-01-12T14:26:57Z</time>
      </trkpt>
      <trkpt lat="47.80189" lon="-2.651">
        <ele>142.38</ele>
        <time>2018-01-12T14:27:15Z</time>
      </trkpt>
      <trkpt lat="47.80193" lon="-2.65072">
        <ele>142.1</ele>
        <time>2018-01-12T14:27:28Z</time>
      </trkpt>
      <trkpt lat="47.80202" lon="-2.65032">
        <ele>141.24</ele>
        <time>2018-01-12T14:27:46Z</time>
      </trkpt>
      <trkpt lat="47.80215" lon="-2.65006">
        <ele>140.3</ele>
        <time>2018-01-12T14:27:59Z</time>
      </trkpt>
      <trkpt lat="47.80239" lon="-2.64975">
        <ele>139.03</ele>
        <time>2018-01-12T14:28:18Z</time>
      </trkpt>
      <trkpt lat="47.80259" lon="-2.64949">
        <ele>137.22</ele>
        <time>2018-01-12T14:28:34Z</time>
      </trkpt>
      <trkpt lat="47.80283" lon="-2.64915">
        <ele>134.66</ele>
        <time>2018-01-12T14:28:54Z</time>
      </trkpt>
      <trkpt lat="47.80302" lon="-2.64885">
        <ele>132.14</ele>
        <time>2018-01-12T14:29:11Z</time>
      </trkpt>
      <trkpt lat="47.80312" lon="-2.6486">
        <ele>130.93</ele>
        <time>2018-01-12T14:29:23Z</time>
      </trkpt>
      <trkpt lat="47.80317" lon="-2.64828">
        <ele>129.25</ele>
        <time>2018-01-12T14:29:37Z</time>
      </trkpt>
      <trkpt lat="47.80317" lon="-2.6482">
        <ele>128.94</ele>
        <time>2018-01-12T14:29:40Z</time>
      </trkpt>
      <trkpt lat="47.80317" lon="-2.64818">
        <ele>128.87</ele>
        <time>2018-01-12T14:29:41Z</time>
      </trkpt>
      <trkpt lat="47.80311" lon="-2.64782">
        <ele>127.73</ele>
        <time>2018-01-12T14:29:56Z</time>
      </trkpt>
      <trkpt lat="47.80292" lon="-2.64746">
        <ele>126.05</ele>
        <time>2018-01-12T14:30:14Z</time>
      </trkpt>
      <trkpt lat="47.80276" lon="-2.64714">
        <ele>124.02</ele>
        <time>2018-01-12T14:30:32Z</time>
      </trkpt>
      <trkpt lat="47.80276" lon="-2.6471">
        <ele>123.81</ele>
        <time>2018-01-12T14:30:34Z</time>
      </trkpt>
      <trkpt lat="47.80277" lon="-2.64708">
        <ele>123.7</ele>
        <time>2018-01-12T14:30:35Z</time>
      </trkpt>
      <trkpt lat="47.80278" lon="-2.64705">
        <ele>123.6</ele>
        <time>2018-01-12T14:30:36Z</time>
      </trkpt>
      <trkpt lat="47.80279" lon="-2.64703">
        <ele>123.51</ele>
        <time>2018-01-12T14:30:37Z</time>
      </trkpt>
      <trkpt lat="47.8028" lon="-2.64701">
        <ele>123.43</ele>
        <time>2018-01-12T14:30:38Z</time>
      </trkpt>
      <trkpt lat="47.80281" lon="-2.647">
        <ele>123.34</ele>
        <time>2018-01-12T14:30:39Z</time>
      </trkpt>
      <trkpt lat="47.80313" lon="-2.6468">
        <ele>123.64</ele>
        <time>2018-01-12T14:30:55Z</time>
      </trkpt>
      <trkpt lat="47.8036" lon="-2.64661">
        <ele>124.66</ele>
        <time>2018-01-12T14:31:08Z</time>
      </trkpt>
      <trkpt lat="47.80402" lon="-2.64644">
        <ele>125.35</ele>
        <time>2018-01-12T14:31:20Z</time>
      </trkpt>
      <trkpt lat="47.80439" lon="-2.64629">
        <ele>125.19</ele>
        <time>2018-01-12T14:31:30Z</time>
      </trkpt>
      <trkpt lat="47.80483" lon="-2.64611">
        <ele>123.82</ele>
        <time>2018-01-12T14:31:42Z</time>
      </trkpt>
      <trkpt lat="47.80526" lon="-2.64602">
        <ele>122.56</ele>
        <time>2018-01-12T14:31:53Z</time>
      </trkpt>
      <trkpt lat="47.80538" lon="-2.646">
        <ele>122.13</ele>
        <time>2018-01-12T14:31:56Z</time>
      </trkpt>
      <trkpt lat="47.80579" lon="-2.64594">
        <ele>120.46</ele>
        <time>2018-01-12T14:32:06Z</time>
      </trkpt>
      <trkpt lat="47.80628" lon="-2.64582">
        <ele>118.82</ele>
        <time>2018-01-12T14:32:17Z</time>
      </trkpt>
      <trkpt lat="47.80677" lon="-2.64561">
        <ele>117.96</ele>
        <time>2018-01-12T14:32:28Z</time>
      </trkpt>
      <trkpt lat="47.80719" lon="-2.64545">
        <ele>117.76</ele>
        <time>2018-01-12T14:32:39Z</time>
      </trkpt>
      <trkpt lat="47.80723" lon="-2.64543">
        <ele>117.74</ele>
        <time>2018-01-12T14:32:40Z</time>
      </trkpt>
      <trkpt lat="47.80731" lon="-2.6454">
        <ele>117.7</ele>
        <time>2018-01-12T14:32:42Z</time>
      </trkpt>
      <trkpt lat="47.80766" lon="-2.64527">
        <ele>117.5</ele>
        <time>2018-01-12T14:32:51Z</time>
      </trkpt>
      <trkpt lat="47.80806" lon="-2.64505">
        <ele>116.4</ele>
        <time>2018-01-12T14:33:01Z</time>
      </trkpt>
      <trkpt lat="47.80811" lon="-2.64503">
        <ele>116.3</ele>
        <time>2018-01-12T14:33:02Z</time>
      </trkpt>
      <trkpt lat="47.80815" lon="-2.64501">
        <ele>116.18</ele>
        <time>2018-01-12T14:33:03Z</time>
      </trkpt>
      <trkpt lat="47.80868" lon="-2.64478">
        <ele>114</ele>
        <time>2018-01-12T14:33:14Z</time>
      </trkpt>
      <trkpt lat="47.80909" lon="-2.64463">
        <ele>113.3</ele>
        <time>2018-01-12T14:33:25Z</time>
      </trkpt>
      <trkpt lat="47.80954" lon="-2.64439">
        <ele>112.78</ele>
        <time>2018-01-12T14:33:37Z</time>
      </trkpt>
      <trkpt lat="47.81" lon="-2.64402">
        <ele>112.55</ele>
        <time>2018-01-12T14:33:49Z</time>
      </trkpt>
      <trkpt lat="47.81042" lon="-2.6437">
        <ele>110.1</ele>
        <time>2018-01-12T14:34:01Z</time>
      </trkpt>
      <trkpt lat="47.81057" lon="-2.64362">
        <ele>108.64</ele>
        <time>2018-01-12T14:34:08Z</time>
      </trkpt>
      <trkpt lat="47.81059" lon="-2.64361">
        <ele>108.28</ele>
        <time>2018-01-12T14:34:09Z</time>
      </trkpt>
      <trkpt lat="47.81084" lon="-2.64349">
        <ele>106.3</ele>
        <time>2018-01-12T14:34:24Z</time>
      </trkpt>
      <trkpt lat="47.81127" lon="-2.64336">
        <ele>103.55</ele>
        <time>2018-01-12T14:34:49Z</time>
      </trkpt>
      <trkpt lat="47.81161" lon="-2.64328">
        <ele>101.57</ele>
        <time>2018-01-12T14:35:10Z</time>
      </trkpt>
      <trkpt lat="47.8118" lon="-2.64324">
        <ele>100.73</ele>
        <time>2018-01-12T14:35:23Z</time>
      </trkpt>
      <trkpt lat="47.81182" lon="-2.64323">
        <ele>100.91</ele>
        <time>2018-01-12T14:35:24Z</time>
      </trkpt>
      <trkpt lat="47.81201" lon="-2.64317">
        <ele>100.09</ele>
        <time>2018-01-12T14:35:37Z</time>
      </trkpt>
      <trkpt lat="47.81235" lon="-2.64305">
        <ele>99.43</ele>
        <time>2018-01-12T14:35:55Z</time>
      </trkpt>
      <trkpt lat="47.81274" lon="-2.64287">
        <ele>98.31</ele>
        <time>2018-01-12T14:36:18Z</time>
      </trkpt>
      <trkpt lat="47.81315" lon="-2.64265">
        <ele>96.1</ele>
        <time>2018-01-12T14:36:42Z</time>
      </trkpt>
      <trkpt lat="47.8135" lon="-2.64245">
        <ele>94.5</ele>
        <time>2018-01-12T14:37:04Z</time>
      </trkpt>
      <trkpt lat="47.81399" lon="-2.64217">
        <ele>92.65</ele>
        <time>2018-01-12T14:37:34Z</time>
      </trkpt>
      <trkpt lat="47.81414" lon="-2.64202">
        <ele>91.73</ele>
        <time>2018-01-12T14:37:46Z</time>
      </trkpt>
      <trkpt lat="47.81415" lon="-2.642">
        <ele>91.63</ele>
        <time>2018-01-12T14:37:47Z</time>
      </trkpt>
      <trkpt lat="47.81415" lon="-2.64198">
        <ele>91.52</ele>
        <time>2018-01-12T14:37:48Z</time>
      </trkpt>
      <trkpt lat="47.81422" lon="-2.64169">
        <ele>89.18</ele>
        <time>2018-01-12T14:38:03Z</time>
      </trkpt>
      <trkpt lat="47.81436" lon="-2.64122">
        <ele>86.1</ele>
        <time>2018-01-12T14:38:23Z</time>
      </trkpt>
      <trkpt lat="47.81449" lon="-2.64075">
        <ele>83.07</ele>
        <time>2018-01-12T14:38:43Z</time>
      </trkpt>
      <trkpt lat="47.81463" lon="-2.64042">
        <ele>80.58</ele>
        <time>2018-01-12T14:38:58Z</time>
      </trkpt>
      <trkpt lat="47.81492" lon="-2.64016">
        <ele>78.08</ele>
        <time>2018-01-12T14:39:17Z</time>
      </trkpt>
      <trkpt lat="47.81525" lon="-2.64003">
        <ele>76</ele>
        <time>2018-01-12T14:39:39Z</time>
      </trkpt>
      <trkpt lat="47.81554" lon="-2.63997">
        <ele>73.71</ele>
        <time>2018-01-12T14:39:57Z</time>
      </trkpt>
      <trkpt lat="47.81592" lon="-2.63985">
        <ele>72.47</ele>
        <time>2018-01-12T14:40:18Z</time>
      </trkpt>
      <trkpt lat="47.81633" lon="-2.63963">
        <ele>72.07</ele>
        <time>2018-01-12T14:40:41Z</time>
      </trkpt>
      <trkpt lat="47.81669" lon="-2.63947">
        <ele>71.47</ele>
        <time>2018-01-12T14:41:03Z</time>
      </trkpt>
      <trkpt lat="47.81707" lon="-2.63933">
        <ele>70.48</ele>
        <time>2018-01-12T14:41:27Z</time>
      </trkpt>
      <trkpt lat="47.81719" lon="-2.63958">
        <ele>69.77</ele>
        <time>2018-01-12T14:41:42Z</time>
      </trkpt>
      <trkpt lat="47.81711" lon="-2.63985">
        <ele>68.3</ele>
        <time>2018-01-12T14:41:55Z</time>
      </trkpt>
      <trkpt lat="47.81708" lon="-2.63992">
        <ele>68.01</ele>
        <time>2018-01-12T14:41:59Z</time>
      </trkpt>
      <trkpt lat="47.81707" lon="-2.63994">
        <ele>67.86</ele>
        <time>2018-01-12T14:42:00Z</time>
      </trkpt>
      <trkpt lat="47.81692" lon="-2.6403">
        <ele>67.03</ele>
        <time>2018-01-12T14:42:16Z</time>
      </trkpt>
      <trkpt lat="47.8169" lon="-2.64066">
        <ele>66.51</ele>
        <time>2018-01-12T14:42:30Z</time>
      </trkpt>
      <trkpt lat="47.81694" lon="-2.64101">
        <ele>66.68</ele>
        <time>2018-01-12T14:42:44Z</time>
      </trkpt>
      <trkpt lat="47.81696" lon="-2.64103">
        <ele>66.68</ele>
        <time>2018-01-12T14:42:45Z</time>
      </trkpt>
      <trkpt lat="47.81696" lon="-2.64106">
        <ele>66.68</ele>
        <time>2018-01-12T14:42:46Z</time>
      </trkpt>
      <trkpt lat="47.81697" lon="-2.64108">
        <ele>66.68</ele>
        <time>2018-01-12T14:42:47Z</time>
      </trkpt>
      <trkpt lat="47.81698" lon="-2.6411">
        <ele>66.68</ele>
        <time>2018-01-12T14:42:48Z</time>
      </trkpt>
      <trkpt lat="47.81699" lon="-2.64112">
        <ele>66.69</ele>
        <time>2018-01-12T14:42:49Z</time>
      </trkpt>
      <trkpt lat="47.817" lon="-2.6412">
        <ele>66.69</ele>
        <time>2018-01-12T14:42:52Z</time>
      </trkpt>
      <trkpt lat="47.81718" lon="-2.64134">
        <ele>66.71</ele>
        <time>2018-01-12T14:43:06Z</time>
      </trkpt>
      <trkpt lat="47.81723" lon="-2.64128">
        <ele>65.7</ele>
        <time>2018-01-12T14:43:19Z</time>
      </trkpt>
      <trkpt lat="47.81723" lon="-2.64125">
        <ele>65.05</ele>
        <time>2018-01-12T14:43:23Z</time>
      </trkpt>
      <trkpt lat="47.81729" lon="-2.64125">
        <ele>64.85</ele>
        <time>2018-01-12T14:43:41Z</time>
      </trkpt>
      <trkpt lat="47.81729" lon="-2.64127">
        <ele>64.85</ele>
        <time>2018-01-12T14:43:42Z</time>
      </trkpt>
      <trkpt lat="47.8173" lon="-2.64128">
        <ele>64.88</ele>
        <time>2018-01-12T14:43:43Z</time>
      </trkpt>
      <trkpt lat="47.81731" lon="-2.64129">
        <ele>64.99</ele>
        <time>2018-01-12T14:43:44Z</time>
      </trkpt>
      <trkpt lat="47.81733" lon="-2.6413">
        <ele>65.23</ele>
        <time>2018-01-12T14:43:45Z</time>
      </trkpt>
      <trkpt lat="47.81734" lon="-2.64131">
        <ele>65.5</ele>
        <time>2018-01-12T14:43:46Z</time>
      </trkpt>
      <trkpt lat="47.81735" lon="-2.64133">
        <ele>65.73</ele>
        <time>2018-01-12T14:43:47Z</time>
      </trkpt>
      <trkpt lat="47.81737" lon="-2.64134">
        <ele>65.94</ele>
        <time>2018-01-12T14:43:48Z</time>
      </trkpt>
      <trkpt lat="47.81739" lon="-2.64135">
        <ele>66.1</ele>
        <time>2018-01-12T14:43:49Z</time>
      </trkpt>
      <trkpt lat="47.8174" lon="-2.64136">
        <ele>66.35</ele>
        <time>2018-01-12T14:43:50Z</time>
      </trkpt>
      <trkpt lat="47.81747" lon="-2.64139">
        <ele>66.95</ele>
        <time>2018-01-12T14:44:03Z</time>
      </trkpt>
      <trkpt lat="47.81749" lon="-2.64141">
        <ele>66.94</ele>
        <time>2018-01-12T14:44:15Z</time>
      </trkpt>
      <trkpt lat="47.8175" lon="-2.6414">
        <ele>66.82</ele>
        <time>2018-01-12T14:44:35Z</time>
      </trkpt>
      <trkpt lat="47.8175" lon="-2.6414">
        <ele>67.11</ele>
        <time>2018-01-12T14:44:59Z</time>
      </trkpt>
      <trkpt lat="47.81747" lon="-2.64143">
        <ele>66.72</ele>
        <time>2018-01-12T14:45:16Z</time>
      </trkpt>
      <trkpt lat="47.81751" lon="-2.64145">
        <ele>67.16</ele>
        <time>2018-01-12T14:45:43Z</time>
      </trkpt>
      <trkpt lat="47.81755" lon="-2.64154">
        <ele>67.22</ele>
        <time>2018-01-12T14:45:54Z</time>
      </trkpt>
      <trkpt lat="47.81759" lon="-2.64162">
        <ele>67.13</ele>
        <time>2018-01-12T14:45:59Z</time>
      </trkpt>
      <trkpt lat="47.8176" lon="-2.64172">
        <ele>67.82</ele>
        <time>2018-01-12T14:46:14Z</time>
      </trkpt>
      <trkpt lat="47.81766" lon="-2.64195">
        <ele>68.6</ele>
        <time>2018-01-12T14:46:30Z</time>
      </trkpt>
      <trkpt lat="47.8177" lon="-2.64223">
        <ele>70.54</ele>
        <time>2018-01-12T14:46:44Z</time>
      </trkpt>
      <trkpt lat="47.81776" lon="-2.64266">
        <ele>73.58</ele>
        <time>2018-01-12T14:47:02Z</time>
      </trkpt>
      <trkpt lat="47.81786" lon="-2.643">
        <ele>75.79</ele>
        <time>2018-01-12T14:47:18Z</time>
      </trkpt>
      <trkpt lat="47.81797" lon="-2.64354">
        <ele>77.65</ele>
        <time>2018-01-12T14:47:43Z</time>
      </trkpt>
      <trkpt lat="47.81804" lon="-2.64395">
        <ele>78.57</ele>
        <time>2018-01-12T14:48:01Z</time>
      </trkpt>
      <trkpt lat="47.81815" lon="-2.64442">
        <ele>79.17</ele>
        <time>2018-01-12T14:48:20Z</time>
      </trkpt>
      <trkpt lat="47.81819" lon="-2.64491">
        <ele>79.88</ele>
        <time>2018-01-12T14:48:40Z</time>
      </trkpt>
      <trkpt lat="47.81823" lon="-2.64545">
        <ele>79.78</ele>
        <time>2018-01-12T14:49:02Z</time>
      </trkpt>
      <trkpt lat="47.81823" lon="-2.64585">
        <ele>79.73</ele>
        <time>2018-01-12T14:49:20Z</time>
      </trkpt>
      <trkpt lat="47.81825" lon="-2.64635">
        <ele>79.43</ele>
        <time>2018-01-12T14:49:41Z</time>
      </trkpt>
      <trkpt lat="47.81828" lon="-2.64675">
        <ele>79.51</ele>
        <time>2018-01-12T14:49:57Z</time>
      </trkpt>
      <trkpt lat="47.81831" lon="-2.64708">
        <ele>79.07</ele>
        <time>2018-01-12T14:50:11Z</time>
      </trkpt>
      <trkpt lat="47.81834" lon="-2.64752">
        <ele>78.12</ele>
        <time>2018-01-12T14:50:30Z</time>
      </trkpt>
      <trkpt lat="47.81839" lon="-2.64789">
        <ele>77.01</ele>
        <time>2018-01-12T14:50:46Z</time>
      </trkpt>
      <trkpt lat="47.81842" lon="-2.64818">
        <ele>75.75</ele>
        <time>2018-01-12T14:50:59Z</time>
      </trkpt>
      <trkpt lat="47.81846" lon="-2.64854">
        <ele>74.2</ele>
        <time>2018-01-12T14:51:14Z</time>
      </trkpt>
      <trkpt lat="47.8185" lon="-2.64886">
        <ele>72.37</ele>
        <time>2018-01-12T14:51:27Z</time>
      </trkpt>
      <trkpt lat="47.81851" lon="-2.64897">
        <ele>71.79</ele>
        <time>2018-01-12T14:51:32Z</time>
      </trkpt>
      <trkpt lat="47.81858" lon="-2.64927">
        <ele>70.3</ele>
        <time>2018-01-12T14:51:46Z</time>
      </trkpt>
      <trkpt lat="47.8187" lon="-2.64959">
        <ele>69.73</ele>
        <time>2018-01-12T14:52:00Z</time>
      </trkpt>
      <trkpt lat="47.81881" lon="-2.64993">
        <ele>70.14</ele>
        <time>2018-01-12T14:52:16Z</time>
      </trkpt>
      <trkpt lat="47.81892" lon="-2.65019">
        <ele>70.54</ele>
        <time>2018-01-12T14:52:29Z</time>
      </trkpt>
      <trkpt lat="47.81904" lon="-2.65038">
        <ele>70.91</ele>
        <time>2018-01-12T14:52:40Z</time>
      </trkpt>
      <trkpt lat="47.8191" lon="-2.65048">
        <ele>71.12</ele>
        <time>2018-01-12T14:52:47Z</time>
      </trkpt>
      <trkpt lat="47.81929" lon="-2.6507">
        <ele>71.3</ele>
        <time>2018-01-12T14:53:02Z</time>
      </trkpt>
      <trkpt lat="47.81949" lon="-2.65089">
        <ele>71.66</ele>
        <time>2018-01-12T14:53:17Z</time>
      </trkpt>
      <trkpt lat="47.81956" lon="-2.65097">
        <ele>71.93</ele>
        <time>2018-01-12T14:53:24Z</time>
      </trkpt>
      <trkpt lat="47.81971" lon="-2.65114">
        <ele>71.62</ele>
        <time>2018-01-12T14:53:37Z</time>
      </trkpt>
      <trkpt lat="47.81977" lon="-2.65123">
        <ele>71.65</ele>
        <time>2018-01-12T14:53:43Z</time>
      </trkpt>
      <trkpt lat="47.81978" lon="-2.65125">
        <ele>71.64</ele>
        <time>2018-01-12T14:53:44Z</time>
      </trkpt>
      <trkpt lat="47.81979" lon="-2.65127">
        <ele>71.63</ele>
        <time>2018-01-12T14:53:45Z</time>
      </trkpt>
      <trkpt lat="47.8198" lon="-2.6513">
        <ele>71.62</ele>
        <time>2018-01-12T14:53:46Z</time>
      </trkpt>
      <trkpt lat="47.81981" lon="-2.65132">
        <ele>71.56</ele>
        <time>2018-01-12T14:53:47Z</time>
      </trkpt>
      <trkpt lat="47.81982" lon="-2.65133">
        <ele>71.49</ele>
        <time>2018-01-12T14:53:48Z</time>
      </trkpt>
      <trkpt lat="47.81983" lon="-2.65135">
        <ele>71.46</ele>
        <time>2018-01-12T14:53:49Z</time>
      </trkpt>
      <trkpt lat="47.81995" lon="-2.65161">
        <ele>70.63</ele>
        <time>2018-01-12T14:54:01Z</time>
      </trkpt>
      <trkpt lat="47.82012" lon="-2.65185">
        <ele>70.26</ele>
        <time>2018-01-12T14:54:15Z</time>
      </trkpt>
      <trkpt lat="47.82033" lon="-2.65213">
        <ele>70.15</ele>
        <time>2018-01-12T14:54:31Z</time>
      </trkpt>
      <trkpt lat="47.82053" lon="-2.65233">
        <ele>70.09</ele>
        <time>2018-01-12T14:54:46Z</time>
      </trkpt>
      <trkpt lat="47.82074" lon="-2.65252">
        <ele>70.08</ele>
        <time>2018-01-12T14:55:02Z</time>
      </trkpt>
      <trkpt lat="47.82088" lon="-2.65275">
        <ele>70.02</ele>
        <time>2018-01-12T14:55:15Z</time>
      </trkpt>
      <trkpt lat="47.82103" lon="-2.65305">
        <ele>70.43</ele>
        <time>2018-01-12T14:55:31Z</time>
      </trkpt>
      <trkpt lat="47.82116" lon="-2.65333">
        <ele>70.62</ele>
        <time>2018-01-12T14:55:45Z</time>
      </trkpt>
      <trkpt lat="47.82129" lon="-2.65355">
        <ele>70.66</ele>
        <time>2018-01-12T14:55:58Z</time>
      </trkpt>
      <trkpt lat="47.82142" lon="-2.65376">
        <ele>70.56</ele>
        <time>2018-01-12T14:56:11Z</time>
      </trkpt>
      <trkpt lat="47.82158" lon="-2.65417">
        <ele>70.42</ele>
        <time>2018-01-12T14:56:28Z</time>
      </trkpt>
      <trkpt lat="47.82176" lon="-2.65449">
        <ele>70.62</ele>
        <time>2018-01-12T14:56:47Z</time>
      </trkpt>
      <trkpt lat="47.82184" lon="-2.65472">
        <ele>71.1</ele>
        <time>2018-01-12T14:56:59Z</time>
      </trkpt>
      <trkpt lat="47.82188" lon="-2.65475">
        <ele>71.31</ele>
        <time>2018-01-12T14:57:02Z</time>
      </trkpt>
      <trkpt lat="47.8219" lon="-2.65475">
        <ele>71.43</ele>
        <time>2018-01-12T14:57:03Z</time>
      </trkpt>
      <trkpt lat="47.82191" lon="-2.65473">
        <ele>71.6</ele>
        <time>2018-01-12T14:57:04Z</time>
      </trkpt>
      <trkpt lat="47.82193" lon="-2.65472">
        <ele>71.77</ele>
        <time>2018-01-12T14:57:05Z</time>
      </trkpt>
      <trkpt lat="47.82194" lon="-2.6547">
        <ele>71.93</ele>
        <time>2018-01-12T14:57:06Z</time>
      </trkpt>
      <trkpt lat="47.82214" lon="-2.65443">
        <ele>74.98</ele>
        <time>2018-01-12T14:57:21Z</time>
      </trkpt>
      <trkpt lat="47.82214" lon="-2.6544">
        <ele>75.4</ele>
        <time>2018-01-12T14:57:22Z</time>
      </trkpt>
      <trkpt lat="47.82215" lon="-2.65438">
        <ele>75.6</ele>
        <time>2018-01-12T14:57:23Z</time>
      </trkpt>
      <trkpt lat="47.82217" lon="-2.65436">
        <ele>76.33</ele>
        <time>2018-01-12T14:57:26Z</time>
      </trkpt>
      <trkpt lat="47.82221" lon="-2.65432">
        <ele>77.3</ele>
        <time>2018-01-12T14:57:30Z</time>
      </trkpt>
      <trkpt lat="47.82229" lon="-2.65423">
        <ele>80.47</ele>
        <time>2018-01-12T14:57:43Z</time>
      </trkpt>
      <trkpt lat="47.8224" lon="-2.65414">
        <ele>83.5</ele>
        <time>2018-01-12T14:57:56Z</time>
      </trkpt>
      <trkpt lat="47.82242" lon="-2.65414">
        <ele>83.68</ele>
        <time>2018-01-12T14:57:57Z</time>
      </trkpt>
      <trkpt lat="47.82265" lon="-2.65401">
        <ele>85.56</ele>
        <time>2018-01-12T14:58:11Z</time>
      </trkpt>
      <trkpt lat="47.82283" lon="-2.65392">
        <ele>88.62</ele>
        <time>2018-01-12T14:58:24Z</time>
      </trkpt>
      <trkpt lat="47.823" lon="-2.65394">
        <ele>89.8</ele>
        <time>2018-01-12T14:58:37Z</time>
      </trkpt>
      <trkpt lat="47.82323" lon="-2.65391">
        <ele>90.47</ele>
        <time>2018-01-12T14:58:52Z</time>
      </trkpt>
      <trkpt lat="47.82343" lon="-2.65398">
        <ele>90.69</ele>
        <time>2018-01-12T14:59:06Z</time>
      </trkpt>
      <trkpt lat="47.82354" lon="-2.65431">
        <ele>91.09</ele>
        <time>2018-01-12T14:59:23Z</time>
      </trkpt>
      <trkpt lat="47.82355" lon="-2.65459">
        <ele>93.27</ele>
        <time>2018-01-12T14:59:38Z</time>
      </trkpt>
      <trkpt lat="47.82357" lon="-2.65497">
        <ele>94.51</ele>
        <time>2018-01-12T14:59:54Z</time>
      </trkpt>
      <trkpt lat="47.82357" lon="-2.65528">
        <ele>95.52</ele>
        <time>2018-01-12T15:00:08Z</time>
      </trkpt>
      <trkpt lat="47.82358" lon="-2.65563">
        <ele>96.15</ele>
        <time>2018-01-12T15:00:23Z</time>
      </trkpt>
      <trkpt lat="47.8236" lon="-2.65602">
        <ele>95.96</ele>
        <time>2018-01-12T15:00:41Z</time>
      </trkpt>
      <trkpt lat="47.82359" lon="-2.65607">
        <ele>96.08</ele>
        <time>2018-01-12T15:00:49Z</time>
      </trkpt>
      <trkpt lat="47.82359" lon="-2.65609">
        <ele>96.05</ele>
        <time>2018-01-12T15:00:50Z</time>
      </trkpt>
      <trkpt lat="47.82359" lon="-2.65611">
        <ele>96.02</ele>
        <time>2018-01-12T15:00:51Z</time>
      </trkpt>
      <trkpt lat="47.8236" lon="-2.6565">
        <ele>95.45</ele>
        <time>2018-01-12T15:01:07Z</time>
      </trkpt>
      <trkpt lat="47.82365" lon="-2.65693">
        <ele>95.09</ele>
        <time>2018-01-12T15:01:23Z</time>
      </trkpt>
      <trkpt lat="47.82384" lon="-2.65725">
        <ele>95.08</ele>
        <time>2018-01-12T15:01:39Z</time>
      </trkpt>
      <trkpt lat="47.82409" lon="-2.65736">
        <ele>95.62</ele>
        <time>2018-01-12T15:01:55Z</time>
      </trkpt>
      <trkpt lat="47.82442" lon="-2.65745">
        <ele>94.38</ele>
        <time>2018-01-12T15:02:14Z</time>
      </trkpt>
      <trkpt lat="47.82462" lon="-2.6575">
        <ele>92.56</ele>
        <time>2018-01-12T15:02:27Z</time>
      </trkpt>
      <trkpt lat="47.82477" lon="-2.65755">
        <ele>90.73</ele>
        <time>2018-01-12T15:02:38Z</time>
      </trkpt>
      <trkpt lat="47.82479" lon="-2.65755">
        <ele>90.54</ele>
        <time>2018-01-12T15:02:39Z</time>
      </trkpt>
      <trkpt lat="47.82481" lon="-2.65756">
        <ele>90.36</ele>
        <time>2018-01-12T15:02:40Z</time>
      </trkpt>
      <trkpt lat="47.82505" lon="-2.65764">
        <ele>87.96</ele>
        <time>2018-01-12T15:02:55Z</time>
      </trkpt>
      <trkpt lat="47.82524" lon="-2.65773">
        <ele>85.86</ele>
        <time>2018-01-12T15:03:07Z</time>
      </trkpt>
      <trkpt lat="47.82552" lon="-2.65783">
        <ele>83.67</ele>
        <time>2018-01-12T15:03:22Z</time>
      </trkpt>
      <trkpt lat="47.8258" lon="-2.65803">
        <ele>82.17</ele>
        <time>2018-01-12T15:03:39Z</time>
      </trkpt>
      <trkpt lat="47.82599" lon="-2.6582">
        <ele>82.52</ele>
        <time>2018-01-12T15:03:52Z</time>
      </trkpt>
      <trkpt lat="47.82621" lon="-2.65847">
        <ele>84.47</ele>
        <time>2018-01-12T15:04:09Z</time>
      </trkpt>
      <trkpt lat="47.8263" lon="-2.65861">
        <ele>85.49</ele>
        <time>2018-01-12T15:04:17Z</time>
      </trkpt>
      <trkpt lat="47.82631" lon="-2.65862">
        <ele>85.61</ele>
        <time>2018-01-12T15:04:18Z</time>
      </trkpt>
      <trkpt lat="47.82631" lon="-2.65862">
        <ele>85.96</ele>
        <time>2018-01-12T15:04:20Z</time>
      </trkpt>
      <trkpt lat="47.82632" lon="-2.65851">
        <ele>86.85</ele>
        <time>2018-01-12T15:04:26Z</time>
      </trkpt>
      <trkpt lat="47.82633" lon="-2.65845">
        <ele>87.4</ele>
        <time>2018-01-12T15:04:29Z</time>
      </trkpt>
      <trkpt lat="47.82635" lon="-2.65822">
        <ele>88.3</ele>
        <time>2018-01-12T15:04:43Z</time>
      </trkpt>
      <trkpt lat="47.8264" lon="-2.65814">
        <ele>88.69</ele>
        <time>2018-01-12T15:04:49Z</time>
      </trkpt>
      <trkpt lat="47.82666" lon="-2.65802">
        <ele>88.93</ele>
        <time>2018-01-12T15:05:02Z</time>
      </trkpt>
      <trkpt lat="47.8268" lon="-2.65798">
        <ele>88.47</ele>
        <time>2018-01-12T15:05:15Z</time>
      </trkpt>
      <trkpt lat="47.82683" lon="-2.65794">
        <ele>88.55</ele>
        <time>2018-01-12T15:05:19Z</time>
      </trkpt>
      <trkpt lat="47.82711" lon="-2.65759">
        <ele>89.22</ele>
        <time>2018-01-12T15:05:33Z</time>
      </trkpt>
      <trkpt lat="47.82714" lon="-2.65757">
        <ele>89.36</ele>
        <time>2018-01-12T15:05:34Z</time>
      </trkpt>
      <trkpt lat="47.82737" lon="-2.65765">
        <ele>90.54</ele>
        <time>2018-01-12T15:05:44Z</time>
      </trkpt>
      <trkpt lat="47.82762" lon="-2.65757">
        <ele>91.65</ele>
        <time>2018-01-12T15:05:48Z</time>
      </trkpt>
      <trkpt lat="47.82796" lon="-2.65754">
        <ele>92.67</ele>
        <time>2018-01-12T15:05:59Z</time>
      </trkpt>
      <trkpt lat="47.82804" lon="-2.65753">
        <ele>92.95</ele>
        <time>2018-01-12T15:06:03Z</time>
      </trkpt>
      <trkpt lat="47.82822" lon="-2.65759">
        <ele>93.25</ele>
        <time>2018-01-12T15:06:10Z</time>
      </trkpt>
      <trkpt lat="47.82853" lon="-2.65783">
        <ele>94.23</ele>
        <time>2018-01-12T15:06:20Z</time>
      </trkpt>
      <trkpt lat="47.82864" lon="-2.65792">
        <ele>96.47</ele>
        <time>2018-01-12T15:06:25Z</time>
      </trkpt>
      <trkpt lat="47.82893" lon="-2.65772">
        <ele>99.46</ele>
        <time>2018-01-12T15:06:36Z</time>
      </trkpt>
      <trkpt lat="47.829" lon="-2.65769">
        <ele>99.54</ele>
        <time>2018-01-12T15:06:38Z</time>
      </trkpt>
      <trkpt lat="47.82915" lon="-2.65765">
        <ele>99.53</ele>
        <time>2018-01-12T15:06:43Z</time>
      </trkpt>
      <trkpt lat="47.82936" lon="-2.65758">
        <ele>102.49</ele>
        <time>2018-01-12T15:06:56Z</time>
      </trkpt>
      <trkpt lat="47.82939" lon="-2.65758">
        <ele>102.7</ele>
        <time>2018-01-12T15:06:58Z</time>
      </trkpt>
      <trkpt lat="47.82951" lon="-2.65767">
        <ele>103.48</ele>
        <time>2018-01-12T15:07:03Z</time>
      </trkpt>
      <trkpt lat="47.82968" lon="-2.65786">
        <ele>104.56</ele>
        <time>2018-01-12T15:07:08Z</time>
      </trkpt>
      <trkpt lat="47.82978" lon="-2.65811">
        <ele>105.83</ele>
        <time>2018-01-12T15:07:12Z</time>
      </trkpt>
      <trkpt lat="47.82982" lon="-2.65822">
        <ele>106.81</ele>
        <time>2018-01-12T15:07:14Z</time>
      </trkpt>
      <trkpt lat="47.82987" lon="-2.65834">
        <ele>107.87</ele>
        <time>2018-01-12T15:07:16Z</time>
      </trkpt>
      <trkpt lat="47.83" lon="-2.65861">
        <ele>112.01</ele>
        <time>2018-01-12T15:07:21Z</time>
      </trkpt>
      <trkpt lat="47.83007" lon="-2.65869">
        <ele>114.24</ele>
        <time>2018-01-12T15:07:24Z</time>
      </trkpt>
      <trkpt lat="47.83013" lon="-2.65883">
        <ele>118.3</ele>
        <time>2018-01-12T15:07:30Z</time>
      </trkpt>
      <trkpt lat="47.83018" lon="-2.6589">
        <ele>120.31</ele>
        <time>2018-01-12T15:07:34Z</time>
      </trkpt>
      <trkpt lat="47.83031" lon="-2.65901">
        <ele>120.85</ele>
        <time>2018-01-12T15:07:42Z</time>
      </trkpt>
      <trkpt lat="47.83038" lon="-2.65921">
        <ele>119.77</ele>
        <time>2018-01-12T15:07:48Z</time>
      </trkpt>
      <trkpt lat="47.83042" lon="-2.65924">
        <ele>119.9</ele>
        <time>2018-01-12T15:07:50Z</time>
      </trkpt>
      <trkpt lat="47.83045" lon="-2.65926">
        <ele>120.46</ele>
        <time>2018-01-12T15:07:53Z</time>
      </trkpt>
      <trkpt lat="47.83047" lon="-2.65935">
        <ele>121.37</ele>
        <time>2018-01-12T15:08:01Z</time>
      </trkpt>
      <trkpt lat="47.83044" lon="-2.65961">
        <ele>122.83</ele>
        <time>2018-01-12T15:08:15Z</time>
      </trkpt>
      <trkpt lat="47.83043" lon="-2.65966">
        <ele>123.09</ele>
        <time>2018-01-12T15:08:18Z</time>
      </trkpt>
      <trkpt lat="47.8304" lon="-2.65988">
        <ele>125.25</ele>
        <time>2018-01-12T15:08:27Z</time>
      </trkpt>
      <trkpt lat="47.83038" lon="-2.65996">
        <ele>125.84</ele>
        <time>2018-01-12T15:08:31Z</time>
      </trkpt>
      <trkpt lat="47.83035" lon="-2.66041">
        <ele>127.9</ele>
        <time>2018-01-12T15:08:49Z</time>
      </trkpt>
      <trkpt lat="47.83031" lon="-2.66088">
        <ele>128.1</ele>
        <time>2018-01-12T15:09:08Z</time>
      </trkpt>
      <trkpt lat="47.83027" lon="-2.66122">
        <ele>127.69</ele>
        <time>2018-01-12T15:09:24Z</time>
      </trkpt>
      <trkpt lat="47.83023" lon="-2.66161">
        <ele>126.19</ele>
        <time>2018-01-12T15:09:41Z</time>
      </trkpt>
      <trkpt lat="47.83017" lon="-2.66208">
        <ele>124.27</ele>
        <time>2018-01-12T15:10:01Z</time>
      </trkpt>
      <trkpt lat="47.83015" lon="-2.66247">
        <ele>124.35</ele>
        <time>2018-01-12T15:10:19Z</time>
      </trkpt>
      <trkpt lat="47.83021" lon="-2.66285">
        <ele>125.63</ele>
        <time>2018-01-12T15:10:37Z</time>
      </trkpt>
      <trkpt lat="47.8303" lon="-2.66311">
        <ele>126.97</ele>
        <time>2018-01-12T15:10:51Z</time>
      </trkpt>
      <trkpt lat="47.83042" lon="-2.66342">
        <ele>128.18</ele>
        <time>2018-01-12T15:11:06Z</time>
      </trkpt>
      <trkpt lat="47.83044" lon="-2.66379">
        <ele>128.92</ele>
        <time>2018-01-12T15:11:23Z</time>
      </trkpt>
      <trkpt lat="47.83018" lon="-2.66409">
        <ele>127.24</ele>
        <time>2018-01-12T15:11:43Z</time>
      </trkpt>
      <trkpt lat="47.82995" lon="-2.66434">
        <ele>125.42</ele>
        <time>2018-01-12T15:12:01Z</time>
      </trkpt>
      <trkpt lat="47.82968" lon="-2.66462">
        <ele>123.32</ele>
        <time>2018-01-12T15:12:22Z</time>
      </trkpt>
      <trkpt lat="47.82964" lon="-2.66488">
        <ele>122.13</ele>
        <time>2018-01-12T15:12:36Z</time>
      </trkpt>
      <trkpt lat="47.82964" lon="-2.66539">
        <ele>121.3</ele>
        <time>2018-01-12T15:12:58Z</time>
      </trkpt>
      <trkpt lat="47.82964" lon="-2.66573">
        <ele>120.31</ele>
        <time>2018-01-12T15:13:13Z</time>
      </trkpt>
      <trkpt lat="47.82965" lon="-2.66587">
        <ele>120.06</ele>
        <time>2018-01-12T15:13:19Z</time>
      </trkpt>
      <trkpt lat="47.82969" lon="-2.66638">
        <ele>117.93</ele>
        <time>2018-01-12T15:13:40Z</time>
      </trkpt>
      <trkpt lat="47.82972" lon="-2.66675">
        <ele>116.48</ele>
        <time>2018-01-12T15:13:57Z</time>
      </trkpt>
      <trkpt lat="47.82979" lon="-2.66727">
        <ele>113.53</ele>
        <time>2018-01-12T15:14:19Z</time>
      </trkpt>
      <trkpt lat="47.82988" lon="-2.66772">
        <ele>110.79</ele>
        <time>2018-01-12T15:14:39Z</time>
      </trkpt>
      <trkpt lat="47.83006" lon="-2.66781">
        <ele>107.64</ele>
        <time>2018-01-12T15:14:55Z</time>
      </trkpt>
      <trkpt lat="47.83027" lon="-2.66785">
        <ele>105.26</ele>
        <time>2018-01-12T15:15:09Z</time>
      </trkpt>
      <trkpt lat="47.83047" lon="-2.66788">
        <ele>102.7</ele>
        <time>2018-01-12T15:15:23Z</time>
      </trkpt>
      <trkpt lat="47.83064" lon="-2.66789">
        <ele>101.51</ele>
        <time>2018-01-12T15:15:32Z</time>
      </trkpt>
      <trkpt lat="47.83068" lon="-2.66789">
        <ele>101.28</ele>
        <time>2018-01-12T15:15:34Z</time>
      </trkpt>
      <trkpt lat="47.83085" lon="-2.66793">
        <ele>100.14</ele>
        <time>2018-01-12T15:15:44Z</time>
      </trkpt>
      <trkpt lat="47.83113" lon="-2.66806">
        <ele>99.96</ele>
        <time>2018-01-12T15:16:02Z</time>
      </trkpt>
      <trkpt lat="47.83131" lon="-2.66834">
        <ele>100.45</ele>
        <time>2018-01-12T15:16:18Z</time>
      </trkpt>
      <trkpt lat="47.83132" lon="-2.66835">
        <ele>100.52</ele>
        <time>2018-01-12T15:16:19Z</time>
      </trkpt>
      <trkpt lat="47.83135" lon="-2.66845">
        <ele>100.81</ele>
        <time>2018-01-12T15:16:24Z</time>
      </trkpt>
      <trkpt lat="47.83143" lon="-2.66869">
        <ele>101.61</ele>
        <time>2018-01-12T15:16:38Z</time>
      </trkpt>
      <trkpt lat="47.83152" lon="-2.66887">
        <ele>102.42</ele>
        <time>2018-01-12T15:16:49Z</time>
      </trkpt>
      <trkpt lat="47.83166" lon="-2.66909">
        <ele>103.98</ele>
        <time>2018-01-12T15:17:03Z</time>
      </trkpt>
      <trkpt lat="47.8317" lon="-2.66916">
        <ele>104.17</ele>
        <time>2018-01-12T15:17:06Z</time>
      </trkpt>
      <trkpt lat="47.83172" lon="-2.6692">
        <ele>104.27</ele>
        <time>2018-01-12T15:17:07Z</time>
      </trkpt>
      <trkpt lat="47.83173" lon="-2.66924">
        <ele>104.34</ele>
        <time>2018-01-12T15:17:08Z</time>
      </trkpt>
      <trkpt lat="47.83192" lon="-2.66998">
        <ele>106.3</ele>
        <time>2018-01-12T15:17:19Z</time>
      </trkpt>
      <trkpt lat="47.83194" lon="-2.67005">
        <ele>106.5</ele>
        <time>2018-01-12T15:17:20Z</time>
      </trkpt>
      <trkpt lat="47.83195" lon="-2.67011">
        <ele>107.18</ele>
        <time>2018-01-12T15:17:21Z</time>
      </trkpt>
      <trkpt lat="47.83197" lon="-2.67018">
        <ele>107.58</ele>
        <time>2018-01-12T15:17:22Z</time>
      </trkpt>
      <trkpt lat="47.83198" lon="-2.67024">
        <ele>107.92</ele>
        <time>2018-01-12T15:17:23Z</time>
      </trkpt>
      <trkpt lat="47.83203" lon="-2.67055">
        <ele>109.35</ele>
        <time>2018-01-12T15:17:27Z</time>
      </trkpt>
      <trkpt lat="47.83212" lon="-2.67127">
        <ele>112.36</ele>
        <time>2018-01-12T15:17:35Z</time>
      </trkpt>
      <trkpt lat="47.83224" lon="-2.67217">
        <ele>115.69</ele>
        <time>2018-01-12T15:17:44Z</time>
      </trkpt>
      <trkpt lat="47.83231" lon="-2.6727">
        <ele>118.21</ele>
        <time>2018-01-12T15:17:50Z</time>
      </trkpt>
      <trkpt lat="47.83232" lon="-2.6728">
        <ele>118.59</ele>
        <time>2018-01-12T15:17:51Z</time>
      </trkpt>
      <trkpt lat="47.83234" lon="-2.67289">
        <ele>118.97</ele>
        <time>2018-01-12T15:17:52Z</time>
      </trkpt>
      <trkpt lat="47.83235" lon="-2.67298">
        <ele>119.33</ele>
        <time>2018-01-12T15:17:53Z</time>
      </trkpt>
      <trkpt lat="47.83236" lon="-2.67307">
        <ele>119.66</ele>
        <time>2018-01-12T15:17:54Z</time>
      </trkpt>
      <trkpt lat="47.83238" lon="-2.67315">
        <ele>119.98</ele>
        <time>2018-01-12T15:17:55Z</time>
      </trkpt>
      <trkpt lat="47.83239" lon="-2.67324">
        <ele>120.29</ele>
        <time>2018-01-12T15:17:56Z</time>
      </trkpt>
      <trkpt lat="47.8324" lon="-2.6734">
        <ele>121.01</ele>
        <time>2018-01-12T15:17:58Z</time>
      </trkpt>
      <trkpt lat="47.83241" lon="-2.67348">
        <ele>121.5</ele>
        <time>2018-01-12T15:17:59Z</time>
      </trkpt>
      <trkpt lat="47.83245" lon="-2.67387">
        <ele>124.19</ele>
        <time>2018-01-12T15:18:04Z</time>
      </trkpt>
      <trkpt lat="47.83251" lon="-2.67422">
        <ele>127.88</ele>
        <time>2018-01-12T15:18:10Z</time>
      </trkpt>
      <trkpt lat="47.83258" lon="-2.67459">
        <ele>130.99</ele>
        <time>2018-01-12T15:18:18Z</time>
      </trkpt>
      <trkpt lat="47.83269" lon="-2.67514">
        <ele>134.06</ele>
        <time>2018-01-12T15:18:30Z</time>
      </trkpt>
      <trkpt lat="47.83276" lon="-2.67545">
        <ele>135.33</ele>
        <time>2018-01-12T15:18:40Z</time>
      </trkpt>
      <trkpt lat="47.83277" lon="-2.67547">
        <ele>135.41</ele>
        <time>2018-01-12T15:18:41Z</time>
      </trkpt>
      <trkpt lat="47.83277" lon="-2.6755">
        <ele>135.5</ele>
        <time>2018-01-12T15:18:42Z</time>
      </trkpt>
      <trkpt lat="47.83278" lon="-2.67552">
        <ele>135.58</ele>
        <time>2018-01-12T15:18:43Z</time>
      </trkpt>
      <trkpt lat="47.83278" lon="-2.67554">
        <ele>135.64</ele>
        <time>2018-01-12T15:18:44Z</time>
      </trkpt>
      <trkpt lat="47.83279" lon="-2.67557">
        <ele>135.71</ele>
        <time>2018-01-12T15:18:45Z</time>
      </trkpt>
      <trkpt lat="47.83279" lon="-2.67559">
        <ele>135.78</ele>
        <time>2018-01-12T15:18:46Z</time>
      </trkpt>
      <trkpt lat="47.8328" lon="-2.67561">
        <ele>135.82</ele>
        <time>2018-01-12T15:18:47Z</time>
      </trkpt>
      <trkpt lat="47.83289" lon="-2.67599">
        <ele>136.47</ele>
        <time>2018-01-12T15:19:03Z</time>
      </trkpt>
      <trkpt lat="47.83297" lon="-2.6763">
        <ele>136.25</ele>
        <time>2018-01-12T15:19:18Z</time>
      </trkpt>
      <trkpt lat="47.83299" lon="-2.67636">
        <ele>136.13</ele>
        <time>2018-01-12T15:19:21Z</time>
      </trkpt>
      <trkpt lat="47.83303" lon="-2.67646">
        <ele>135.8</ele>
        <time>2018-01-12T15:19:26Z</time>
      </trkpt>
      <trkpt lat="47.83304" lon="-2.67648">
        <ele>135.78</ele>
        <time>2018-01-12T15:19:27Z</time>
      </trkpt>
      <trkpt lat="47.83309" lon="-2.67659">
        <ele>135.59</ele>
        <time>2018-01-12T15:19:34Z</time>
      </trkpt>
      <trkpt lat="47.8331" lon="-2.67662">
        <ele>135.57</ele>
        <time>2018-01-12T15:19:35Z</time>
      </trkpt>
      <trkpt lat="47.83315" lon="-2.67676">
        <ele>135.53</ele>
        <time>2018-01-12T15:19:41Z</time>
      </trkpt>
      <trkpt lat="47.83317" lon="-2.67682">
        <ele>135.5</ele>
        <time>2018-01-12T15:19:44Z</time>
      </trkpt>
      <trkpt lat="47.83325" lon="-2.67708">
        <ele>135.59</ele>
        <time>2018-01-12T15:19:56Z</time>
      </trkpt>
      <trkpt lat="47.83325" lon="-2.6771">
        <ele>135.54</ele>
        <time>2018-01-12T15:19:57Z</time>
      </trkpt>
      <trkpt lat="47.83325" lon="-2.67713">
        <ele>135.49</ele>
        <time>2018-01-12T15:19:58Z</time>
      </trkpt>
      <trkpt lat="47.8333" lon="-2.67736">
        <ele>135.33</ele>
        <time>2018-01-12T15:20:10Z</time>
      </trkpt>
      <trkpt lat="47.83332" lon="-2.67743">
        <ele>135.32</ele>
        <time>2018-01-12T15:20:14Z</time>
      </trkpt>
      <trkpt lat="47.83331" lon="-2.6777">
        <ele>134.79</ele>
        <time>2018-01-12T15:20:27Z</time>
      </trkpt>
      <trkpt lat="47.83329" lon="-2.67797">
        <ele>134</ele>
        <time>2018-01-12T15:20:40Z</time>
      </trkpt>
      <trkpt lat="47.83322" lon="-2.67825">
        <ele>133.84</ele>
        <time>2018-01-12T15:20:56Z</time>
      </trkpt>
      <trkpt lat="47.83319" lon="-2.67833">
        <ele>133.89</ele>
        <time>2018-01-12T15:21:00Z</time>
      </trkpt>
      <trkpt lat="47.83318" lon="-2.67835">
        <ele>133.99</ele>
        <time>2018-01-12T15:21:01Z</time>
      </trkpt>
      <trkpt lat="47.83313" lon="-2.6785">
        <ele>134.53</ele>
        <time>2018-01-12T15:21:10Z</time>
      </trkpt>
      <trkpt lat="47.83311" lon="-2.67856">
        <ele>134.8</ele>
        <time>2018-01-12T15:21:14Z</time>
      </trkpt>
      <trkpt lat="47.8331" lon="-2.6786">
        <ele>134.9</ele>
        <time>2018-01-12T15:21:15Z</time>
      </trkpt>
      <trkpt lat="47.83303" lon="-2.67886">
        <ele>137.01</ele>
        <time>2018-01-12T15:21:29Z</time>
      </trkpt>
      <trkpt lat="47.83294" lon="-2.67917">
        <ele>139.42</ele>
        <time>2018-01-12T15:21:42Z</time>
      </trkpt>
      <trkpt lat="47.83288" lon="-2.67949">
        <ele>142.2</ele>
        <time>2018-01-12T15:21:56Z</time>
      </trkpt>
      <trkpt lat="47.83288" lon="-2.67958">
        <ele>142.68</ele>
        <time>2018-01-12T15:22:00Z</time>
      </trkpt>
      <trkpt lat="47.83287" lon="-2.67963">
        <ele>142.85</ele>
        <time>2018-01-12T15:22:02Z</time>
      </trkpt>
      <trkpt lat="47.83288" lon="-2.67979">
        <ele>143.57</ele>
        <time>2018-01-12T15:22:09Z</time>
      </trkpt>
      <trkpt lat="47.8329" lon="-2.68024">
        <ele>144.87</ele>
        <time>2018-01-12T15:22:27Z</time>
      </trkpt>
      <trkpt lat="47.83291" lon="-2.6806">
        <ele>146.07</ele>
        <time>2018-01-12T15:22:42Z</time>
      </trkpt>
      <trkpt lat="47.83297" lon="-2.68094">
        <ele>147.07</ele>
        <time>2018-01-12T15:22:57Z</time>
      </trkpt>
      <trkpt lat="47.83301" lon="-2.68131">
        <ele>147.35</ele>
        <time>2018-01-12T15:23:14Z</time>
      </trkpt>
      <trkpt lat="47.83309" lon="-2.68158">
        <ele>147.73</ele>
        <time>2018-01-12T15:23:26Z</time>
      </trkpt>
      <trkpt lat="47.83323" lon="-2.68194">
        <ele>149.07</ele>
        <time>2018-01-12T15:23:43Z</time>
      </trkpt>
      <trkpt lat="47.83334" lon="-2.68221">
        <ele>150.39</ele>
        <time>2018-01-12T15:23:57Z</time>
      </trkpt>
      <trkpt lat="47.83345" lon="-2.6825">
        <ele>151.4</ele>
        <time>2018-01-12T15:24:11Z</time>
      </trkpt>
      <trkpt lat="47.83345" lon="-2.68252">
        <ele>151.49</ele>
        <time>2018-01-12T15:24:12Z</time>
      </trkpt>
      <trkpt lat="47.83345" lon="-2.68254">
        <ele>151.58</ele>
        <time>2018-01-12T15:24:13Z</time>
      </trkpt>
      <trkpt lat="47.83345" lon="-2.68256">
        <ele>151.67</ele>
        <time>2018-01-12T15:24:14Z</time>
      </trkpt>
      <trkpt lat="47.83345" lon="-2.68259">
        <ele>151.77</ele>
        <time>2018-01-12T15:24:15Z</time>
      </trkpt>
      <trkpt lat="47.83345" lon="-2.68261">
        <ele>151.85</ele>
        <time>2018-01-12T15:24:16Z</time>
      </trkpt>
      <trkpt lat="47.83345" lon="-2.68263">
        <ele>151.93</ele>
        <time>2018-01-12T15:24:17Z</time>
      </trkpt>
      <trkpt lat="47.83345" lon="-2.68266">
        <ele>152</ele>
        <time>2018-01-12T15:24:18Z</time>
      </trkpt>
      <trkpt lat="47.83345" lon="-2.68268">
        <ele>152.06</ele>
        <time>2018-01-12T15:24:19Z</time>
      </trkpt>
      <trkpt lat="47.83345" lon="-2.6827">
        <ele>152.11</ele>
        <time>2018-01-12T15:24:20Z</time>
      </trkpt>
      <trkpt lat="47.83346" lon="-2.68272">
        <ele>152.17</ele>
        <time>2018-01-12T15:24:21Z</time>
      </trkpt>
      <trkpt lat="47.83346" lon="-2.68275">
        <ele>152.23</ele>
        <time>2018-01-12T15:24:22Z</time>
      </trkpt>
      <trkpt lat="47.83346" lon="-2.68276">
        <ele>152.32</ele>
        <time>2018-01-12T15:24:23Z</time>
      </trkpt>
      <trkpt lat="47.83345" lon="-2.6831">
        <ele>152.86</ele>
        <time>2018-01-12T15:24:37Z</time>
      </trkpt>
      <trkpt lat="47.83344" lon="-2.68336">
        <ele>152.88</ele>
        <time>2018-01-12T15:24:47Z</time>
      </trkpt>
      <trkpt lat="47.83343" lon="-2.68338">
        <ele>152.86</ele>
        <time>2018-01-12T15:24:48Z</time>
      </trkpt>
      <trkpt lat="47.83343" lon="-2.68341">
        <ele>152.84</ele>
        <time>2018-01-12T15:24:49Z</time>
      </trkpt>
      <trkpt lat="47.83351" lon="-2.68379">
        <ele>153.96</ele>
        <time>2018-01-12T15:25:05Z</time>
      </trkpt>
      <trkpt lat="47.8336" lon="-2.68406">
        <ele>155.49</ele>
        <time>2018-01-12T15:25:18Z</time>
      </trkpt>
      <trkpt lat="47.83367" lon="-2.68431">
        <ele>156.91</ele>
        <time>2018-01-12T15:25:30Z</time>
      </trkpt>
      <trkpt lat="47.83377" lon="-2.68471">
        <ele>158.22</ele>
        <time>2018-01-12T15:25:47Z</time>
      </trkpt>
      <trkpt lat="47.83384" lon="-2.68512">
        <ele>158.5</ele>
        <time>2018-01-12T15:26:04Z</time>
      </trkpt>
      <trkpt lat="47.83387" lon="-2.68546">
        <ele>157.81</ele>
        <time>2018-01-12T15:26:18Z</time>
      </trkpt>
      <trkpt lat="47.83387" lon="-2.68564">
        <ele>157</ele>
        <time>2018-01-12T15:26:26Z</time>
      </trkpt>
      <trkpt lat="47.83387" lon="-2.68566">
        <ele>156.89</ele>
        <time>2018-01-12T15:26:27Z</time>
      </trkpt>
      <trkpt lat="47.83387" lon="-2.68578">
        <ele>156.21</ele>
        <time>2018-01-12T15:26:39Z</time>
      </trkpt>
      <trkpt lat="47.83387" lon="-2.68579">
        <ele>156.18</ele>
        <time>2018-01-12T15:26:40Z</time>
      </trkpt>
      <trkpt lat="47.83387" lon="-2.68581">
        <ele>156.14</ele>
        <time>2018-01-12T15:26:41Z</time>
      </trkpt>
      <trkpt lat="47.83387" lon="-2.68584">
        <ele>156.13</ele>
        <time>2018-01-12T15:26:42Z</time>
      </trkpt>
      <trkpt lat="47.83388" lon="-2.68586">
        <ele>156.12</ele>
        <time>2018-01-12T15:26:43Z</time>
      </trkpt>
      <trkpt lat="47.83388" lon="-2.68588">
        <ele>156.1</ele>
        <time>2018-01-12T15:26:44Z</time>
      </trkpt>
      <trkpt lat="47.83388" lon="-2.68591">
        <ele>156.06</ele>
        <time>2018-01-12T15:26:45Z</time>
      </trkpt>
      <trkpt lat="47.83388" lon="-2.68605">
        <ele>155.67</ele>
        <time>2018-01-12T15:26:52Z</time>
      </trkpt>
      <trkpt lat="47.83388" lon="-2.68607">
        <ele>155.61</ele>
        <time>2018-01-12T15:26:53Z</time>
      </trkpt>
      <trkpt lat="47.83397" lon="-2.68642">
        <ele>154.53</ele>
        <time>2018-01-12T15:27:08Z</time>
      </trkpt>
      <trkpt lat="47.83408" lon="-2.68672">
        <ele>153.88</ele>
        <time>2018-01-12T15:27:24Z</time>
      </trkpt>
      <trkpt lat="47.83423" lon="-2.68673">
        <ele>153.54</ele>
        <time>2018-01-12T15:27:38Z</time>
      </trkpt>
      <trkpt lat="47.83429" lon="-2.68679">
        <ele>152.42</ele>
        <time>2018-01-12T15:27:45Z</time>
      </trkpt>
      <trkpt lat="47.8344" lon="-2.68694">
        <ele>150.32</ele>
        <time>2018-01-12T15:27:57Z</time>
      </trkpt>
      <trkpt lat="47.83442" lon="-2.68719">
        <ele>148.74</ele>
        <time>2018-01-12T15:28:11Z</time>
      </trkpt>
      <trkpt lat="47.83444" lon="-2.68741">
        <ele>147.32</ele>
        <time>2018-01-12T15:28:21Z</time>
      </trkpt>
      <trkpt lat="47.83444" lon="-2.68743">
        <ele>147.13</ele>
        <time>2018-01-12T15:28:22Z</time>
      </trkpt>
      <trkpt lat="47.83446" lon="-2.6877">
        <ele>144.71</ele>
        <time>2018-01-12T15:28:33Z</time>
      </trkpt>
      <trkpt lat="47.83446" lon="-2.68779">
        <ele>144.23</ele>
        <time>2018-01-12T15:28:36Z</time>
      </trkpt>
      <trkpt lat="47.83445" lon="-2.68788">
        <ele>143.42</ele>
        <time>2018-01-12T15:28:40Z</time>
      </trkpt>
      <trkpt lat="47.83446" lon="-2.68811">
        <ele>140.83</ele>
        <time>2018-01-12T15:28:52Z</time>
      </trkpt>
      <trkpt lat="47.83445" lon="-2.68819">
        <ele>139.66</ele>
        <time>2018-01-12T15:28:57Z</time>
      </trkpt>
      <trkpt lat="47.83438" lon="-2.68827">
        <ele>136.42</ele>
        <time>2018-01-12T15:29:07Z</time>
      </trkpt>
      <trkpt lat="47.83438" lon="-2.68828">
        <ele>136.19</ele>
        <time>2018-01-12T15:29:08Z</time>
      </trkpt>
      <trkpt lat="47.83431" lon="-2.68847">
        <ele>133.16</ele>
        <time>2018-01-12T15:29:21Z</time>
      </trkpt>
      <trkpt lat="47.83428" lon="-2.68855">
        <ele>131.62</ele>
        <time>2018-01-12T15:29:45Z</time>
      </trkpt>
      <trkpt lat="47.83425" lon="-2.68861">
        <ele>131.52</ele>
        <time>2018-01-12T15:29:51Z</time>
      </trkpt>
      <trkpt lat="47.83412" lon="-2.68875">
        <ele>128.91</ele>
        <time>2018-01-12T15:30:03Z</time>
      </trkpt>
      <trkpt lat="47.83421" lon="-2.68888">
        <ele>131.09</ele>
        <time>2018-01-12T15:30:18Z</time>
      </trkpt>
      <trkpt lat="47.83434" lon="-2.68891">
        <ele>134.27</ele>
        <time>2018-01-12T15:30:30Z</time>
      </trkpt>
      <trkpt lat="47.83436" lon="-2.68891">
        <ele>134.52</ele>
        <time>2018-01-12T15:30:31Z</time>
      </trkpt>
      <trkpt lat="47.83447" lon="-2.68897">
        <ele>135.11</ele>
        <time>2018-01-12T15:30:39Z</time>
      </trkpt>
      <trkpt lat="47.83451" lon="-2.68903">
        <ele>135.59</ele>
        <time>2018-01-12T15:30:44Z</time>
      </trkpt>
      <trkpt lat="47.8346" lon="-2.6892">
        <ele>138.82</ele>
        <time>2018-01-12T15:30:54Z</time>
      </trkpt>
      <trkpt lat="47.83469" lon="-2.68942">
        <ele>141.89</ele>
        <time>2018-01-12T15:31:08Z</time>
      </trkpt>
      <trkpt lat="47.83479" lon="-2.68966">
        <ele>145.09</ele>
        <time>2018-01-12T15:31:21Z</time>
      </trkpt>
      <trkpt lat="47.83483" lon="-2.68974">
        <ele>145.68</ele>
        <time>2018-01-12T15:31:25Z</time>
      </trkpt>
      <trkpt lat="47.83495" lon="-2.69006">
        <ele>145.69</ele>
        <time>2018-01-12T15:31:38Z</time>
      </trkpt>
      <trkpt lat="47.83495" lon="-2.69018">
        <ele>146.27</ele>
        <time>2018-01-12T15:31:42Z</time>
      </trkpt>
      <trkpt lat="47.83511" lon="-2.69078">
        <ele>149.49</ele>
        <time>2018-01-12T15:31:54Z</time>
      </trkpt>
      <trkpt lat="47.83529" lon="-2.69121">
        <ele>152.44</ele>
        <time>2018-01-12T15:32:04Z</time>
      </trkpt>
      <trkpt lat="47.83537" lon="-2.69188">
        <ele>154.35</ele>
        <time>2018-01-12T15:32:13Z</time>
      </trkpt>
      <trkpt lat="47.8354" lon="-2.69215">
        <ele>156.17</ele>
        <time>2018-01-12T15:32:18Z</time>
      </trkpt>
      <trkpt lat="47.8354" lon="-2.69221">
        <ele>156.69</ele>
        <time>2018-01-12T15:32:19Z</time>
      </trkpt>
      <trkpt lat="47.83542" lon="-2.69271">
        <ele>160.1</ele>
        <time>2018-01-12T15:32:27Z</time>
      </trkpt>
      <trkpt lat="47.83545" lon="-2.69334">
        <ele>162.24</ele>
        <time>2018-01-12T15:32:37Z</time>
      </trkpt>
      <trkpt lat="47.83542" lon="-2.69385">
        <ele>163.2</ele>
        <time>2018-01-12T15:32:46Z</time>
      </trkpt>
      <trkpt lat="47.83543" lon="-2.6939">
        <ele>163.24</ele>
        <time>2018-01-12T15:32:47Z</time>
      </trkpt>
      <trkpt lat="47.8355" lon="-2.69406">
        <ele>163.28</ele>
        <time>2018-01-12T15:32:50Z</time>
      </trkpt>
      <trkpt lat="47.83559" lon="-2.69466">
        <ele>162.93</ele>
        <time>2018-01-12T15:32:59Z</time>
      </trkpt>
      <trkpt lat="47.83558" lon="-2.69473">
        <ele>162.9</ele>
        <time>2018-01-12T15:33:00Z</time>
      </trkpt>
      <trkpt lat="47.83565" lon="-2.69502">
        <ele>162.68</ele>
        <time>2018-01-12T15:33:05Z</time>
      </trkpt>
      <trkpt lat="47.8357" lon="-2.69535">
        <ele>162.6</ele>
        <time>2018-01-12T15:33:11Z</time>
      </trkpt>
      <trkpt lat="47.83584" lon="-2.69585">
        <ele>164.31</ele>
        <time>2018-01-12T15:33:22Z</time>
      </trkpt>
      <trkpt lat="47.83587" lon="-2.69604">
        <ele>164.76</ele>
        <time>2018-01-12T15:33:26Z</time>
      </trkpt>
      <trkpt lat="47.83593" lon="-2.6963">
        <ele>165.02</ele>
        <time>2018-01-12T15:33:32Z</time>
      </trkpt>
      <trkpt lat="47.83595" lon="-2.69659">
        <ele>165.2</ele>
        <time>2018-01-12T15:33:38Z</time>
      </trkpt>
      <trkpt lat="47.83598" lon="-2.69677">
        <ele>165.33</ele>
        <time>2018-01-12T15:33:42Z</time>
      </trkpt>
      <trkpt lat="47.83614" lon="-2.69729">
        <ele>167.71</ele>
        <time>2018-01-12T15:33:54Z</time>
      </trkpt>
      <trkpt lat="47.83626" lon="-2.69767">
        <ele>168.92</ele>
        <time>2018-01-12T15:34:01Z</time>
      </trkpt>
      <trkpt lat="47.83641" lon="-2.69786">
        <ele>169.29</ele>
        <time>2018-01-12T15:34:07Z</time>
      </trkpt>
      <trkpt lat="47.8365" lon="-2.69807">
        <ele>169.19</ele>
        <time>2018-01-12T15:34:12Z</time>
      </trkpt>
      <trkpt lat="47.83656" lon="-2.69839">
        <ele>169.85</ele>
        <time>2018-01-12T15:34:19Z</time>
      </trkpt>
      <trkpt lat="47.83666" lon="-2.69879">
        <ele>170.68</ele>
        <time>2018-01-12T15:34:27Z</time>
      </trkpt>
      <trkpt lat="47.83669" lon="-2.69908">
        <ele>171.1</ele>
        <time>2018-01-12T15:34:32Z</time>
      </trkpt>
      <trkpt lat="47.83666" lon="-2.69926">
        <ele>171.47</ele>
        <time>2018-01-12T15:34:35Z</time>
      </trkpt>
      <trkpt lat="47.83676" lon="-2.69976">
        <ele>172.99</ele>
        <time>2018-01-12T15:34:47Z</time>
      </trkpt>
      <trkpt lat="47.8367" lon="-2.7">
        <ele>173.7</ele>
        <time>2018-01-12T15:34:52Z</time>
      </trkpt>
      <trkpt lat="47.83665" lon="-2.70011">
        <ele>174.08</ele>
        <time>2018-01-12T15:34:55Z</time>
      </trkpt>
      <trkpt lat="47.83656" lon="-2.70026">
        <ele>174.68</ele>
        <time>2018-01-12T15:35:00Z</time>
      </trkpt>
      <trkpt lat="47.8365" lon="-2.70034">
        <ele>174.7</ele>
        <time>2018-01-12T15:35:03Z</time>
      </trkpt>
      <trkpt lat="47.83648" lon="-2.70047">
        <ele>174.46</ele>
        <time>2018-01-12T15:35:07Z</time>
      </trkpt>
      <trkpt lat="47.83648" lon="-2.70055">
        <ele>174.26</ele>
        <time>2018-01-12T15:35:09Z</time>
      </trkpt>
      <trkpt lat="47.83647" lon="-2.70074">
        <ele>173.81</ele>
        <time>2018-01-12T15:35:13Z</time>
      </trkpt>
      <trkpt lat="47.83654" lon="-2.70143">
        <ele>173.82</ele>
        <time>2018-01-12T15:35:25Z</time>
      </trkpt>
      <trkpt lat="47.83661" lon="-2.70202">
        <ele>174.49</ele>
        <time>2018-01-12T15:35:37Z</time>
      </trkpt>
      <trkpt lat="47.83667" lon="-2.70243">
        <ele>176.19</ele>
        <time>2018-01-12T15:35:54Z</time>
      </trkpt>
      <trkpt lat="47.83677" lon="-2.70279">
        <ele>177.96</ele>
        <time>2018-01-12T15:36:13Z</time>
      </trkpt>
      <trkpt lat="47.83684" lon="-2.70315">
        <ele>179.32</ele>
        <time>2018-01-12T15:36:30Z</time>
      </trkpt>
      <trkpt lat="47.83687" lon="-2.70326">
        <ele>179.99</ele>
        <time>2018-01-12T15:36:40Z</time>
      </trkpt>
      <trkpt lat="47.83691" lon="-2.70336">
        <ele>180.27</ele>
        <time>2018-01-12T15:36:46Z</time>
      </trkpt>
      <trkpt lat="47.83703" lon="-2.70374">
        <ele>182.8</ele>
        <time>2018-01-12T15:37:06Z</time>
      </trkpt>
      <trkpt lat="47.83712" lon="-2.70409">
        <ele>185.11</ele>
        <time>2018-01-12T15:37:23Z</time>
      </trkpt>
      <trkpt lat="47.83717" lon="-2.70442">
        <ele>185.48</ele>
        <time>2018-01-12T15:37:39Z</time>
      </trkpt>
      <trkpt lat="47.83726" lon="-2.7047">
        <ele>184.44</ele>
        <time>2018-01-12T15:37:53Z</time>
      </trkpt>
      <trkpt lat="47.83731" lon="-2.70508">
        <ele>182.91</ele>
        <time>2018-01-12T15:38:10Z</time>
      </trkpt>
      <trkpt lat="47.83731" lon="-2.7052">
        <ele>182.32</ele>
        <time>2018-01-12T15:38:16Z</time>
      </trkpt>
      <trkpt lat="47.83736" lon="-2.70535">
        <ele>181.55</ele>
        <time>2018-01-12T15:38:25Z</time>
      </trkpt>
      <trkpt lat="47.83734" lon="-2.70559">
        <ele>179.84</ele>
        <time>2018-01-12T15:38:37Z</time>
      </trkpt>
      <trkpt lat="47.83734" lon="-2.70586">
        <ele>177.71</ele>
        <time>2018-01-12T15:38:52Z</time>
      </trkpt>
      <trkpt lat="47.83734" lon="-2.70589">
        <ele>177.58</ele>
        <time>2018-01-12T15:38:53Z</time>
      </trkpt>
      <trkpt lat="47.83742" lon="-2.70604">
        <ele>177.15</ele>
        <time>2018-01-12T15:39:06Z</time>
      </trkpt>
      <trkpt lat="47.83743" lon="-2.70606">
        <ele>177.35</ele>
        <time>2018-01-12T15:39:08Z</time>
      </trkpt>
      <trkpt lat="47.83748" lon="-2.70617">
        <ele>178.5</ele>
        <time>2018-01-12T15:39:18Z</time>
      </trkpt>
      <trkpt lat="47.83751" lon="-2.70626">
        <ele>178.82</ele>
        <time>2018-01-12T15:39:23Z</time>
      </trkpt>
      <trkpt lat="47.83761" lon="-2.70664">
        <ele>179.82</ele>
        <time>2018-01-12T15:39:38Z</time>
      </trkpt>
      <trkpt lat="47.83772" lon="-2.707">
        <ele>181.3</ele>
        <time>2018-01-12T15:39:55Z</time>
      </trkpt>
      <trkpt lat="47.83776" lon="-2.70707">
        <ele>181.5</ele>
        <time>2018-01-12T15:40:00Z</time>
      </trkpt>
      <trkpt lat="47.83794" lon="-2.70725">
        <ele>181.8</ele>
        <time>2018-01-12T15:40:17Z</time>
      </trkpt>
      <trkpt lat="47.83796" lon="-2.70747">
        <ele>182.04</ele>
        <time>2018-01-12T15:40:29Z</time>
      </trkpt>
      <trkpt lat="47.83796" lon="-2.70766">
        <ele>182.66</ele>
        <time>2018-01-12T15:40:36Z</time>
      </trkpt>
      <trkpt lat="47.83798" lon="-2.70785">
        <ele>183.02</ele>
        <time>2018-01-12T15:40:44Z</time>
      </trkpt>
      <trkpt lat="47.83807" lon="-2.70802">
        <ele>183.32</ele>
        <time>2018-01-12T15:40:54Z</time>
      </trkpt>
      <trkpt lat="47.8381" lon="-2.70823">
        <ele>183.26</ele>
        <time>2018-01-12T15:41:05Z</time>
      </trkpt>
      <trkpt lat="47.8381" lon="-2.70834">
        <ele>182.96</ele>
        <time>2018-01-12T15:41:11Z</time>
      </trkpt>
      <trkpt lat="47.83797" lon="-2.70855">
        <ele>183.04</ele>
        <time>2018-01-12T15:41:25Z</time>
      </trkpt>
      <trkpt lat="47.83791" lon="-2.70867">
        <ele>183.32</ele>
        <time>2018-01-12T15:41:32Z</time>
      </trkpt>
      <trkpt lat="47.83792" lon="-2.70877">
        <ele>183.39</ele>
        <time>2018-01-12T15:41:36Z</time>
      </trkpt>
      <trkpt lat="47.83805" lon="-2.70914">
        <ele>183.34</ele>
        <time>2018-01-12T15:41:54Z</time>
      </trkpt>
      <trkpt lat="47.83806" lon="-2.7092">
        <ele>183.35</ele>
        <time>2018-01-12T15:41:57Z</time>
      </trkpt>
      <trkpt lat="47.83801" lon="-2.7093">
        <ele>183.27</ele>
        <time>2018-01-12T15:42:05Z</time>
      </trkpt>
      <trkpt lat="47.83802" lon="-2.70972">
        <ele>184.02</ele>
        <time>2018-01-12T15:42:22Z</time>
      </trkpt>
      <trkpt lat="47.83804" lon="-2.71008">
        <ele>184.23</ele>
        <time>2018-01-12T15:42:37Z</time>
      </trkpt>
      <trkpt lat="47.83803" lon="-2.7102">
        <ele>183.98</ele>
        <time>2018-01-12T15:42:44Z</time>
      </trkpt>
      <trkpt lat="47.83801" lon="-2.71052">
        <ele>184.33</ele>
        <time>2018-01-12T15:42:58Z</time>
      </trkpt>
      <trkpt lat="47.83807" lon="-2.71088">
        <ele>184.1</ele>
        <time>2018-01-12T15:43:13Z</time>
      </trkpt>
      <trkpt lat="47.83818" lon="-2.71123">
        <ele>183.58</ele>
        <time>2018-01-12T15:43:30Z</time>
      </trkpt>
      <trkpt lat="47.83826" lon="-2.7116">
        <ele>182.64</ele>
        <time>2018-01-12T15:43:48Z</time>
      </trkpt>
      <trkpt lat="47.83837" lon="-2.71188">
        <ele>181.95</ele>
        <time>2018-01-12T15:44:04Z</time>
      </trkpt>
      <trkpt lat="47.83841" lon="-2.71214">
        <ele>181.09</ele>
        <time>2018-01-12T15:44:17Z</time>
      </trkpt>
      <trkpt lat="47.83853" lon="-2.71237">
        <ele>180.65</ele>
        <time>2018-01-12T15:44:31Z</time>
      </trkpt>
      <trkpt lat="47.83867" lon="-2.71267">
        <ele>179.22</ele>
        <time>2018-01-12T15:44:47Z</time>
      </trkpt>
      <trkpt lat="47.83867" lon="-2.71293">
        <ele>177.34</ele>
        <time>2018-01-12T15:45:01Z</time>
      </trkpt>
      <trkpt lat="47.83866" lon="-2.71301">
        <ele>176.77</ele>
        <time>2018-01-12T15:45:05Z</time>
      </trkpt>
      <trkpt lat="47.83865" lon="-2.71327">
        <ele>174.42</ele>
        <time>2018-01-12T15:45:18Z</time>
      </trkpt>
      <trkpt lat="47.83876" lon="-2.71352">
        <ele>172.06</ele>
        <time>2018-01-12T15:45:33Z</time>
      </trkpt>
      <trkpt lat="47.83878" lon="-2.71356">
        <ele>171.66</ele>
        <time>2018-01-12T15:45:37Z</time>
      </trkpt>
      <trkpt lat="47.8388" lon="-2.71367">
        <ele>171.15</ele>
        <time>2018-01-12T15:45:42Z</time>
      </trkpt>
      <trkpt lat="47.83894" lon="-2.71402">
        <ele>169.4</ele>
        <time>2018-01-12T15:45:58Z</time>
      </trkpt>
      <trkpt lat="47.83903" lon="-2.71432">
        <ele>168.39</ele>
        <time>2018-01-12T15:46:12Z</time>
      </trkpt>
      <trkpt lat="47.83903" lon="-2.71456">
        <ele>167.56</ele>
        <time>2018-01-12T15:46:26Z</time>
      </trkpt>
      <trkpt lat="47.83904" lon="-2.71458">
        <ele>167.42</ele>
        <time>2018-01-12T15:46:28Z</time>
      </trkpt>
      <trkpt lat="47.83909" lon="-2.71471">
        <ele>167.26</ele>
        <time>2018-01-12T15:46:34Z</time>
      </trkpt>
      <trkpt lat="47.83919" lon="-2.7151">
        <ele>167.84</ele>
        <time>2018-01-12T15:46:49Z</time>
      </trkpt>
      <trkpt lat="47.83919" lon="-2.71547">
        <ele>168.02</ele>
        <time>2018-01-12T15:47:03Z</time>
      </trkpt>
      <trkpt lat="47.83921" lon="-2.71588">
        <ele>166.47</ele>
        <time>2018-01-12T15:47:20Z</time>
      </trkpt>
      <trkpt lat="47.83928" lon="-2.71619">
        <ele>164.77</ele>
        <time>2018-01-12T15:47:35Z</time>
      </trkpt>
      <trkpt lat="47.8393" lon="-2.7165">
        <ele>163.21</ele>
        <time>2018-01-12T15:47:48Z</time>
      </trkpt>
      <trkpt lat="47.83935" lon="-2.71667">
        <ele>161.96</ele>
        <time>2018-01-12T15:47:56Z</time>
      </trkpt>
      <trkpt lat="47.83939" lon="-2.71688">
        <ele>160.14</ele>
        <time>2018-01-12T15:48:08Z</time>
      </trkpt>
      <trkpt lat="47.83946" lon="-2.7171">
        <ele>157.67</ele>
        <time>2018-01-12T15:48:23Z</time>
      </trkpt>
      <trkpt lat="47.83953" lon="-2.71721">
        <ele>155.88</ele>
        <time>2018-01-12T15:48:32Z</time>
      </trkpt>
      <trkpt lat="47.8396" lon="-2.71715">
        <ele>153.3</ele>
        <time>2018-01-12T15:48:43Z</time>
      </trkpt>
      <trkpt lat="47.83968" lon="-2.71699">
        <ele>151.26</ele>
        <time>2018-01-12T15:48:52Z</time>
      </trkpt>
      <trkpt lat="47.83976" lon="-2.71672">
        <ele>147.73</ele>
        <time>2018-01-12T15:49:04Z</time>
      </trkpt>
      <trkpt lat="47.83988" lon="-2.71663">
        <ele>144.7</ele>
        <time>2018-01-12T15:49:14Z</time>
      </trkpt>
      <trkpt lat="47.84" lon="-2.71663">
        <ele>141.63</ele>
        <time>2018-01-12T15:49:23Z</time>
      </trkpt>
      <trkpt lat="47.84011" lon="-2.71668">
        <ele>140.15</ele>
        <time>2018-01-12T15:49:30Z</time>
      </trkpt>
      <trkpt lat="47.84016" lon="-2.71678">
        <ele>139.37</ele>
        <time>2018-01-12T15:49:35Z</time>
      </trkpt>
      <trkpt lat="47.84021" lon="-2.71692">
        <ele>138.64</ele>
        <time>2018-01-12T15:49:41Z</time>
      </trkpt>
      <trkpt lat="47.84024" lon="-2.71732">
        <ele>136.68</ele>
        <time>2018-01-12T15:49:56Z</time>
      </trkpt>
      <trkpt lat="47.84021" lon="-2.71762">
        <ele>135.5</ele>
        <time>2018-01-12T15:50:05Z</time>
      </trkpt>
      <trkpt lat="47.84017" lon="-2.71805">
        <ele>133.52</ele>
        <time>2018-01-12T15:50:20Z</time>
      </trkpt>
      <trkpt lat="47.8402" lon="-2.71827">
        <ele>132.04</ele>
        <time>2018-01-12T15:50:31Z</time>
      </trkpt>
      <trkpt lat="47.84026" lon="-2.71836">
        <ele>131.4</ele>
        <time>2018-01-12T15:50:50Z</time>
      </trkpt>
      <trkpt lat="47.84029" lon="-2.71838">
        <ele>131.25</ele>
        <time>2018-01-12T15:50:53Z</time>
      </trkpt>
      <trkpt lat="47.8403" lon="-2.71839">
        <ele>131.21</ele>
        <time>2018-01-12T15:50:54Z</time>
      </trkpt>
      <trkpt lat="47.84054" lon="-2.71846">
        <ele>132.17</ele>
        <time>2018-01-12T15:51:07Z</time>
      </trkpt>
      <trkpt lat="47.84074" lon="-2.71868">
        <ele>133.71</ele>
        <time>2018-01-12T15:51:22Z</time>
      </trkpt>
      <trkpt lat="47.84094" lon="-2.71905">
        <ele>135.19</ele>
        <time>2018-01-12T15:51:41Z</time>
      </trkpt>
      <trkpt lat="47.84117" lon="-2.71944">
        <ele>137.76</ele>
        <time>2018-01-12T15:52:03Z</time>
      </trkpt>
      <trkpt lat="47.84134" lon="-2.71955">
        <ele>139.06</ele>
        <time>2018-01-12T15:52:18Z</time>
      </trkpt>
      <trkpt lat="47.84155" lon="-2.7198">
        <ele>140</ele>
        <time>2018-01-12T15:52:36Z</time>
      </trkpt>
      <trkpt lat="47.84154" lon="-2.72031">
        <ele>141.14</ele>
        <time>2018-01-12T15:52:57Z</time>
      </trkpt>
      <trkpt lat="47.84149" lon="-2.72079">
        <ele>142.88</ele>
        <time>2018-01-12T15:53:17Z</time>
      </trkpt>
      <trkpt lat="47.84143" lon="-2.7213">
        <ele>144.77</ele>
        <time>2018-01-12T15:53:39Z</time>
      </trkpt>
      <trkpt lat="47.84139" lon="-2.72177">
        <ele>146.51</ele>
        <time>2018-01-12T15:53:59Z</time>
      </trkpt>
      <trkpt lat="47.8413" lon="-2.72218">
        <ele>148.13</ele>
        <time>2018-01-12T15:54:18Z</time>
      </trkpt>
      <trkpt lat="47.84103" lon="-2.72227">
        <ele>149.1</ele>
        <time>2018-01-12T15:54:37Z</time>
      </trkpt>
      <trkpt lat="47.84075" lon="-2.72238">
        <ele>149.83</ele>
        <time>2018-01-12T15:54:55Z</time>
      </trkpt>
      <trkpt lat="47.84068" lon="-2.72271">
        <ele>151.95</ele>
        <time>2018-01-12T15:55:11Z</time>
      </trkpt>
      <trkpt lat="47.84068" lon="-2.72311">
        <ele>155.12</ele>
        <time>2018-01-12T15:55:29Z</time>
      </trkpt>
      <trkpt lat="47.84069" lon="-2.72355">
        <ele>158.05</ele>
        <time>2018-01-12T15:55:49Z</time>
      </trkpt>
      <trkpt lat="47.8407" lon="-2.72394">
        <ele>161.13</ele>
        <time>2018-01-12T15:56:07Z</time>
      </trkpt>
      <trkpt lat="47.84071" lon="-2.72429">
        <ele>163.88</ele>
        <time>2018-01-12T15:56:24Z</time>
      </trkpt>
      <trkpt lat="47.84072" lon="-2.72464">
        <ele>166.01</ele>
        <time>2018-01-12T15:56:39Z</time>
      </trkpt>
      <trkpt lat="47.84073" lon="-2.72497">
        <ele>168.05</ele>
        <time>2018-01-12T15:56:53Z</time>
      </trkpt>
      <trkpt lat="47.8407" lon="-2.72529">
        <ele>169.04</ele>
        <time>2018-01-12T15:57:08Z</time>
      </trkpt>
      <trkpt lat="47.84071" lon="-2.72561">
        <ele>169.98</ele>
        <time>2018-01-12T15:57:23Z</time>
      </trkpt>
    </trkseg>
  </trk>
</gpx>